<?xml version="1.0" encoding="UTF-8" standalone="no" ?>
<gpx xmlns="http://www.topografix.com/GPX/1/1" xmlns:xsi="http://www.w3.org/2001/XMLSchema-instance" xsi:schemaLocation="http://www.topografix.com/GPX/1/1 http://www.topografix.com/GPX/1/1/gpx.xsd" version="1.1" creator="VisuGPX - https://www.visugpx.com">
  <metadata>
    <name>Pampelonne chemin des crêtes</name>
  </metadata>
  <trk>
    <name><![CDATA[2024-04-23_140929--Pampelonne-chemin-cretes-10km]]></name>
    <extensions>
      <line xmlns="http://www.topografix.com/GPX/gpx_style/0/2">
        <width>3</width>
      </line>
    </extensions>
    <trkseg>
      <trkpt lat="44.12295" lon="2.2444">
        <ele>424.4</ele>
        <time>2024-04-23T12:09:29.000Z</time>
      </trkpt>
      <trkpt lat="44.12295" lon="2.2444">
        <ele>424.4</ele>
        <time>2024-04-23T12:09:30.000Z</time>
      </trkpt>
      <trkpt lat="44.12293" lon="2.2444">
        <ele>428.4</ele>
        <time>2024-04-23T12:09:55.000Z</time>
      </trkpt>
      <trkpt lat="44.12293" lon="2.2444">
        <ele>428.4</ele>
        <time>2024-04-23T12:09:55.000Z</time>
      </trkpt>
      <trkpt lat="44.12293" lon="2.2444">
        <ele>428.5</ele>
        <time>2024-04-23T12:09:56.000Z</time>
      </trkpt>
      <trkpt lat="44.12293" lon="2.2444">
        <ele>428.6</ele>
        <time>2024-04-23T12:09:57.000Z</time>
      </trkpt>
      <trkpt lat="44.12292" lon="2.24441">
        <ele>429.4</ele>
        <time>2024-04-23T12:10:36.000Z</time>
      </trkpt>
      <trkpt lat="44.12292" lon="2.24441">
        <ele>429.5</ele>
        <time>2024-04-23T12:10:37.000Z</time>
      </trkpt>
      <trkpt lat="44.12292" lon="2.24441">
        <ele>429.6</ele>
        <time>2024-04-23T12:10:38.000Z</time>
      </trkpt>
      <trkpt lat="44.12292" lon="2.24441">
        <ele>429.7</ele>
        <time>2024-04-23T12:10:39.000Z</time>
      </trkpt>
      <trkpt lat="44.12292" lon="2.24441">
        <ele>429.8</ele>
        <time>2024-04-23T12:10:40.000Z</time>
      </trkpt>
      <trkpt lat="44.12293" lon="2.24441">
        <ele>430.6</ele>
        <time>2024-04-23T12:10:50.000Z</time>
      </trkpt>
      <trkpt lat="44.12293" lon="2.24441">
        <ele>430.7</ele>
        <time>2024-04-23T12:10:51.000Z</time>
      </trkpt>
      <trkpt lat="44.12293" lon="2.24441">
        <ele>430.7</ele>
        <time>2024-04-23T12:10:52.000Z</time>
      </trkpt>
      <trkpt lat="44.12293" lon="2.2444">
        <ele>431.4</ele>
        <time>2024-04-23T12:11:03.000Z</time>
      </trkpt>
      <trkpt lat="44.12293" lon="2.2444">
        <ele>431.5</ele>
        <time>2024-04-23T12:11:04.000Z</time>
      </trkpt>
      <trkpt lat="44.12293" lon="2.2444">
        <ele>431.5</ele>
        <time>2024-04-23T12:11:05.000Z</time>
      </trkpt>
      <trkpt lat="44.12293" lon="2.24439">
        <ele>432.3</ele>
        <time>2024-04-23T12:11:15.000Z</time>
      </trkpt>
      <trkpt lat="44.12293" lon="2.24439">
        <ele>432.4</ele>
        <time>2024-04-23T12:11:18.000Z</time>
      </trkpt>
      <trkpt lat="44.12293" lon="2.24439">
        <ele>432.5</ele>
        <time>2024-04-23T12:11:23.000Z</time>
      </trkpt>
      <trkpt lat="44.12293" lon="2.24439">
        <ele>432.6</ele>
        <time>2024-04-23T12:11:24.000Z</time>
      </trkpt>
      <trkpt lat="44.12293" lon="2.24439">
        <ele>432.6</ele>
        <time>2024-04-23T12:11:25.000Z</time>
      </trkpt>
      <trkpt lat="44.12293" lon="2.24439">
        <ele>432.7</ele>
        <time>2024-04-23T12:11:36.000Z</time>
      </trkpt>
      <trkpt lat="44.12293" lon="2.24439">
        <ele>432.7</ele>
        <time>2024-04-23T12:11:37.000Z</time>
      </trkpt>
      <trkpt lat="44.12296" lon="2.24441">
        <ele>433.1</ele>
        <time>2024-04-23T12:11:48.000Z</time>
      </trkpt>
      <trkpt lat="44.12295" lon="2.24441">
        <ele>433.2</ele>
        <time>2024-04-23T12:11:49.000Z</time>
      </trkpt>
      <trkpt lat="44.12296" lon="2.24441">
        <ele>433.2</ele>
        <time>2024-04-23T12:11:50.000Z</time>
      </trkpt>
      <trkpt lat="44.12296" lon="2.24441">
        <ele>433.3</ele>
        <time>2024-04-23T12:11:51.000Z</time>
      </trkpt>
      <trkpt lat="44.12296" lon="2.24441">
        <ele>433.4</ele>
        <time>2024-04-23T12:11:52.000Z</time>
      </trkpt>
      <trkpt lat="44.12296" lon="2.24441">
        <ele>433.5</ele>
        <time>2024-04-23T12:11:53.000Z</time>
      </trkpt>
      <trkpt lat="44.12296" lon="2.24441">
        <ele>433.9</ele>
        <time>2024-04-23T12:11:59.000Z</time>
      </trkpt>
      <trkpt lat="44.12296" lon="2.24442">
        <ele>434</ele>
        <time>2024-04-23T12:12:00.000Z</time>
      </trkpt>
      <trkpt lat="44.12296" lon="2.24441">
        <ele>434.1</ele>
        <time>2024-04-23T12:12:06.000Z</time>
      </trkpt>
      <trkpt lat="44.12296" lon="2.24441">
        <ele>434.1</ele>
        <time>2024-04-23T12:12:07.000Z</time>
      </trkpt>
      <trkpt lat="44.12296" lon="2.24441">
        <ele>434.1</ele>
        <time>2024-04-23T12:12:08.000Z</time>
      </trkpt>
      <trkpt lat="44.12296" lon="2.24441">
        <ele>434.1</ele>
        <time>2024-04-23T12:12:10.000Z</time>
      </trkpt>
      <trkpt lat="44.12296" lon="2.24441">
        <ele>434.1</ele>
        <time>2024-04-23T12:12:11.000Z</time>
      </trkpt>
      <trkpt lat="44.12295" lon="2.24441">
        <ele>434.1</ele>
        <time>2024-04-23T12:12:12.000Z</time>
      </trkpt>
      <trkpt lat="44.12296" lon="2.24441">
        <ele>434.1</ele>
        <time>2024-04-23T12:12:13.000Z</time>
      </trkpt>
      <trkpt lat="44.12294" lon="2.2444">
        <ele>434.2</ele>
        <time>2024-04-23T12:12:20.000Z</time>
      </trkpt>
      <trkpt lat="44.12294" lon="2.2444">
        <ele>434.2</ele>
        <time>2024-04-23T12:12:21.000Z</time>
      </trkpt>
      <trkpt lat="44.12294" lon="2.2444">
        <ele>434</ele>
        <time>2024-04-23T12:12:28.000Z</time>
      </trkpt>
      <trkpt lat="44.12293" lon="2.24442">
        <ele>434.1</ele>
        <time>2024-04-23T12:12:39.000Z</time>
      </trkpt>
      <trkpt lat="44.12293" lon="2.24443">
        <ele>434.1</ele>
        <time>2024-04-23T12:12:40.000Z</time>
      </trkpt>
      <trkpt lat="44.12293" lon="2.24443">
        <ele>434.1</ele>
        <time>2024-04-23T12:12:41.000Z</time>
      </trkpt>
      <trkpt lat="44.12293" lon="2.24443">
        <ele>434.1</ele>
        <time>2024-04-23T12:12:42.000Z</time>
      </trkpt>
      <trkpt lat="44.12292" lon="2.24444">
        <ele>434.2</ele>
        <time>2024-04-23T12:12:46.000Z</time>
      </trkpt>
      <trkpt lat="44.12292" lon="2.24444">
        <ele>434.3</ele>
        <time>2024-04-23T12:12:47.000Z</time>
      </trkpt>
      <trkpt lat="44.12291" lon="2.24444">
        <ele>434.3</ele>
        <time>2024-04-23T12:12:48.000Z</time>
      </trkpt>
      <trkpt lat="44.1229" lon="2.24444">
        <ele>434.3</ele>
        <time>2024-04-23T12:12:51.000Z</time>
      </trkpt>
      <trkpt lat="44.1229" lon="2.24444">
        <ele>434.3</ele>
        <time>2024-04-23T12:12:52.000Z</time>
      </trkpt>
      <trkpt lat="44.12291" lon="2.24445">
        <ele>434.4</ele>
        <time>2024-04-23T12:13:00.000Z</time>
      </trkpt>
      <trkpt lat="44.12291" lon="2.24445">
        <ele>434.4</ele>
        <time>2024-04-23T12:13:01.000Z</time>
      </trkpt>
      <trkpt lat="44.12291" lon="2.24445">
        <ele>434.4</ele>
        <time>2024-04-23T12:13:02.000Z</time>
      </trkpt>
      <trkpt lat="44.12291" lon="2.24445">
        <ele>434.5</ele>
        <time>2024-04-23T12:13:03.000Z</time>
      </trkpt>
      <trkpt lat="44.12291" lon="2.24445">
        <ele>434.5</ele>
        <time>2024-04-23T12:13:04.000Z</time>
      </trkpt>
      <trkpt lat="44.12291" lon="2.24445">
        <ele>434.5</ele>
        <time>2024-04-23T12:13:05.000Z</time>
      </trkpt>
      <trkpt lat="44.12291" lon="2.24445">
        <ele>434.5</ele>
        <time>2024-04-23T12:13:06.000Z</time>
      </trkpt>
      <trkpt lat="44.12291" lon="2.24445">
        <ele>434.5</ele>
        <time>2024-04-23T12:13:07.000Z</time>
      </trkpt>
      <trkpt lat="44.12291" lon="2.24445">
        <ele>434.6</ele>
        <time>2024-04-23T12:13:08.000Z</time>
      </trkpt>
      <trkpt lat="44.12291" lon="2.24445">
        <ele>434.6</ele>
        <time>2024-04-23T12:13:09.000Z</time>
      </trkpt>
      <trkpt lat="44.12291" lon="2.24445">
        <ele>434.6</ele>
        <time>2024-04-23T12:13:10.000Z</time>
      </trkpt>
      <trkpt lat="44.12292" lon="2.24445">
        <ele>434.6</ele>
        <time>2024-04-23T12:13:11.000Z</time>
      </trkpt>
      <trkpt lat="44.12292" lon="2.24446">
        <ele>434.6</ele>
        <time>2024-04-23T12:13:12.000Z</time>
      </trkpt>
      <trkpt lat="44.12293" lon="2.24446">
        <ele>434.7</ele>
        <time>2024-04-23T12:13:18.000Z</time>
      </trkpt>
      <trkpt lat="44.12293" lon="2.24446">
        <ele>434.7</ele>
        <time>2024-04-23T12:13:19.000Z</time>
      </trkpt>
      <trkpt lat="44.12291" lon="2.24446">
        <ele>434.7</ele>
        <time>2024-04-23T12:13:29.000Z</time>
      </trkpt>
      <trkpt lat="44.12291" lon="2.24446">
        <ele>434.7</ele>
        <time>2024-04-23T12:13:30.000Z</time>
      </trkpt>
      <trkpt lat="44.12292" lon="2.24445">
        <ele>434.7</ele>
        <time>2024-04-23T12:13:31.000Z</time>
      </trkpt>
      <trkpt lat="44.12292" lon="2.24445">
        <ele>434.7</ele>
        <time>2024-04-23T12:13:32.000Z</time>
      </trkpt>
      <trkpt lat="44.12292" lon="2.24445">
        <ele>434.7</ele>
        <time>2024-04-23T12:13:33.000Z</time>
      </trkpt>
      <trkpt lat="44.12292" lon="2.24445">
        <ele>434.7</ele>
        <time>2024-04-23T12:13:34.000Z</time>
      </trkpt>
      <trkpt lat="44.12291" lon="2.24444">
        <ele>434.7</ele>
        <time>2024-04-23T12:13:35.000Z</time>
      </trkpt>
      <trkpt lat="44.12291" lon="2.24443">
        <ele>434.7</ele>
        <time>2024-04-23T12:13:36.000Z</time>
      </trkpt>
      <trkpt lat="44.12291" lon="2.24443">
        <ele>434.7</ele>
        <time>2024-04-23T12:13:37.000Z</time>
      </trkpt>
      <trkpt lat="44.12293" lon="2.24442">
        <ele>434.7</ele>
        <time>2024-04-23T12:13:46.000Z</time>
      </trkpt>
      <trkpt lat="44.12293" lon="2.24442">
        <ele>434.7</ele>
        <time>2024-04-23T12:13:47.000Z</time>
      </trkpt>
      <trkpt lat="44.12295" lon="2.24441">
        <ele>434.6</ele>
        <time>2024-04-23T12:13:53.000Z</time>
      </trkpt>
      <trkpt lat="44.12295" lon="2.24441">
        <ele>434.6</ele>
        <time>2024-04-23T12:13:54.000Z</time>
      </trkpt>
      <trkpt lat="44.12295" lon="2.24441">
        <ele>434.6</ele>
        <time>2024-04-23T12:13:55.000Z</time>
      </trkpt>
      <trkpt lat="44.12295" lon="2.24441">
        <ele>434.6</ele>
        <time>2024-04-23T12:13:56.000Z</time>
      </trkpt>
      <trkpt lat="44.12295" lon="2.24441">
        <ele>434.6</ele>
        <time>2024-04-23T12:13:57.000Z</time>
      </trkpt>
      <trkpt lat="44.12304" lon="2.24442">
        <ele>434.2</ele>
        <time>2024-04-23T12:14:12.000Z</time>
      </trkpt>
      <trkpt lat="44.12309" lon="2.24455">
        <ele>433.8</ele>
        <time>2024-04-23T12:14:24.000Z</time>
      </trkpt>
      <trkpt lat="44.1231" lon="2.24467">
        <ele>433.5</ele>
        <time>2024-04-23T12:14:33.000Z</time>
      </trkpt>
      <trkpt lat="44.12313" lon="2.2448">
        <ele>433.6</ele>
        <time>2024-04-23T12:14:42.000Z</time>
      </trkpt>
      <trkpt lat="44.12313" lon="2.24493">
        <ele>433.8</ele>
        <time>2024-04-23T12:14:50.000Z</time>
      </trkpt>
      <trkpt lat="44.12313" lon="2.24506">
        <ele>433.7</ele>
        <time>2024-04-23T12:14:59.000Z</time>
      </trkpt>
      <trkpt lat="44.12315" lon="2.2452">
        <ele>433.9</ele>
        <time>2024-04-23T12:15:07.000Z</time>
      </trkpt>
      <trkpt lat="44.12316" lon="2.24533">
        <ele>435</ele>
        <time>2024-04-23T12:15:14.000Z</time>
      </trkpt>
      <trkpt lat="44.12317" lon="2.24546">
        <ele>436.6</ele>
        <time>2024-04-23T12:15:23.000Z</time>
      </trkpt>
      <trkpt lat="44.12317" lon="2.2456">
        <ele>437</ele>
        <time>2024-04-23T12:15:31.000Z</time>
      </trkpt>
      <trkpt lat="44.12317" lon="2.24572">
        <ele>437.4</ele>
        <time>2024-04-23T12:15:41.000Z</time>
      </trkpt>
      <trkpt lat="44.12322" lon="2.24583">
        <ele>437.4</ele>
        <time>2024-04-23T12:15:49.000Z</time>
      </trkpt>
      <trkpt lat="44.12323" lon="2.24597">
        <ele>437.5</ele>
        <time>2024-04-23T12:15:56.000Z</time>
      </trkpt>
      <trkpt lat="44.12327" lon="2.2461">
        <ele>437.4</ele>
        <time>2024-04-23T12:16:04.000Z</time>
      </trkpt>
      <trkpt lat="44.12331" lon="2.24622">
        <ele>437.3</ele>
        <time>2024-04-23T12:16:11.000Z</time>
      </trkpt>
      <trkpt lat="44.12337" lon="2.24632">
        <ele>437.1</ele>
        <time>2024-04-23T12:16:18.000Z</time>
      </trkpt>
      <trkpt lat="44.12342" lon="2.24643">
        <ele>436.8</ele>
        <time>2024-04-23T12:16:25.000Z</time>
      </trkpt>
      <trkpt lat="44.12347" lon="2.24655">
        <ele>436.6</ele>
        <time>2024-04-23T12:16:33.000Z</time>
      </trkpt>
      <trkpt lat="44.12353" lon="2.24666">
        <ele>436.3</ele>
        <time>2024-04-23T12:16:41.000Z</time>
      </trkpt>
      <trkpt lat="44.12357" lon="2.24678">
        <ele>436</ele>
        <time>2024-04-23T12:16:49.000Z</time>
      </trkpt>
      <trkpt lat="44.12362" lon="2.24689">
        <ele>435.8</ele>
        <time>2024-04-23T12:16:57.000Z</time>
      </trkpt>
      <trkpt lat="44.1237" lon="2.24697">
        <ele>435.4</ele>
        <time>2024-04-23T12:17:05.000Z</time>
      </trkpt>
      <trkpt lat="44.12375" lon="2.24708">
        <ele>435.2</ele>
        <time>2024-04-23T12:17:13.000Z</time>
      </trkpt>
      <trkpt lat="44.1238" lon="2.24719">
        <ele>435.1</ele>
        <time>2024-04-23T12:17:20.000Z</time>
      </trkpt>
      <trkpt lat="44.12382" lon="2.24732">
        <ele>435.2</ele>
        <time>2024-04-23T12:17:26.000Z</time>
      </trkpt>
      <trkpt lat="44.12387" lon="2.24743">
        <ele>435.9</ele>
        <time>2024-04-23T12:17:34.000Z</time>
      </trkpt>
      <trkpt lat="44.12394" lon="2.24752">
        <ele>436.4</ele>
        <time>2024-04-23T12:17:46.000Z</time>
      </trkpt>
      <trkpt lat="44.124" lon="2.24763">
        <ele>436.1</ele>
        <time>2024-04-23T12:17:54.000Z</time>
      </trkpt>
      <trkpt lat="44.12408" lon="2.24769">
        <ele>435.8</ele>
        <time>2024-04-23T12:18:02.000Z</time>
      </trkpt>
      <trkpt lat="44.12416" lon="2.24762">
        <ele>435.2</ele>
        <time>2024-04-23T12:18:09.000Z</time>
      </trkpt>
      <trkpt lat="44.12424" lon="2.24754">
        <ele>434.2</ele>
        <time>2024-04-23T12:18:17.000Z</time>
      </trkpt>
      <trkpt lat="44.12431" lon="2.24747">
        <ele>433.4</ele>
        <time>2024-04-23T12:18:25.000Z</time>
      </trkpt>
      <trkpt lat="44.12439" lon="2.24739">
        <ele>432.9</ele>
        <time>2024-04-23T12:18:34.000Z</time>
      </trkpt>
      <trkpt lat="44.12446" lon="2.2473">
        <ele>432.9</ele>
        <time>2024-04-23T12:18:43.000Z</time>
      </trkpt>
      <trkpt lat="44.12454" lon="2.24735">
        <ele>433.3</ele>
        <time>2024-04-23T12:18:50.000Z</time>
      </trkpt>
      <trkpt lat="44.1246" lon="2.24745">
        <ele>434.3</ele>
        <time>2024-04-23T12:18:58.000Z</time>
      </trkpt>
      <trkpt lat="44.12467" lon="2.24755">
        <ele>435.1</ele>
        <time>2024-04-23T12:19:07.000Z</time>
      </trkpt>
      <trkpt lat="44.12474" lon="2.24763">
        <ele>435.6</ele>
        <time>2024-04-23T12:19:14.000Z</time>
      </trkpt>
      <trkpt lat="44.12484" lon="2.24764">
        <ele>436.3</ele>
        <time>2024-04-23T12:19:22.000Z</time>
      </trkpt>
      <trkpt lat="44.12493" lon="2.24759">
        <ele>436.6</ele>
        <time>2024-04-23T12:19:30.000Z</time>
      </trkpt>
      <trkpt lat="44.12502" lon="2.24752">
        <ele>436.1</ele>
        <time>2024-04-23T12:19:38.000Z</time>
      </trkpt>
      <trkpt lat="44.1251" lon="2.24744">
        <ele>435.5</ele>
        <time>2024-04-23T12:19:45.000Z</time>
      </trkpt>
      <trkpt lat="44.12516" lon="2.24734">
        <ele>434.9</ele>
        <time>2024-04-23T12:19:53.000Z</time>
      </trkpt>
      <trkpt lat="44.12522" lon="2.24724">
        <ele>434.3</ele>
        <time>2024-04-23T12:20:01.000Z</time>
      </trkpt>
      <trkpt lat="44.12529" lon="2.24715">
        <ele>433.7</ele>
        <time>2024-04-23T12:20:09.000Z</time>
      </trkpt>
      <trkpt lat="44.12537" lon="2.24706">
        <ele>433.4</ele>
        <time>2024-04-23T12:20:17.000Z</time>
      </trkpt>
      <trkpt lat="44.12544" lon="2.24698">
        <ele>433.4</ele>
        <time>2024-04-23T12:20:25.000Z</time>
      </trkpt>
      <trkpt lat="44.12553" lon="2.24704">
        <ele>433.4</ele>
        <time>2024-04-23T12:20:34.000Z</time>
      </trkpt>
      <trkpt lat="44.12559" lon="2.24714">
        <ele>433.6</ele>
        <time>2024-04-23T12:20:42.000Z</time>
      </trkpt>
      <trkpt lat="44.12565" lon="2.24724">
        <ele>434.1</ele>
        <time>2024-04-23T12:20:50.000Z</time>
      </trkpt>
      <trkpt lat="44.12565" lon="2.24724">
        <ele>434.5</ele>
        <time>2024-04-23T12:20:54.000Z</time>
      </trkpt>
      <trkpt lat="44.12566" lon="2.24724">
        <ele>434.7</ele>
        <time>2024-04-23T12:20:55.000Z</time>
      </trkpt>
      <trkpt lat="44.12567" lon="2.24725">
        <ele>434.9</ele>
        <time>2024-04-23T12:20:56.000Z</time>
      </trkpt>
      <trkpt lat="44.12567" lon="2.24725">
        <ele>435.1</ele>
        <time>2024-04-23T12:20:57.000Z</time>
      </trkpt>
      <trkpt lat="44.12575" lon="2.24734">
        <ele>437.1</ele>
        <time>2024-04-23T12:21:05.000Z</time>
      </trkpt>
      <trkpt lat="44.12584" lon="2.24733">
        <ele>437.8</ele>
        <time>2024-04-23T12:21:12.000Z</time>
      </trkpt>
      <trkpt lat="44.12593" lon="2.24725">
        <ele>437.9</ele>
        <time>2024-04-23T12:21:20.000Z</time>
      </trkpt>
      <trkpt lat="44.12601" lon="2.24717">
        <ele>437.5</ele>
        <time>2024-04-23T12:21:28.000Z</time>
      </trkpt>
      <trkpt lat="44.12608" lon="2.24708">
        <ele>437.1</ele>
        <time>2024-04-23T12:21:35.000Z</time>
      </trkpt>
      <trkpt lat="44.12615" lon="2.24698">
        <ele>436.1</ele>
        <time>2024-04-23T12:21:43.000Z</time>
      </trkpt>
      <trkpt lat="44.1262" lon="2.24688">
        <ele>435</ele>
        <time>2024-04-23T12:21:50.000Z</time>
      </trkpt>
      <trkpt lat="44.12622" lon="2.24675">
        <ele>434</ele>
        <time>2024-04-23T12:21:57.000Z</time>
      </trkpt>
      <trkpt lat="44.12621" lon="2.24662">
        <ele>432.9</ele>
        <time>2024-04-23T12:22:04.000Z</time>
      </trkpt>
      <trkpt lat="44.12619" lon="2.24649">
        <ele>432.2</ele>
        <time>2024-04-23T12:22:11.000Z</time>
      </trkpt>
      <trkpt lat="44.12618" lon="2.24637">
        <ele>432.1</ele>
        <time>2024-04-23T12:22:18.000Z</time>
      </trkpt>
      <trkpt lat="44.12617" lon="2.24623">
        <ele>432.2</ele>
        <time>2024-04-23T12:22:26.000Z</time>
      </trkpt>
      <trkpt lat="44.12617" lon="2.24609">
        <ele>432.2</ele>
        <time>2024-04-23T12:22:34.000Z</time>
      </trkpt>
      <trkpt lat="44.12621" lon="2.24598">
        <ele>432.3</ele>
        <time>2024-04-23T12:22:42.000Z</time>
      </trkpt>
      <trkpt lat="44.1263" lon="2.2459">
        <ele>432.4</ele>
        <time>2024-04-23T12:22:51.000Z</time>
      </trkpt>
      <trkpt lat="44.12639" lon="2.24588">
        <ele>432</ele>
        <time>2024-04-23T12:23:03.000Z</time>
      </trkpt>
      <trkpt lat="44.12648" lon="2.24592">
        <ele>431.7</ele>
        <time>2024-04-23T12:23:14.000Z</time>
      </trkpt>
      <trkpt lat="44.12658" lon="2.24594">
        <ele>431.7</ele>
        <time>2024-04-23T12:23:20.000Z</time>
      </trkpt>
      <trkpt lat="44.12667" lon="2.24595">
        <ele>431.4</ele>
        <time>2024-04-23T12:23:27.000Z</time>
      </trkpt>
      <trkpt lat="44.12677" lon="2.24597">
        <ele>429.9</ele>
        <time>2024-04-23T12:23:35.000Z</time>
      </trkpt>
      <trkpt lat="44.12686" lon="2.24598">
        <ele>428</ele>
        <time>2024-04-23T12:23:43.000Z</time>
      </trkpt>
      <trkpt lat="44.12695" lon="2.24599">
        <ele>427</ele>
        <time>2024-04-23T12:23:51.000Z</time>
      </trkpt>
      <trkpt lat="44.12704" lon="2.24598">
        <ele>426.3</ele>
        <time>2024-04-23T12:23:59.000Z</time>
      </trkpt>
      <trkpt lat="44.12714" lon="2.24599">
        <ele>425.7</ele>
        <time>2024-04-23T12:24:07.000Z</time>
      </trkpt>
      <trkpt lat="44.12723" lon="2.24598">
        <ele>425.4</ele>
        <time>2024-04-23T12:24:15.000Z</time>
      </trkpt>
      <trkpt lat="44.12731" lon="2.24593">
        <ele>424.7</ele>
        <time>2024-04-23T12:24:27.000Z</time>
      </trkpt>
      <trkpt lat="44.1274" lon="2.24588">
        <ele>424</ele>
        <time>2024-04-23T12:24:36.000Z</time>
      </trkpt>
      <trkpt lat="44.12749" lon="2.2458">
        <ele>423.1</ele>
        <time>2024-04-23T12:24:45.000Z</time>
      </trkpt>
      <trkpt lat="44.12757" lon="2.24573">
        <ele>422.4</ele>
        <time>2024-04-23T12:24:52.000Z</time>
      </trkpt>
      <trkpt lat="44.12765" lon="2.24566">
        <ele>421.4</ele>
        <time>2024-04-23T12:25:01.000Z</time>
      </trkpt>
      <trkpt lat="44.12773" lon="2.24557">
        <ele>421</ele>
        <time>2024-04-23T12:25:10.000Z</time>
      </trkpt>
      <trkpt lat="44.12782" lon="2.24549">
        <ele>420.6</ele>
        <time>2024-04-23T12:25:18.000Z</time>
      </trkpt>
      <trkpt lat="44.1279" lon="2.24543">
        <ele>420.3</ele>
        <time>2024-04-23T12:25:25.000Z</time>
      </trkpt>
      <trkpt lat="44.12799" lon="2.24537">
        <ele>419.9</ele>
        <time>2024-04-23T12:25:32.000Z</time>
      </trkpt>
      <trkpt lat="44.12807" lon="2.24529">
        <ele>419.3</ele>
        <time>2024-04-23T12:25:41.000Z</time>
      </trkpt>
      <trkpt lat="44.12815" lon="2.24521">
        <ele>419.3</ele>
        <time>2024-04-23T12:25:48.000Z</time>
      </trkpt>
      <trkpt lat="44.12822" lon="2.24513">
        <ele>419</ele>
        <time>2024-04-23T12:25:56.000Z</time>
      </trkpt>
      <trkpt lat="44.12829" lon="2.24504">
        <ele>418.4</ele>
        <time>2024-04-23T12:26:05.000Z</time>
      </trkpt>
      <trkpt lat="44.12836" lon="2.24495">
        <ele>417.8</ele>
        <time>2024-04-23T12:26:14.000Z</time>
      </trkpt>
      <trkpt lat="44.12844" lon="2.24487">
        <ele>417.3</ele>
        <time>2024-04-23T12:26:22.000Z</time>
      </trkpt>
      <trkpt lat="44.12851" lon="2.24478">
        <ele>416.6</ele>
        <time>2024-04-23T12:26:29.000Z</time>
      </trkpt>
      <trkpt lat="44.12857" lon="2.24467">
        <ele>415.4</ele>
        <time>2024-04-23T12:26:37.000Z</time>
      </trkpt>
      <trkpt lat="44.12865" lon="2.2446">
        <ele>414.9</ele>
        <time>2024-04-23T12:26:44.000Z</time>
      </trkpt>
      <trkpt lat="44.12872" lon="2.24451">
        <ele>414.2</ele>
        <time>2024-04-23T12:26:51.000Z</time>
      </trkpt>
      <trkpt lat="44.12879" lon="2.24441">
        <ele>413.5</ele>
        <time>2024-04-23T12:26:59.000Z</time>
      </trkpt>
      <trkpt lat="44.12884" lon="2.2443">
        <ele>412.7</ele>
        <time>2024-04-23T12:27:09.000Z</time>
      </trkpt>
      <trkpt lat="44.12891" lon="2.2442">
        <ele>411</ele>
        <time>2024-04-23T12:27:17.000Z</time>
      </trkpt>
      <trkpt lat="44.12897" lon="2.24409">
        <ele>409.2</ele>
        <time>2024-04-23T12:27:25.000Z</time>
      </trkpt>
      <trkpt lat="44.12904" lon="2.24399">
        <ele>408</ele>
        <time>2024-04-23T12:27:34.000Z</time>
      </trkpt>
      <trkpt lat="44.12911" lon="2.2439">
        <ele>406.5</ele>
        <time>2024-04-23T12:27:42.000Z</time>
      </trkpt>
      <trkpt lat="44.12916" lon="2.2438">
        <ele>405.4</ele>
        <time>2024-04-23T12:27:49.000Z</time>
      </trkpt>
      <trkpt lat="44.12921" lon="2.24369">
        <ele>404.6</ele>
        <time>2024-04-23T12:27:57.000Z</time>
      </trkpt>
      <trkpt lat="44.12925" lon="2.24358">
        <ele>403.9</ele>
        <time>2024-04-23T12:28:05.000Z</time>
      </trkpt>
      <trkpt lat="44.1293" lon="2.24346">
        <ele>403.2</ele>
        <time>2024-04-23T12:28:14.000Z</time>
      </trkpt>
      <trkpt lat="44.12937" lon="2.24337">
        <ele>402.5</ele>
        <time>2024-04-23T12:28:23.000Z</time>
      </trkpt>
      <trkpt lat="44.12945" lon="2.24333">
        <ele>401.4</ele>
        <time>2024-04-23T12:28:31.000Z</time>
      </trkpt>
      <trkpt lat="44.12954" lon="2.24331">
        <ele>400.4</ele>
        <time>2024-04-23T12:28:40.000Z</time>
      </trkpt>
      <trkpt lat="44.12964" lon="2.2433">
        <ele>399.7</ele>
        <time>2024-04-23T12:28:49.000Z</time>
      </trkpt>
      <trkpt lat="44.12973" lon="2.24331">
        <ele>399.2</ele>
        <time>2024-04-23T12:28:58.000Z</time>
      </trkpt>
      <trkpt lat="44.12982" lon="2.24333">
        <ele>398.5</ele>
        <time>2024-04-23T12:29:05.000Z</time>
      </trkpt>
      <trkpt lat="44.12992" lon="2.24336">
        <ele>397.8</ele>
        <time>2024-04-23T12:29:13.000Z</time>
      </trkpt>
      <trkpt lat="44.13001" lon="2.24338">
        <ele>397.7</ele>
        <time>2024-04-23T12:29:21.000Z</time>
      </trkpt>
      <trkpt lat="44.13012" lon="2.24335">
        <ele>397.1</ele>
        <time>2024-04-23T12:29:29.000Z</time>
      </trkpt>
      <trkpt lat="44.13021" lon="2.24335">
        <ele>396.1</ele>
        <time>2024-04-23T12:29:38.000Z</time>
      </trkpt>
      <trkpt lat="44.13031" lon="2.24336">
        <ele>395.4</ele>
        <time>2024-04-23T12:29:46.000Z</time>
      </trkpt>
      <trkpt lat="44.1304" lon="2.24336">
        <ele>394.9</ele>
        <time>2024-04-23T12:29:53.000Z</time>
      </trkpt>
      <trkpt lat="44.13049" lon="2.24336">
        <ele>394.3</ele>
        <time>2024-04-23T12:30:01.000Z</time>
      </trkpt>
      <trkpt lat="44.13059" lon="2.24336">
        <ele>392.7</ele>
        <time>2024-04-23T12:30:09.000Z</time>
      </trkpt>
      <trkpt lat="44.13068" lon="2.24334">
        <ele>390.8</ele>
        <time>2024-04-23T12:30:17.000Z</time>
      </trkpt>
      <trkpt lat="44.13078" lon="2.2433">
        <ele>388.2</ele>
        <time>2024-04-23T12:30:27.000Z</time>
      </trkpt>
      <trkpt lat="44.13088" lon="2.2433">
        <ele>386.8</ele>
        <time>2024-04-23T12:30:33.000Z</time>
      </trkpt>
      <trkpt lat="44.13099" lon="2.24329">
        <ele>385.2</ele>
        <time>2024-04-23T12:30:40.000Z</time>
      </trkpt>
      <trkpt lat="44.13108" lon="2.24328">
        <ele>384.5</ele>
        <time>2024-04-23T12:30:48.000Z</time>
      </trkpt>
      <trkpt lat="44.13117" lon="2.24328">
        <ele>384.1</ele>
        <time>2024-04-23T12:30:55.000Z</time>
      </trkpt>
      <trkpt lat="44.13127" lon="2.24327">
        <ele>383.3</ele>
        <time>2024-04-23T12:31:02.000Z</time>
      </trkpt>
      <trkpt lat="44.13136" lon="2.24326">
        <ele>382</ele>
        <time>2024-04-23T12:31:10.000Z</time>
      </trkpt>
      <trkpt lat="44.13146" lon="2.24325">
        <ele>380.7</ele>
        <time>2024-04-23T12:31:17.000Z</time>
      </trkpt>
      <trkpt lat="44.13155" lon="2.24323">
        <ele>380</ele>
        <time>2024-04-23T12:31:24.000Z</time>
      </trkpt>
      <trkpt lat="44.13165" lon="2.24323">
        <ele>379.7</ele>
        <time>2024-04-23T12:31:32.000Z</time>
      </trkpt>
      <trkpt lat="44.13174" lon="2.2432">
        <ele>379.1</ele>
        <time>2024-04-23T12:31:40.000Z</time>
      </trkpt>
      <trkpt lat="44.13184" lon="2.24317">
        <ele>377.4</ele>
        <time>2024-04-23T12:31:48.000Z</time>
      </trkpt>
      <trkpt lat="44.13194" lon="2.24315">
        <ele>375.4</ele>
        <time>2024-04-23T12:31:57.000Z</time>
      </trkpt>
      <trkpt lat="44.13203" lon="2.24315">
        <ele>374.1</ele>
        <time>2024-04-23T12:32:05.000Z</time>
      </trkpt>
      <trkpt lat="44.13212" lon="2.24314">
        <ele>372.8</ele>
        <time>2024-04-23T12:32:13.000Z</time>
      </trkpt>
      <trkpt lat="44.13221" lon="2.24315">
        <ele>371.5</ele>
        <time>2024-04-23T12:32:21.000Z</time>
      </trkpt>
      <trkpt lat="44.13231" lon="2.24314">
        <ele>370.4</ele>
        <time>2024-04-23T12:32:31.000Z</time>
      </trkpt>
      <trkpt lat="44.1324" lon="2.24312">
        <ele>369.3</ele>
        <time>2024-04-23T12:32:39.000Z</time>
      </trkpt>
      <trkpt lat="44.13249" lon="2.24309">
        <ele>367.9</ele>
        <time>2024-04-23T12:32:46.000Z</time>
      </trkpt>
      <trkpt lat="44.13258" lon="2.24306">
        <ele>367.3</ele>
        <time>2024-04-23T12:32:53.000Z</time>
      </trkpt>
      <trkpt lat="44.13267" lon="2.24302">
        <ele>366.7</ele>
        <time>2024-04-23T12:33:00.000Z</time>
      </trkpt>
      <trkpt lat="44.13274" lon="2.24294">
        <ele>366.5</ele>
        <time>2024-04-23T12:33:08.000Z</time>
      </trkpt>
      <trkpt lat="44.13281" lon="2.24285">
        <ele>365.9</ele>
        <time>2024-04-23T12:33:17.000Z</time>
      </trkpt>
      <trkpt lat="44.13289" lon="2.24278">
        <ele>364.3</ele>
        <time>2024-04-23T12:33:26.000Z</time>
      </trkpt>
      <trkpt lat="44.13298" lon="2.24273">
        <ele>362.8</ele>
        <time>2024-04-23T12:33:35.000Z</time>
      </trkpt>
      <trkpt lat="44.13308" lon="2.24269">
        <ele>361.9</ele>
        <time>2024-04-23T12:33:43.000Z</time>
      </trkpt>
      <trkpt lat="44.13317" lon="2.24266">
        <ele>360.6</ele>
        <time>2024-04-23T12:33:52.000Z</time>
      </trkpt>
      <trkpt lat="44.13326" lon="2.24262">
        <ele>359.3</ele>
        <time>2024-04-23T12:34:01.000Z</time>
      </trkpt>
      <trkpt lat="44.13335" lon="2.24258">
        <ele>358.4</ele>
        <time>2024-04-23T12:34:09.000Z</time>
      </trkpt>
      <trkpt lat="44.13345" lon="2.24254">
        <ele>356.9</ele>
        <time>2024-04-23T12:34:17.000Z</time>
      </trkpt>
      <trkpt lat="44.13354" lon="2.24251">
        <ele>355.4</ele>
        <time>2024-04-23T12:34:25.000Z</time>
      </trkpt>
      <trkpt lat="44.13363" lon="2.24247">
        <ele>354.2</ele>
        <time>2024-04-23T12:34:33.000Z</time>
      </trkpt>
      <trkpt lat="44.13372" lon="2.24243">
        <ele>353.8</ele>
        <time>2024-04-23T12:34:41.000Z</time>
      </trkpt>
      <trkpt lat="44.13381" lon="2.24241">
        <ele>353.8</ele>
        <time>2024-04-23T12:34:49.000Z</time>
      </trkpt>
      <trkpt lat="44.1339" lon="2.24237">
        <ele>353.2</ele>
        <time>2024-04-23T12:34:58.000Z</time>
      </trkpt>
      <trkpt lat="44.13399" lon="2.24236">
        <ele>352.1</ele>
        <time>2024-04-23T12:35:06.000Z</time>
      </trkpt>
      <trkpt lat="44.13409" lon="2.24236">
        <ele>351.3</ele>
        <time>2024-04-23T12:35:13.000Z</time>
      </trkpt>
      <trkpt lat="44.13419" lon="2.24233">
        <ele>350.7</ele>
        <time>2024-04-23T12:35:22.000Z</time>
      </trkpt>
      <trkpt lat="44.13428" lon="2.24234">
        <ele>350</ele>
        <time>2024-04-23T12:35:30.000Z</time>
      </trkpt>
      <trkpt lat="44.13438" lon="2.24235">
        <ele>349.1</ele>
        <time>2024-04-23T12:35:38.000Z</time>
      </trkpt>
      <trkpt lat="44.13448" lon="2.24238">
        <ele>348.1</ele>
        <time>2024-04-23T12:35:46.000Z</time>
      </trkpt>
      <trkpt lat="44.13456" lon="2.24246">
        <ele>347.4</ele>
        <time>2024-04-23T12:35:53.000Z</time>
      </trkpt>
      <trkpt lat="44.13464" lon="2.24254">
        <ele>346.7</ele>
        <time>2024-04-23T12:36:01.000Z</time>
      </trkpt>
      <trkpt lat="44.13466" lon="2.24267">
        <ele>345.9</ele>
        <time>2024-04-23T12:36:10.000Z</time>
      </trkpt>
      <trkpt lat="44.13464" lon="2.2428">
        <ele>345.6</ele>
        <time>2024-04-23T12:36:18.000Z</time>
      </trkpt>
      <trkpt lat="44.13462" lon="2.24293">
        <ele>345.1</ele>
        <time>2024-04-23T12:36:26.000Z</time>
      </trkpt>
      <trkpt lat="44.13459" lon="2.24306">
        <ele>344.8</ele>
        <time>2024-04-23T12:36:35.000Z</time>
      </trkpt>
      <trkpt lat="44.13451" lon="2.24315">
        <ele>344.3</ele>
        <time>2024-04-23T12:36:44.000Z</time>
      </trkpt>
      <trkpt lat="44.13444" lon="2.24322">
        <ele>343.3</ele>
        <time>2024-04-23T12:36:52.000Z</time>
      </trkpt>
      <trkpt lat="44.13435" lon="2.24329">
        <ele>341.8</ele>
        <time>2024-04-23T12:37:01.000Z</time>
      </trkpt>
      <trkpt lat="44.13431" lon="2.2433">
        <ele>340.7</ele>
        <time>2024-04-23T12:37:13.000Z</time>
      </trkpt>
      <trkpt lat="44.13431" lon="2.2433">
        <ele>340.6</ele>
        <time>2024-04-23T12:37:14.000Z</time>
      </trkpt>
      <trkpt lat="44.13431" lon="2.24331">
        <ele>340.4</ele>
        <time>2024-04-23T12:37:20.000Z</time>
      </trkpt>
      <trkpt lat="44.13431" lon="2.24332">
        <ele>340.4</ele>
        <time>2024-04-23T12:37:21.000Z</time>
      </trkpt>
      <trkpt lat="44.1343" lon="2.24332">
        <ele>340.4</ele>
        <time>2024-04-23T12:37:22.000Z</time>
      </trkpt>
      <trkpt lat="44.1343" lon="2.24334">
        <ele>340.4</ele>
        <time>2024-04-23T12:37:31.000Z</time>
      </trkpt>
      <trkpt lat="44.1343" lon="2.24334">
        <ele>340.4</ele>
        <time>2024-04-23T12:37:32.000Z</time>
      </trkpt>
      <trkpt lat="44.1343" lon="2.24334">
        <ele>340.4</ele>
        <time>2024-04-23T12:37:33.000Z</time>
      </trkpt>
      <trkpt lat="44.13429" lon="2.24333">
        <ele>340.5</ele>
        <time>2024-04-23T12:37:48.000Z</time>
      </trkpt>
      <trkpt lat="44.13429" lon="2.24333">
        <ele>340.5</ele>
        <time>2024-04-23T12:37:49.000Z</time>
      </trkpt>
      <trkpt lat="44.13429" lon="2.24333">
        <ele>340.5</ele>
        <time>2024-04-23T12:37:50.000Z</time>
      </trkpt>
      <trkpt lat="44.13429" lon="2.24333">
        <ele>340.5</ele>
        <time>2024-04-23T12:37:51.000Z</time>
      </trkpt>
      <trkpt lat="44.13429" lon="2.24333">
        <ele>340.5</ele>
        <time>2024-04-23T12:37:52.000Z</time>
      </trkpt>
      <trkpt lat="44.13429" lon="2.24333">
        <ele>340.4</ele>
        <time>2024-04-23T12:37:53.000Z</time>
      </trkpt>
      <trkpt lat="44.13428" lon="2.24333">
        <ele>340.4</ele>
        <time>2024-04-23T12:37:54.000Z</time>
      </trkpt>
      <trkpt lat="44.13428" lon="2.24332">
        <ele>340.4</ele>
        <time>2024-04-23T12:37:58.000Z</time>
      </trkpt>
      <trkpt lat="44.13428" lon="2.24332">
        <ele>340.3</ele>
        <time>2024-04-23T12:37:59.000Z</time>
      </trkpt>
      <trkpt lat="44.13428" lon="2.24333">
        <ele>340.1</ele>
        <time>2024-04-23T12:38:05.000Z</time>
      </trkpt>
      <trkpt lat="44.13429" lon="2.24332">
        <ele>340.1</ele>
        <time>2024-04-23T12:38:06.000Z</time>
      </trkpt>
      <trkpt lat="44.13429" lon="2.24332">
        <ele>340</ele>
        <time>2024-04-23T12:38:07.000Z</time>
      </trkpt>
      <trkpt lat="44.1343" lon="2.24331">
        <ele>339.8</ele>
        <time>2024-04-23T12:38:13.000Z</time>
      </trkpt>
      <trkpt lat="44.1343" lon="2.24331">
        <ele>339.8</ele>
        <time>2024-04-23T12:38:14.000Z</time>
      </trkpt>
      <trkpt lat="44.13427" lon="2.24332">
        <ele>339.2</ele>
        <time>2024-04-23T12:38:24.000Z</time>
      </trkpt>
      <trkpt lat="44.13427" lon="2.24332">
        <ele>339.1</ele>
        <time>2024-04-23T12:38:25.000Z</time>
      </trkpt>
      <trkpt lat="44.13418" lon="2.24325">
        <ele>338</ele>
        <time>2024-04-23T12:38:37.000Z</time>
      </trkpt>
      <trkpt lat="44.1341" lon="2.24321">
        <ele>337.9</ele>
        <time>2024-04-23T12:38:46.000Z</time>
      </trkpt>
      <trkpt lat="44.13401" lon="2.24322">
        <ele>338</ele>
        <time>2024-04-23T12:38:54.000Z</time>
      </trkpt>
      <trkpt lat="44.13398" lon="2.24324">
        <ele>338.2</ele>
        <time>2024-04-23T12:39:01.000Z</time>
      </trkpt>
      <trkpt lat="44.13398" lon="2.24324">
        <ele>338.2</ele>
        <time>2024-04-23T12:39:02.000Z</time>
      </trkpt>
      <trkpt lat="44.13398" lon="2.24324">
        <ele>338.2</ele>
        <time>2024-04-23T12:39:03.000Z</time>
      </trkpt>
      <trkpt lat="44.13396" lon="2.24325">
        <ele>338.4</ele>
        <time>2024-04-23T12:39:09.000Z</time>
      </trkpt>
      <trkpt lat="44.13395" lon="2.24326">
        <ele>338.4</ele>
        <time>2024-04-23T12:39:10.000Z</time>
      </trkpt>
      <trkpt lat="44.13386" lon="2.24327">
        <ele>338.6</ele>
        <time>2024-04-23T12:39:17.000Z</time>
      </trkpt>
      <trkpt lat="44.13377" lon="2.24329">
        <ele>338.6</ele>
        <time>2024-04-23T12:39:24.000Z</time>
      </trkpt>
      <trkpt lat="44.13367" lon="2.24334">
        <ele>338.5</ele>
        <time>2024-04-23T12:39:32.000Z</time>
      </trkpt>
      <trkpt lat="44.13358" lon="2.24339">
        <ele>338.3</ele>
        <time>2024-04-23T12:39:40.000Z</time>
      </trkpt>
      <trkpt lat="44.13349" lon="2.24345">
        <ele>337.8</ele>
        <time>2024-04-23T12:39:49.000Z</time>
      </trkpt>
      <trkpt lat="44.1334" lon="2.24349">
        <ele>337.4</ele>
        <time>2024-04-23T12:39:57.000Z</time>
      </trkpt>
      <trkpt lat="44.13332" lon="2.24356">
        <ele>337.2</ele>
        <time>2024-04-23T12:40:05.000Z</time>
      </trkpt>
      <trkpt lat="44.13324" lon="2.24362">
        <ele>336.9</ele>
        <time>2024-04-23T12:40:13.000Z</time>
      </trkpt>
      <trkpt lat="44.13315" lon="2.24367">
        <ele>336.5</ele>
        <time>2024-04-23T12:40:22.000Z</time>
      </trkpt>
      <trkpt lat="44.13307" lon="2.24373">
        <ele>335.8</ele>
        <time>2024-04-23T12:40:30.000Z</time>
      </trkpt>
      <trkpt lat="44.13298" lon="2.24374">
        <ele>334.5</ele>
        <time>2024-04-23T12:40:39.000Z</time>
      </trkpt>
      <trkpt lat="44.13288" lon="2.24376">
        <ele>334</ele>
        <time>2024-04-23T12:40:47.000Z</time>
      </trkpt>
      <trkpt lat="44.1328" lon="2.24381">
        <ele>333.8</ele>
        <time>2024-04-23T12:40:55.000Z</time>
      </trkpt>
      <trkpt lat="44.13271" lon="2.24386">
        <ele>333.5</ele>
        <time>2024-04-23T12:41:03.000Z</time>
      </trkpt>
      <trkpt lat="44.13263" lon="2.24392">
        <ele>333.2</ele>
        <time>2024-04-23T12:41:12.000Z</time>
      </trkpt>
      <trkpt lat="44.13255" lon="2.24401">
        <ele>332.7</ele>
        <time>2024-04-23T12:41:22.000Z</time>
      </trkpt>
      <trkpt lat="44.13251" lon="2.24412">
        <ele>332.3</ele>
        <time>2024-04-23T12:41:30.000Z</time>
      </trkpt>
      <trkpt lat="44.13244" lon="2.24422">
        <ele>331.8</ele>
        <time>2024-04-23T12:41:39.000Z</time>
      </trkpt>
      <trkpt lat="44.13237" lon="2.24432">
        <ele>330.2</ele>
        <time>2024-04-23T12:41:48.000Z</time>
      </trkpt>
      <trkpt lat="44.13234" lon="2.24445">
        <ele>329.5</ele>
        <time>2024-04-23T12:41:57.000Z</time>
      </trkpt>
      <trkpt lat="44.13231" lon="2.24458">
        <ele>329.4</ele>
        <time>2024-04-23T12:42:05.000Z</time>
      </trkpt>
      <trkpt lat="44.13227" lon="2.24472">
        <ele>329.2</ele>
        <time>2024-04-23T12:42:13.000Z</time>
      </trkpt>
      <trkpt lat="44.13224" lon="2.24484">
        <ele>329.1</ele>
        <time>2024-04-23T12:42:21.000Z</time>
      </trkpt>
      <trkpt lat="44.1322" lon="2.24496">
        <ele>328.7</ele>
        <time>2024-04-23T12:42:29.000Z</time>
      </trkpt>
      <trkpt lat="44.13213" lon="2.24507">
        <ele>326.5</ele>
        <time>2024-04-23T12:42:38.000Z</time>
      </trkpt>
      <trkpt lat="44.13209" lon="2.24519">
        <ele>325.3</ele>
        <time>2024-04-23T12:42:46.000Z</time>
      </trkpt>
      <trkpt lat="44.13208" lon="2.24531">
        <ele>325.3</ele>
        <time>2024-04-23T12:42:53.000Z</time>
      </trkpt>
      <trkpt lat="44.13209" lon="2.24544">
        <ele>325.3</ele>
        <time>2024-04-23T12:43:02.000Z</time>
      </trkpt>
      <trkpt lat="44.13209" lon="2.24557">
        <ele>325.2</ele>
        <time>2024-04-23T12:43:10.000Z</time>
      </trkpt>
      <trkpt lat="44.13208" lon="2.2457">
        <ele>325.2</ele>
        <time>2024-04-23T12:43:18.000Z</time>
      </trkpt>
      <trkpt lat="44.13212" lon="2.24582">
        <ele>325.1</ele>
        <time>2024-04-23T12:43:28.000Z</time>
      </trkpt>
      <trkpt lat="44.13215" lon="2.24595">
        <ele>324.3</ele>
        <time>2024-04-23T12:43:37.000Z</time>
      </trkpt>
      <trkpt lat="44.13217" lon="2.24608">
        <ele>323.1</ele>
        <time>2024-04-23T12:43:45.000Z</time>
      </trkpt>
      <trkpt lat="44.13215" lon="2.24622">
        <ele>322.3</ele>
        <time>2024-04-23T12:43:54.000Z</time>
      </trkpt>
      <trkpt lat="44.13216" lon="2.24635">
        <ele>321.8</ele>
        <time>2024-04-23T12:44:04.000Z</time>
      </trkpt>
      <trkpt lat="44.13217" lon="2.24648">
        <ele>320.6</ele>
        <time>2024-04-23T12:44:19.000Z</time>
      </trkpt>
      <trkpt lat="44.13217" lon="2.2465">
        <ele>320.3</ele>
        <time>2024-04-23T12:44:23.000Z</time>
      </trkpt>
      <trkpt lat="44.13217" lon="2.24651">
        <ele>320.2</ele>
        <time>2024-04-23T12:44:24.000Z</time>
      </trkpt>
      <trkpt lat="44.13218" lon="2.24652">
        <ele>320.2</ele>
        <time>2024-04-23T12:44:25.000Z</time>
      </trkpt>
      <trkpt lat="44.13218" lon="2.24652">
        <ele>320.1</ele>
        <time>2024-04-23T12:44:26.000Z</time>
      </trkpt>
      <trkpt lat="44.13219" lon="2.24653">
        <ele>320</ele>
        <time>2024-04-23T12:44:27.000Z</time>
      </trkpt>
      <trkpt lat="44.13223" lon="2.24665">
        <ele>317.2</ele>
        <time>2024-04-23T12:44:41.000Z</time>
      </trkpt>
      <trkpt lat="44.13227" lon="2.24676">
        <ele>314.8</ele>
        <time>2024-04-23T12:44:52.000Z</time>
      </trkpt>
      <trkpt lat="44.13232" lon="2.24688">
        <ele>313.5</ele>
        <time>2024-04-23T12:45:03.000Z</time>
      </trkpt>
      <trkpt lat="44.13238" lon="2.24698">
        <ele>309.9</ele>
        <time>2024-04-23T12:45:18.000Z</time>
      </trkpt>
      <trkpt lat="44.1323" lon="2.24705">
        <ele>306.9</ele>
        <time>2024-04-23T12:45:25.000Z</time>
      </trkpt>
      <trkpt lat="44.13225" lon="2.24715">
        <ele>304</ele>
        <time>2024-04-23T12:45:37.000Z</time>
      </trkpt>
      <trkpt lat="44.13226" lon="2.24728">
        <ele>304.4</ele>
        <time>2024-04-23T12:45:47.000Z</time>
      </trkpt>
      <trkpt lat="44.13227" lon="2.24729">
        <ele>304.9</ele>
        <time>2024-04-23T12:45:53.000Z</time>
      </trkpt>
      <trkpt lat="44.13227" lon="2.24729">
        <ele>304.9</ele>
        <time>2024-04-23T12:45:54.000Z</time>
      </trkpt>
      <trkpt lat="44.13227" lon="2.24729">
        <ele>305</ele>
        <time>2024-04-23T12:45:55.000Z</time>
      </trkpt>
      <trkpt lat="44.13227" lon="2.2473">
        <ele>305</ele>
        <time>2024-04-23T12:45:56.000Z</time>
      </trkpt>
      <trkpt lat="44.13227" lon="2.24731">
        <ele>305.1</ele>
        <time>2024-04-23T12:45:57.000Z</time>
      </trkpt>
      <trkpt lat="44.13231" lon="2.24732">
        <ele>305.2</ele>
        <time>2024-04-23T12:46:06.000Z</time>
      </trkpt>
      <trkpt lat="44.13231" lon="2.24732">
        <ele>305.2</ele>
        <time>2024-04-23T12:46:07.000Z</time>
      </trkpt>
      <trkpt lat="44.13233" lon="2.2473">
        <ele>305</ele>
        <time>2024-04-23T12:46:14.000Z</time>
      </trkpt>
      <trkpt lat="44.13234" lon="2.24729">
        <ele>305</ele>
        <time>2024-04-23T12:46:15.000Z</time>
      </trkpt>
      <trkpt lat="44.1324" lon="2.2472">
        <ele>303.6</ele>
        <time>2024-04-23T12:46:34.000Z</time>
      </trkpt>
      <trkpt lat="44.13247" lon="2.24711">
        <ele>301.9</ele>
        <time>2024-04-23T12:46:45.000Z</time>
      </trkpt>
      <trkpt lat="44.13252" lon="2.247">
        <ele>299.1</ele>
        <time>2024-04-23T12:46:57.000Z</time>
      </trkpt>
      <trkpt lat="44.13249" lon="2.24687">
        <ele>295.9</ele>
        <time>2024-04-23T12:47:10.000Z</time>
      </trkpt>
      <trkpt lat="44.13249" lon="2.24685">
        <ele>295.2</ele>
        <time>2024-04-23T12:47:16.000Z</time>
      </trkpt>
      <trkpt lat="44.13249" lon="2.24685">
        <ele>295.1</ele>
        <time>2024-04-23T12:47:17.000Z</time>
      </trkpt>
      <trkpt lat="44.13248" lon="2.24684">
        <ele>295</ele>
        <time>2024-04-23T12:47:18.000Z</time>
      </trkpt>
      <trkpt lat="44.13248" lon="2.24684">
        <ele>295</ele>
        <time>2024-04-23T12:47:19.000Z</time>
      </trkpt>
      <trkpt lat="44.13248" lon="2.24683">
        <ele>294.9</ele>
        <time>2024-04-23T12:47:20.000Z</time>
      </trkpt>
      <trkpt lat="44.13249" lon="2.24681">
        <ele>294.2</ele>
        <time>2024-04-23T12:47:28.000Z</time>
      </trkpt>
      <trkpt lat="44.13249" lon="2.24681">
        <ele>294.1</ele>
        <time>2024-04-23T12:47:29.000Z</time>
      </trkpt>
      <trkpt lat="44.13249" lon="2.2468">
        <ele>294</ele>
        <time>2024-04-23T12:47:30.000Z</time>
      </trkpt>
      <trkpt lat="44.13249" lon="2.2468">
        <ele>294</ele>
        <time>2024-04-23T12:47:31.000Z</time>
      </trkpt>
      <trkpt lat="44.13249" lon="2.2468">
        <ele>293.9</ele>
        <time>2024-04-23T12:47:32.000Z</time>
      </trkpt>
      <trkpt lat="44.13249" lon="2.2468">
        <ele>293.8</ele>
        <time>2024-04-23T12:47:33.000Z</time>
      </trkpt>
      <trkpt lat="44.13251" lon="2.24667">
        <ele>292</ele>
        <time>2024-04-23T12:47:47.000Z</time>
      </trkpt>
      <trkpt lat="44.13252" lon="2.24657">
        <ele>290.2</ele>
        <time>2024-04-23T12:48:03.000Z</time>
      </trkpt>
      <trkpt lat="44.13252" lon="2.24657">
        <ele>290.1</ele>
        <time>2024-04-23T12:48:04.000Z</time>
      </trkpt>
      <trkpt lat="44.13252" lon="2.24657">
        <ele>290.1</ele>
        <time>2024-04-23T12:48:05.000Z</time>
      </trkpt>
      <trkpt lat="44.13252" lon="2.24654">
        <ele>289.8</ele>
        <time>2024-04-23T12:48:09.000Z</time>
      </trkpt>
      <trkpt lat="44.13252" lon="2.24653">
        <ele>289.7</ele>
        <time>2024-04-23T12:48:10.000Z</time>
      </trkpt>
      <trkpt lat="44.13255" lon="2.2464">
        <ele>288.6</ele>
        <time>2024-04-23T12:48:20.000Z</time>
      </trkpt>
      <trkpt lat="44.13254" lon="2.24632">
        <ele>287.2</ele>
        <time>2024-04-23T12:48:31.000Z</time>
      </trkpt>
      <trkpt lat="44.13254" lon="2.24632">
        <ele>287.1</ele>
        <time>2024-04-23T12:48:32.000Z</time>
      </trkpt>
      <trkpt lat="44.13255" lon="2.24632">
        <ele>287.1</ele>
        <time>2024-04-23T12:48:33.000Z</time>
      </trkpt>
      <trkpt lat="44.13255" lon="2.24631">
        <ele>287.1</ele>
        <time>2024-04-23T12:48:34.000Z</time>
      </trkpt>
      <trkpt lat="44.13255" lon="2.24631">
        <ele>287</ele>
        <time>2024-04-23T12:48:35.000Z</time>
      </trkpt>
      <trkpt lat="44.13256" lon="2.24629">
        <ele>286.9</ele>
        <time>2024-04-23T12:48:38.000Z</time>
      </trkpt>
      <trkpt lat="44.13256" lon="2.24628">
        <ele>286.8</ele>
        <time>2024-04-23T12:48:39.000Z</time>
      </trkpt>
      <trkpt lat="44.13256" lon="2.24628">
        <ele>286.8</ele>
        <time>2024-04-23T12:48:40.000Z</time>
      </trkpt>
      <trkpt lat="44.13256" lon="2.24627">
        <ele>286.7</ele>
        <time>2024-04-23T12:48:41.000Z</time>
      </trkpt>
      <trkpt lat="44.13257" lon="2.24627">
        <ele>286.7</ele>
        <time>2024-04-23T12:48:42.000Z</time>
      </trkpt>
      <trkpt lat="44.13258" lon="2.24625">
        <ele>286.6</ele>
        <time>2024-04-23T12:48:48.000Z</time>
      </trkpt>
      <trkpt lat="44.13258" lon="2.24626">
        <ele>286.6</ele>
        <time>2024-04-23T12:48:49.000Z</time>
      </trkpt>
      <trkpt lat="44.13258" lon="2.24626">
        <ele>286.6</ele>
        <time>2024-04-23T12:48:50.000Z</time>
      </trkpt>
      <trkpt lat="44.13258" lon="2.24626">
        <ele>286.6</ele>
        <time>2024-04-23T12:48:51.000Z</time>
      </trkpt>
      <trkpt lat="44.13258" lon="2.24626">
        <ele>286.6</ele>
        <time>2024-04-23T12:48:52.000Z</time>
      </trkpt>
      <trkpt lat="44.13258" lon="2.24623">
        <ele>286.3</ele>
        <time>2024-04-23T12:49:01.000Z</time>
      </trkpt>
      <trkpt lat="44.13258" lon="2.24623">
        <ele>286.3</ele>
        <time>2024-04-23T12:49:02.000Z</time>
      </trkpt>
      <trkpt lat="44.13258" lon="2.24623">
        <ele>286.2</ele>
        <time>2024-04-23T12:49:03.000Z</time>
      </trkpt>
      <trkpt lat="44.13258" lon="2.24622">
        <ele>286</ele>
        <time>2024-04-23T12:49:09.000Z</time>
      </trkpt>
      <trkpt lat="44.13258" lon="2.24622">
        <ele>286</ele>
        <time>2024-04-23T12:49:10.000Z</time>
      </trkpt>
      <trkpt lat="44.13258" lon="2.24622">
        <ele>286</ele>
        <time>2024-04-23T12:49:11.000Z</time>
      </trkpt>
      <trkpt lat="44.13258" lon="2.24622">
        <ele>285.9</ele>
        <time>2024-04-23T12:49:12.000Z</time>
      </trkpt>
      <trkpt lat="44.13259" lon="2.24621">
        <ele>285.7</ele>
        <time>2024-04-23T12:49:18.000Z</time>
      </trkpt>
      <trkpt lat="44.13259" lon="2.2462">
        <ele>285.7</ele>
        <time>2024-04-23T12:49:19.000Z</time>
      </trkpt>
      <trkpt lat="44.13259" lon="2.2462">
        <ele>285.7</ele>
        <time>2024-04-23T12:49:20.000Z</time>
      </trkpt>
      <trkpt lat="44.13259" lon="2.2462">
        <ele>285.7</ele>
        <time>2024-04-23T12:49:21.000Z</time>
      </trkpt>
      <trkpt lat="44.13259" lon="2.2462">
        <ele>285.7</ele>
        <time>2024-04-23T12:49:22.000Z</time>
      </trkpt>
      <trkpt lat="44.13259" lon="2.2462">
        <ele>285.7</ele>
        <time>2024-04-23T12:49:28.000Z</time>
      </trkpt>
      <trkpt lat="44.13259" lon="2.2462">
        <ele>285.6</ele>
        <time>2024-04-23T12:49:29.000Z</time>
      </trkpt>
      <trkpt lat="44.13259" lon="2.2462">
        <ele>285.6</ele>
        <time>2024-04-23T12:49:30.000Z</time>
      </trkpt>
      <trkpt lat="44.13259" lon="2.2462">
        <ele>285.6</ele>
        <time>2024-04-23T12:49:31.000Z</time>
      </trkpt>
      <trkpt lat="44.13259" lon="2.2462">
        <ele>285.6</ele>
        <time>2024-04-23T12:49:32.000Z</time>
      </trkpt>
      <trkpt lat="44.13258" lon="2.2462">
        <ele>285.6</ele>
        <time>2024-04-23T12:49:33.000Z</time>
      </trkpt>
      <trkpt lat="44.13258" lon="2.24619">
        <ele>285.6</ele>
        <time>2024-04-23T12:49:34.000Z</time>
      </trkpt>
      <trkpt lat="44.13258" lon="2.24619">
        <ele>285.5</ele>
        <time>2024-04-23T12:49:35.000Z</time>
      </trkpt>
      <trkpt lat="44.13258" lon="2.24619">
        <ele>285.5</ele>
        <time>2024-04-23T12:49:36.000Z</time>
      </trkpt>
      <trkpt lat="44.13258" lon="2.24619">
        <ele>285.5</ele>
        <time>2024-04-23T12:49:37.000Z</time>
      </trkpt>
      <trkpt lat="44.13257" lon="2.24619">
        <ele>285.5</ele>
        <time>2024-04-23T12:49:38.000Z</time>
      </trkpt>
      <trkpt lat="44.13257" lon="2.24619">
        <ele>285.4</ele>
        <time>2024-04-23T12:49:39.000Z</time>
      </trkpt>
      <trkpt lat="44.13257" lon="2.24619">
        <ele>285.3</ele>
        <time>2024-04-23T12:49:40.000Z</time>
      </trkpt>
      <trkpt lat="44.13258" lon="2.2461">
        <ele>283.7</ele>
        <time>2024-04-23T12:49:58.000Z</time>
      </trkpt>
      <trkpt lat="44.13259" lon="2.2461">
        <ele>283.7</ele>
        <time>2024-04-23T12:49:59.000Z</time>
      </trkpt>
      <trkpt lat="44.13259" lon="2.24609">
        <ele>283.6</ele>
        <time>2024-04-23T12:50:00.000Z</time>
      </trkpt>
      <trkpt lat="44.13259" lon="2.24608">
        <ele>283.6</ele>
        <time>2024-04-23T12:50:01.000Z</time>
      </trkpt>
      <trkpt lat="44.13258" lon="2.24607">
        <ele>283.6</ele>
        <time>2024-04-23T12:50:02.000Z</time>
      </trkpt>
      <trkpt lat="44.13258" lon="2.24594">
        <ele>282.7</ele>
        <time>2024-04-23T12:50:13.000Z</time>
      </trkpt>
      <trkpt lat="44.13258" lon="2.2458">
        <ele>281.7</ele>
        <time>2024-04-23T12:50:22.000Z</time>
      </trkpt>
      <trkpt lat="44.13261" lon="2.24568">
        <ele>280.4</ele>
        <time>2024-04-23T12:50:30.000Z</time>
      </trkpt>
      <trkpt lat="44.13264" lon="2.24555">
        <ele>279.1</ele>
        <time>2024-04-23T12:50:39.000Z</time>
      </trkpt>
      <trkpt lat="44.13268" lon="2.24547">
        <ele>278.2</ele>
        <time>2024-04-23T12:50:56.000Z</time>
      </trkpt>
      <trkpt lat="44.13268" lon="2.24547">
        <ele>278.2</ele>
        <time>2024-04-23T12:50:57.000Z</time>
      </trkpt>
      <trkpt lat="44.13268" lon="2.24547">
        <ele>278.1</ele>
        <time>2024-04-23T12:50:58.000Z</time>
      </trkpt>
      <trkpt lat="44.13269" lon="2.24547">
        <ele>277.9</ele>
        <time>2024-04-23T12:51:04.000Z</time>
      </trkpt>
      <trkpt lat="44.13269" lon="2.24547">
        <ele>277.8</ele>
        <time>2024-04-23T12:51:05.000Z</time>
      </trkpt>
      <trkpt lat="44.13269" lon="2.24547">
        <ele>277.8</ele>
        <time>2024-04-23T12:51:06.000Z</time>
      </trkpt>
      <trkpt lat="44.13269" lon="2.24547">
        <ele>277.8</ele>
        <time>2024-04-23T12:51:07.000Z</time>
      </trkpt>
      <trkpt lat="44.13269" lon="2.24546">
        <ele>277.5</ele>
        <time>2024-04-23T12:51:23.000Z</time>
      </trkpt>
      <trkpt lat="44.1327" lon="2.24546">
        <ele>277.5</ele>
        <time>2024-04-23T12:51:24.000Z</time>
      </trkpt>
      <trkpt lat="44.1327" lon="2.24545">
        <ele>277.4</ele>
        <time>2024-04-23T12:51:28.000Z</time>
      </trkpt>
      <trkpt lat="44.1327" lon="2.24545">
        <ele>277.4</ele>
        <time>2024-04-23T12:51:29.000Z</time>
      </trkpt>
      <trkpt lat="44.1327" lon="2.24545">
        <ele>277.4</ele>
        <time>2024-04-23T12:51:30.000Z</time>
      </trkpt>
      <trkpt lat="44.13269" lon="2.24544">
        <ele>277.1</ele>
        <time>2024-04-23T12:52:03.000Z</time>
      </trkpt>
      <trkpt lat="44.13269" lon="2.24544">
        <ele>277.1</ele>
        <time>2024-04-23T12:52:04.000Z</time>
      </trkpt>
      <trkpt lat="44.13269" lon="2.24544">
        <ele>277.1</ele>
        <time>2024-04-23T12:52:09.000Z</time>
      </trkpt>
      <trkpt lat="44.13269" lon="2.24545">
        <ele>277</ele>
        <time>2024-04-23T12:52:16.000Z</time>
      </trkpt>
      <trkpt lat="44.13269" lon="2.24546">
        <ele>276.9</ele>
        <time>2024-04-23T12:52:17.000Z</time>
      </trkpt>
      <trkpt lat="44.13269" lon="2.24546">
        <ele>276.9</ele>
        <time>2024-04-23T12:52:20.000Z</time>
      </trkpt>
      <trkpt lat="44.13269" lon="2.24546">
        <ele>276.8</ele>
        <time>2024-04-23T12:52:21.000Z</time>
      </trkpt>
      <trkpt lat="44.13269" lon="2.24546">
        <ele>276.8</ele>
        <time>2024-04-23T12:52:22.000Z</time>
      </trkpt>
      <trkpt lat="44.13269" lon="2.24546">
        <ele>276.8</ele>
        <time>2024-04-23T12:52:23.000Z</time>
      </trkpt>
      <trkpt lat="44.13268" lon="2.24546">
        <ele>276.6</ele>
        <time>2024-04-23T12:52:29.000Z</time>
      </trkpt>
      <trkpt lat="44.13268" lon="2.24546">
        <ele>276.6</ele>
        <time>2024-04-23T12:52:30.000Z</time>
      </trkpt>
      <trkpt lat="44.13268" lon="2.24546">
        <ele>276.2</ele>
        <time>2024-04-23T12:52:56.000Z</time>
      </trkpt>
      <trkpt lat="44.13268" lon="2.24545">
        <ele>276.2</ele>
        <time>2024-04-23T12:52:57.000Z</time>
      </trkpt>
      <trkpt lat="44.13268" lon="2.24544">
        <ele>276.1</ele>
        <time>2024-04-23T12:52:58.000Z</time>
      </trkpt>
      <trkpt lat="44.13269" lon="2.24542">
        <ele>275.8</ele>
        <time>2024-04-23T12:53:06.000Z</time>
      </trkpt>
      <trkpt lat="44.13269" lon="2.24542">
        <ele>275.7</ele>
        <time>2024-04-23T12:53:07.000Z</time>
      </trkpt>
      <trkpt lat="44.13269" lon="2.24542">
        <ele>275.6</ele>
        <time>2024-04-23T12:53:08.000Z</time>
      </trkpt>
      <trkpt lat="44.13272" lon="2.24541">
        <ele>274.6</ele>
        <time>2024-04-23T12:53:18.000Z</time>
      </trkpt>
      <trkpt lat="44.13272" lon="2.24541">
        <ele>274.5</ele>
        <time>2024-04-23T12:53:19.000Z</time>
      </trkpt>
      <trkpt lat="44.13272" lon="2.2454">
        <ele>274.3</ele>
        <time>2024-04-23T12:53:20.000Z</time>
      </trkpt>
      <trkpt lat="44.13273" lon="2.2454">
        <ele>273.1</ele>
        <time>2024-04-23T12:53:43.000Z</time>
      </trkpt>
      <trkpt lat="44.13273" lon="2.2454">
        <ele>273.1</ele>
        <time>2024-04-23T12:53:44.000Z</time>
      </trkpt>
      <trkpt lat="44.13275" lon="2.24541">
        <ele>272.8</ele>
        <time>2024-04-23T12:53:50.000Z</time>
      </trkpt>
      <trkpt lat="44.13275" lon="2.24541">
        <ele>272.8</ele>
        <time>2024-04-23T12:53:51.000Z</time>
      </trkpt>
      <trkpt lat="44.13275" lon="2.24541">
        <ele>272.8</ele>
        <time>2024-04-23T12:53:52.000Z</time>
      </trkpt>
      <trkpt lat="44.13275" lon="2.24541">
        <ele>272.8</ele>
        <time>2024-04-23T12:53:53.000Z</time>
      </trkpt>
      <trkpt lat="44.13275" lon="2.24542">
        <ele>272.7</ele>
        <time>2024-04-23T12:53:54.000Z</time>
      </trkpt>
      <trkpt lat="44.13276" lon="2.24542">
        <ele>272.6</ele>
        <time>2024-04-23T12:54:00.000Z</time>
      </trkpt>
      <trkpt lat="44.13276" lon="2.24542">
        <ele>272.6</ele>
        <time>2024-04-23T12:54:01.000Z</time>
      </trkpt>
      <trkpt lat="44.13276" lon="2.24542">
        <ele>272.6</ele>
        <time>2024-04-23T12:54:02.000Z</time>
      </trkpt>
      <trkpt lat="44.13276" lon="2.24542">
        <ele>272.5</ele>
        <time>2024-04-23T12:54:06.000Z</time>
      </trkpt>
      <trkpt lat="44.13276" lon="2.24542">
        <ele>272.5</ele>
        <time>2024-04-23T12:54:07.000Z</time>
      </trkpt>
      <trkpt lat="44.13276" lon="2.24542">
        <ele>272.5</ele>
        <time>2024-04-23T12:54:08.000Z</time>
      </trkpt>
      <trkpt lat="44.13276" lon="2.24542">
        <ele>272.5</ele>
        <time>2024-04-23T12:54:09.000Z</time>
      </trkpt>
      <trkpt lat="44.13276" lon="2.24542">
        <ele>272.5</ele>
        <time>2024-04-23T12:54:10.000Z</time>
      </trkpt>
      <trkpt lat="44.13276" lon="2.24542">
        <ele>273.1</ele>
        <time>2024-04-23T12:54:23.000Z</time>
      </trkpt>
      <trkpt lat="44.13275" lon="2.24542">
        <ele>273.2</ele>
        <time>2024-04-23T12:54:24.000Z</time>
      </trkpt>
      <trkpt lat="44.1327" lon="2.24541">
        <ele>274.2</ele>
        <time>2024-04-23T12:54:38.000Z</time>
      </trkpt>
      <trkpt lat="44.1327" lon="2.24541">
        <ele>274.2</ele>
        <time>2024-04-23T12:54:39.000Z</time>
      </trkpt>
      <trkpt lat="44.1327" lon="2.24541">
        <ele>274.3</ele>
        <time>2024-04-23T12:54:40.000Z</time>
      </trkpt>
      <trkpt lat="44.13268" lon="2.2454">
        <ele>274.4</ele>
        <time>2024-04-23T12:54:44.000Z</time>
      </trkpt>
      <trkpt lat="44.13268" lon="2.2454">
        <ele>274.4</ele>
        <time>2024-04-23T12:54:45.000Z</time>
      </trkpt>
      <trkpt lat="44.13268" lon="2.2454">
        <ele>274.4</ele>
        <time>2024-04-23T12:54:48.000Z</time>
      </trkpt>
      <trkpt lat="44.13268" lon="2.2454">
        <ele>274.5</ele>
        <time>2024-04-23T12:54:49.000Z</time>
      </trkpt>
      <trkpt lat="44.13268" lon="2.24538">
        <ele>274.5</ele>
        <time>2024-04-23T12:54:58.000Z</time>
      </trkpt>
      <trkpt lat="44.13268" lon="2.24538">
        <ele>274.6</ele>
        <time>2024-04-23T12:54:59.000Z</time>
      </trkpt>
      <trkpt lat="44.13268" lon="2.24538">
        <ele>274.6</ele>
        <time>2024-04-23T12:55:00.000Z</time>
      </trkpt>
      <trkpt lat="44.13268" lon="2.24538">
        <ele>274.6</ele>
        <time>2024-04-23T12:55:01.000Z</time>
      </trkpt>
      <trkpt lat="44.13267" lon="2.24538">
        <ele>274.6</ele>
        <time>2024-04-23T12:55:02.000Z</time>
      </trkpt>
      <trkpt lat="44.13267" lon="2.24538">
        <ele>274.5</ele>
        <time>2024-04-23T12:55:13.000Z</time>
      </trkpt>
      <trkpt lat="44.13267" lon="2.24539">
        <ele>274.4</ele>
        <time>2024-04-23T12:55:14.000Z</time>
      </trkpt>
      <trkpt lat="44.13267" lon="2.24539">
        <ele>274.4</ele>
        <time>2024-04-23T12:55:15.000Z</time>
      </trkpt>
      <trkpt lat="44.13267" lon="2.24539">
        <ele>274.4</ele>
        <time>2024-04-23T12:55:16.000Z</time>
      </trkpt>
      <trkpt lat="44.13267" lon="2.24539">
        <ele>274.4</ele>
        <time>2024-04-23T12:55:17.000Z</time>
      </trkpt>
      <trkpt lat="44.13267" lon="2.24539">
        <ele>274.4</ele>
        <time>2024-04-23T12:55:18.000Z</time>
      </trkpt>
      <trkpt lat="44.13267" lon="2.2454">
        <ele>274.3</ele>
        <time>2024-04-23T12:55:23.000Z</time>
      </trkpt>
      <trkpt lat="44.13267" lon="2.2454">
        <ele>274.3</ele>
        <time>2024-04-23T12:55:24.000Z</time>
      </trkpt>
      <trkpt lat="44.13267" lon="2.2454">
        <ele>274.3</ele>
        <time>2024-04-23T12:55:25.000Z</time>
      </trkpt>
      <trkpt lat="44.13267" lon="2.2454">
        <ele>274.3</ele>
        <time>2024-04-23T12:55:26.000Z</time>
      </trkpt>
      <trkpt lat="44.13267" lon="2.2454">
        <ele>274.3</ele>
        <time>2024-04-23T12:55:27.000Z</time>
      </trkpt>
      <trkpt lat="44.13266" lon="2.24543">
        <ele>274</ele>
        <time>2024-04-23T12:55:40.000Z</time>
      </trkpt>
      <trkpt lat="44.13266" lon="2.24544">
        <ele>274</ele>
        <time>2024-04-23T12:55:41.000Z</time>
      </trkpt>
      <trkpt lat="44.13268" lon="2.24558">
        <ele>273.4</ele>
        <time>2024-04-23T12:55:52.000Z</time>
      </trkpt>
      <trkpt lat="44.13268" lon="2.24571">
        <ele>272.8</ele>
        <time>2024-04-23T12:56:01.000Z</time>
      </trkpt>
      <trkpt lat="44.13266" lon="2.24584">
        <ele>271.8</ele>
        <time>2024-04-23T12:56:12.000Z</time>
      </trkpt>
      <trkpt lat="44.13265" lon="2.24596">
        <ele>271.5</ele>
        <time>2024-04-23T12:56:26.000Z</time>
      </trkpt>
      <trkpt lat="44.13263" lon="2.24609">
        <ele>271.3</ele>
        <time>2024-04-23T12:56:37.000Z</time>
      </trkpt>
      <trkpt lat="44.13267" lon="2.24621">
        <ele>270.6</ele>
        <time>2024-04-23T12:56:49.000Z</time>
      </trkpt>
      <trkpt lat="44.13272" lon="2.24631">
        <ele>270.3</ele>
        <time>2024-04-23T12:56:58.000Z</time>
      </trkpt>
      <trkpt lat="44.13272" lon="2.24645">
        <ele>270.2</ele>
        <time>2024-04-23T12:57:13.000Z</time>
      </trkpt>
      <trkpt lat="44.1327" lon="2.24657">
        <ele>270.1</ele>
        <time>2024-04-23T12:57:24.000Z</time>
      </trkpt>
      <trkpt lat="44.13268" lon="2.24671">
        <ele>269.9</ele>
        <time>2024-04-23T12:57:32.000Z</time>
      </trkpt>
      <trkpt lat="44.13268" lon="2.24684">
        <ele>269.4</ele>
        <time>2024-04-23T12:57:40.000Z</time>
      </trkpt>
      <trkpt lat="44.13269" lon="2.24695">
        <ele>269.2</ele>
        <time>2024-04-23T12:57:50.000Z</time>
      </trkpt>
      <trkpt lat="44.13269" lon="2.24695">
        <ele>269.2</ele>
        <time>2024-04-23T12:57:51.000Z</time>
      </trkpt>
      <trkpt lat="44.1327" lon="2.24695">
        <ele>269.2</ele>
        <time>2024-04-23T12:57:52.000Z</time>
      </trkpt>
      <trkpt lat="44.13272" lon="2.24697">
        <ele>269.2</ele>
        <time>2024-04-23T12:57:55.000Z</time>
      </trkpt>
      <trkpt lat="44.13272" lon="2.24698">
        <ele>269.2</ele>
        <time>2024-04-23T12:57:56.000Z</time>
      </trkpt>
      <trkpt lat="44.13272" lon="2.247">
        <ele>269.2</ele>
        <time>2024-04-23T12:57:57.000Z</time>
      </trkpt>
      <trkpt lat="44.13271" lon="2.24707">
        <ele>269.3</ele>
        <time>2024-04-23T12:58:03.000Z</time>
      </trkpt>
      <trkpt lat="44.13271" lon="2.24708">
        <ele>269.3</ele>
        <time>2024-04-23T12:58:04.000Z</time>
      </trkpt>
      <trkpt lat="44.13272" lon="2.24708">
        <ele>269.3</ele>
        <time>2024-04-23T12:58:05.000Z</time>
      </trkpt>
      <trkpt lat="44.13272" lon="2.24708">
        <ele>269.3</ele>
        <time>2024-04-23T12:58:06.000Z</time>
      </trkpt>
      <trkpt lat="44.13273" lon="2.24707">
        <ele>269.3</ele>
        <time>2024-04-23T12:58:07.000Z</time>
      </trkpt>
      <trkpt lat="44.13274" lon="2.24707">
        <ele>269.3</ele>
        <time>2024-04-23T12:58:08.000Z</time>
      </trkpt>
      <trkpt lat="44.13277" lon="2.24719">
        <ele>268.9</ele>
        <time>2024-04-23T12:58:22.000Z</time>
      </trkpt>
      <trkpt lat="44.13275" lon="2.24732">
        <ele>267.8</ele>
        <time>2024-04-23T12:58:39.000Z</time>
      </trkpt>
      <trkpt lat="44.13273" lon="2.24745">
        <ele>267.8</ele>
        <time>2024-04-23T12:58:49.000Z</time>
      </trkpt>
      <trkpt lat="44.13273" lon="2.24758">
        <ele>268.1</ele>
        <time>2024-04-23T12:58:59.000Z</time>
      </trkpt>
      <trkpt lat="44.13275" lon="2.2477">
        <ele>269.5</ele>
        <time>2024-04-23T12:59:11.000Z</time>
      </trkpt>
      <trkpt lat="44.13273" lon="2.24783">
        <ele>269.9</ele>
        <time>2024-04-23T12:59:20.000Z</time>
      </trkpt>
      <trkpt lat="44.13267" lon="2.24795">
        <ele>270.4</ele>
        <time>2024-04-23T12:59:30.000Z</time>
      </trkpt>
      <trkpt lat="44.13264" lon="2.24808">
        <ele>270.4</ele>
        <time>2024-04-23T12:59:43.000Z</time>
      </trkpt>
      <trkpt lat="44.1326" lon="2.2482">
        <ele>270.6</ele>
        <time>2024-04-23T12:59:56.000Z</time>
      </trkpt>
      <trkpt lat="44.13259" lon="2.24831">
        <ele>270.3</ele>
        <time>2024-04-23T13:00:09.000Z</time>
      </trkpt>
      <trkpt lat="44.1326" lon="2.24832">
        <ele>270.4</ele>
        <time>2024-04-23T13:00:10.000Z</time>
      </trkpt>
      <trkpt lat="44.1326" lon="2.24833">
        <ele>270.4</ele>
        <time>2024-04-23T13:00:11.000Z</time>
      </trkpt>
      <trkpt lat="44.1326" lon="2.24834">
        <ele>270.4</ele>
        <time>2024-04-23T13:00:12.000Z</time>
      </trkpt>
      <trkpt lat="44.1326" lon="2.24834">
        <ele>270.5</ele>
        <time>2024-04-23T13:00:13.000Z</time>
      </trkpt>
      <trkpt lat="44.13262" lon="2.24847">
        <ele>272.2</ele>
        <time>2024-04-23T13:00:24.000Z</time>
      </trkpt>
      <trkpt lat="44.13263" lon="2.24855">
        <ele>272.7</ele>
        <time>2024-04-23T13:00:31.000Z</time>
      </trkpt>
      <trkpt lat="44.13262" lon="2.24855">
        <ele>272.7</ele>
        <time>2024-04-23T13:00:32.000Z</time>
      </trkpt>
      <trkpt lat="44.13261" lon="2.24856">
        <ele>272.7</ele>
        <time>2024-04-23T13:00:33.000Z</time>
      </trkpt>
      <trkpt lat="44.13261" lon="2.24857">
        <ele>272.6</ele>
        <time>2024-04-23T13:00:34.000Z</time>
      </trkpt>
      <trkpt lat="44.13261" lon="2.24857">
        <ele>272.6</ele>
        <time>2024-04-23T13:00:35.000Z</time>
      </trkpt>
      <trkpt lat="44.13261" lon="2.24858">
        <ele>272.4</ele>
        <time>2024-04-23T13:00:38.000Z</time>
      </trkpt>
      <trkpt lat="44.13261" lon="2.24859">
        <ele>272.3</ele>
        <time>2024-04-23T13:00:39.000Z</time>
      </trkpt>
      <trkpt lat="44.13261" lon="2.2486">
        <ele>272.2</ele>
        <time>2024-04-23T13:00:40.000Z</time>
      </trkpt>
      <trkpt lat="44.13261" lon="2.24861">
        <ele>272.2</ele>
        <time>2024-04-23T13:00:41.000Z</time>
      </trkpt>
      <trkpt lat="44.13261" lon="2.24861">
        <ele>272.1</ele>
        <time>2024-04-23T13:00:42.000Z</time>
      </trkpt>
      <trkpt lat="44.1326" lon="2.24862">
        <ele>272</ele>
        <time>2024-04-23T13:00:43.000Z</time>
      </trkpt>
      <trkpt lat="44.13255" lon="2.24872">
        <ele>271.5</ele>
        <time>2024-04-23T13:01:09.000Z</time>
      </trkpt>
      <trkpt lat="44.13251" lon="2.24885">
        <ele>271.5</ele>
        <time>2024-04-23T13:01:23.000Z</time>
      </trkpt>
      <trkpt lat="44.13247" lon="2.24897">
        <ele>271.2</ele>
        <time>2024-04-23T13:01:36.000Z</time>
      </trkpt>
      <trkpt lat="44.1324" lon="2.24905">
        <ele>270.6</ele>
        <time>2024-04-23T13:01:49.000Z</time>
      </trkpt>
      <trkpt lat="44.13235" lon="2.24916">
        <ele>269.9</ele>
        <time>2024-04-23T13:02:02.000Z</time>
      </trkpt>
      <trkpt lat="44.13231" lon="2.24928">
        <ele>269.6</ele>
        <time>2024-04-23T13:02:14.000Z</time>
      </trkpt>
      <trkpt lat="44.13227" lon="2.24941">
        <ele>269.4</ele>
        <time>2024-04-23T13:02:24.000Z</time>
      </trkpt>
      <trkpt lat="44.13225" lon="2.24946">
        <ele>270</ele>
        <time>2024-04-23T13:02:39.000Z</time>
      </trkpt>
      <trkpt lat="44.13225" lon="2.24946">
        <ele>270</ele>
        <time>2024-04-23T13:02:40.000Z</time>
      </trkpt>
      <trkpt lat="44.13224" lon="2.24948">
        <ele>270</ele>
        <time>2024-04-23T13:02:43.000Z</time>
      </trkpt>
      <trkpt lat="44.13224" lon="2.24949">
        <ele>270</ele>
        <time>2024-04-23T13:02:44.000Z</time>
      </trkpt>
      <trkpt lat="44.13222" lon="2.24962">
        <ele>270.1</ele>
        <time>2024-04-23T13:02:55.000Z</time>
      </trkpt>
      <trkpt lat="44.13218" lon="2.24973">
        <ele>271.6</ele>
        <time>2024-04-23T13:03:11.000Z</time>
      </trkpt>
      <trkpt lat="44.13214" lon="2.24986">
        <ele>272.1</ele>
        <time>2024-04-23T13:03:22.000Z</time>
      </trkpt>
      <trkpt lat="44.13211" lon="2.24999">
        <ele>272.4</ele>
        <time>2024-04-23T13:03:33.000Z</time>
      </trkpt>
      <trkpt lat="44.13208" lon="2.25011">
        <ele>273.7</ele>
        <time>2024-04-23T13:03:45.000Z</time>
      </trkpt>
      <trkpt lat="44.13209" lon="2.25013">
        <ele>274</ele>
        <time>2024-04-23T13:03:50.000Z</time>
      </trkpt>
      <trkpt lat="44.13209" lon="2.25013">
        <ele>274.1</ele>
        <time>2024-04-23T13:03:51.000Z</time>
      </trkpt>
      <trkpt lat="44.13209" lon="2.25013">
        <ele>274.1</ele>
        <time>2024-04-23T13:03:52.000Z</time>
      </trkpt>
      <trkpt lat="44.13209" lon="2.25013">
        <ele>274.4</ele>
        <time>2024-04-23T13:03:58.000Z</time>
      </trkpt>
      <trkpt lat="44.13208" lon="2.25014">
        <ele>274.4</ele>
        <time>2024-04-23T13:03:59.000Z</time>
      </trkpt>
      <trkpt lat="44.13207" lon="2.25014">
        <ele>274.5</ele>
        <time>2024-04-23T13:04:00.000Z</time>
      </trkpt>
      <trkpt lat="44.13207" lon="2.25028">
        <ele>274.6</ele>
        <time>2024-04-23T13:04:12.000Z</time>
      </trkpt>
      <trkpt lat="44.13202" lon="2.2504">
        <ele>274.5</ele>
        <time>2024-04-23T13:04:23.000Z</time>
      </trkpt>
      <trkpt lat="44.13199" lon="2.25054">
        <ele>274.8</ele>
        <time>2024-04-23T13:04:33.000Z</time>
      </trkpt>
      <trkpt lat="44.13195" lon="2.25065">
        <ele>274.9</ele>
        <time>2024-04-23T13:04:41.000Z</time>
      </trkpt>
      <trkpt lat="44.13194" lon="2.25078">
        <ele>274.7</ele>
        <time>2024-04-23T13:04:50.000Z</time>
      </trkpt>
      <trkpt lat="44.13193" lon="2.25092">
        <ele>274.6</ele>
        <time>2024-04-23T13:05:02.000Z</time>
      </trkpt>
      <trkpt lat="44.13192" lon="2.25105">
        <ele>275</ele>
        <time>2024-04-23T13:05:09.000Z</time>
      </trkpt>
      <trkpt lat="44.13191" lon="2.25118">
        <ele>276</ele>
        <time>2024-04-23T13:05:20.000Z</time>
      </trkpt>
      <trkpt lat="44.13192" lon="2.2513">
        <ele>276</ele>
        <time>2024-04-23T13:05:34.000Z</time>
      </trkpt>
      <trkpt lat="44.13193" lon="2.25144">
        <ele>276.1</ele>
        <time>2024-04-23T13:05:44.000Z</time>
      </trkpt>
      <trkpt lat="44.13193" lon="2.25149">
        <ele>276.3</ele>
        <time>2024-04-23T13:05:53.000Z</time>
      </trkpt>
      <trkpt lat="44.13193" lon="2.25149">
        <ele>276.4</ele>
        <time>2024-04-23T13:05:54.000Z</time>
      </trkpt>
      <trkpt lat="44.13193" lon="2.2515">
        <ele>276.4</ele>
        <time>2024-04-23T13:05:55.000Z</time>
      </trkpt>
      <trkpt lat="44.13192" lon="2.25151">
        <ele>276.4</ele>
        <time>2024-04-23T13:05:56.000Z</time>
      </trkpt>
      <trkpt lat="44.13192" lon="2.25152">
        <ele>276.4</ele>
        <time>2024-04-23T13:05:57.000Z</time>
      </trkpt>
      <trkpt lat="44.13192" lon="2.25157">
        <ele>276.2</ele>
        <time>2024-04-23T13:06:05.000Z</time>
      </trkpt>
      <trkpt lat="44.13192" lon="2.25157">
        <ele>276.2</ele>
        <time>2024-04-23T13:06:06.000Z</time>
      </trkpt>
      <trkpt lat="44.13192" lon="2.25157">
        <ele>276.1</ele>
        <time>2024-04-23T13:06:07.000Z</time>
      </trkpt>
      <trkpt lat="44.13192" lon="2.25158">
        <ele>276</ele>
        <time>2024-04-23T13:06:10.000Z</time>
      </trkpt>
      <trkpt lat="44.13192" lon="2.25158">
        <ele>276</ele>
        <time>2024-04-23T13:06:11.000Z</time>
      </trkpt>
      <trkpt lat="44.13192" lon="2.25159">
        <ele>276</ele>
        <time>2024-04-23T13:06:12.000Z</time>
      </trkpt>
      <trkpt lat="44.13191" lon="2.25165">
        <ele>274.2</ele>
        <time>2024-04-23T13:06:28.000Z</time>
      </trkpt>
      <trkpt lat="44.13191" lon="2.25165">
        <ele>274.1</ele>
        <time>2024-04-23T13:06:29.000Z</time>
      </trkpt>
      <trkpt lat="44.13191" lon="2.25165">
        <ele>274</ele>
        <time>2024-04-23T13:06:30.000Z</time>
      </trkpt>
      <trkpt lat="44.13191" lon="2.25165">
        <ele>273.9</ele>
        <time>2024-04-23T13:06:31.000Z</time>
      </trkpt>
      <trkpt lat="44.13191" lon="2.25165">
        <ele>273.8</ele>
        <time>2024-04-23T13:06:32.000Z</time>
      </trkpt>
      <trkpt lat="44.13192" lon="2.25165">
        <ele>273.7</ele>
        <time>2024-04-23T13:06:33.000Z</time>
      </trkpt>
      <trkpt lat="44.13195" lon="2.25175">
        <ele>272.7</ele>
        <time>2024-04-23T13:06:50.000Z</time>
      </trkpt>
      <trkpt lat="44.13194" lon="2.25175">
        <ele>272.7</ele>
        <time>2024-04-23T13:06:51.000Z</time>
      </trkpt>
      <trkpt lat="44.13194" lon="2.25175">
        <ele>272.6</ele>
        <time>2024-04-23T13:06:52.000Z</time>
      </trkpt>
      <trkpt lat="44.13194" lon="2.25174">
        <ele>272.6</ele>
        <time>2024-04-23T13:06:55.000Z</time>
      </trkpt>
      <trkpt lat="44.13193" lon="2.25173">
        <ele>272.6</ele>
        <time>2024-04-23T13:06:56.000Z</time>
      </trkpt>
      <trkpt lat="44.13192" lon="2.25173">
        <ele>272.6</ele>
        <time>2024-04-23T13:06:57.000Z</time>
      </trkpt>
      <trkpt lat="44.13188" lon="2.25184">
        <ele>272.9</ele>
        <time>2024-04-23T13:07:16.000Z</time>
      </trkpt>
      <trkpt lat="44.13186" lon="2.25197">
        <ele>272.5</ele>
        <time>2024-04-23T13:07:26.000Z</time>
      </trkpt>
      <trkpt lat="44.13184" lon="2.25209">
        <ele>271.7</ele>
        <time>2024-04-23T13:07:35.000Z</time>
      </trkpt>
      <trkpt lat="44.13179" lon="2.25221">
        <ele>270.6</ele>
        <time>2024-04-23T13:07:48.000Z</time>
      </trkpt>
      <trkpt lat="44.13177" lon="2.25233">
        <ele>270</ele>
        <time>2024-04-23T13:07:59.000Z</time>
      </trkpt>
      <trkpt lat="44.1317" lon="2.25243">
        <ele>269.2</ele>
        <time>2024-04-23T13:08:18.000Z</time>
      </trkpt>
      <trkpt lat="44.13165" lon="2.25253">
        <ele>269.3</ele>
        <time>2024-04-23T13:08:29.000Z</time>
      </trkpt>
      <trkpt lat="44.13161" lon="2.25266">
        <ele>269.6</ele>
        <time>2024-04-23T13:08:41.000Z</time>
      </trkpt>
      <trkpt lat="44.13157" lon="2.25277">
        <ele>270.1</ele>
        <time>2024-04-23T13:08:56.000Z</time>
      </trkpt>
      <trkpt lat="44.13155" lon="2.2528">
        <ele>270.2</ele>
        <time>2024-04-23T13:09:06.000Z</time>
      </trkpt>
      <trkpt lat="44.13155" lon="2.2528">
        <ele>270.2</ele>
        <time>2024-04-23T13:09:07.000Z</time>
      </trkpt>
      <trkpt lat="44.13154" lon="2.25281">
        <ele>270.3</ele>
        <time>2024-04-23T13:09:10.000Z</time>
      </trkpt>
      <trkpt lat="44.13154" lon="2.25282">
        <ele>270.3</ele>
        <time>2024-04-23T13:09:11.000Z</time>
      </trkpt>
      <trkpt lat="44.13154" lon="2.25283">
        <ele>270.4</ele>
        <time>2024-04-23T13:09:12.000Z</time>
      </trkpt>
      <trkpt lat="44.13154" lon="2.25284">
        <ele>270.5</ele>
        <time>2024-04-23T13:09:18.000Z</time>
      </trkpt>
      <trkpt lat="44.13155" lon="2.25285">
        <ele>270.5</ele>
        <time>2024-04-23T13:09:19.000Z</time>
      </trkpt>
      <trkpt lat="44.13155" lon="2.25285">
        <ele>270.5</ele>
        <time>2024-04-23T13:09:20.000Z</time>
      </trkpt>
      <trkpt lat="44.13155" lon="2.25286">
        <ele>270.5</ele>
        <time>2024-04-23T13:09:21.000Z</time>
      </trkpt>
      <trkpt lat="44.13155" lon="2.25286">
        <ele>270.6</ele>
        <time>2024-04-23T13:09:22.000Z</time>
      </trkpt>
      <trkpt lat="44.13147" lon="2.25292">
        <ele>270</ele>
        <time>2024-04-23T13:09:41.000Z</time>
      </trkpt>
      <trkpt lat="44.13142" lon="2.25302">
        <ele>269.2</ele>
        <time>2024-04-23T13:09:55.000Z</time>
      </trkpt>
      <trkpt lat="44.13139" lon="2.25312">
        <ele>269.4</ele>
        <time>2024-04-23T13:10:11.000Z</time>
      </trkpt>
      <trkpt lat="44.13139" lon="2.25312">
        <ele>269.4</ele>
        <time>2024-04-23T13:10:12.000Z</time>
      </trkpt>
      <trkpt lat="44.13139" lon="2.25312">
        <ele>269.4</ele>
        <time>2024-04-23T13:10:13.000Z</time>
      </trkpt>
      <trkpt lat="44.13138" lon="2.25313">
        <ele>269.5</ele>
        <time>2024-04-23T13:10:14.000Z</time>
      </trkpt>
      <trkpt lat="44.13138" lon="2.25313">
        <ele>269.5</ele>
        <time>2024-04-23T13:10:15.000Z</time>
      </trkpt>
      <trkpt lat="44.13137" lon="2.25318">
        <ele>269.5</ele>
        <time>2024-04-23T13:10:25.000Z</time>
      </trkpt>
      <trkpt lat="44.13137" lon="2.25318">
        <ele>269.5</ele>
        <time>2024-04-23T13:10:26.000Z</time>
      </trkpt>
      <trkpt lat="44.13137" lon="2.25319">
        <ele>269.5</ele>
        <time>2024-04-23T13:10:27.000Z</time>
      </trkpt>
      <trkpt lat="44.13136" lon="2.25321">
        <ele>269.4</ele>
        <time>2024-04-23T13:10:31.000Z</time>
      </trkpt>
      <trkpt lat="44.13136" lon="2.25321">
        <ele>269.4</ele>
        <time>2024-04-23T13:10:32.000Z</time>
      </trkpt>
      <trkpt lat="44.13136" lon="2.25321">
        <ele>269.4</ele>
        <time>2024-04-23T13:10:33.000Z</time>
      </trkpt>
      <trkpt lat="44.13136" lon="2.25321">
        <ele>269.5</ele>
        <time>2024-04-23T13:10:34.000Z</time>
      </trkpt>
      <trkpt lat="44.13136" lon="2.25322">
        <ele>269.5</ele>
        <time>2024-04-23T13:10:35.000Z</time>
      </trkpt>
      <trkpt lat="44.13136" lon="2.25322">
        <ele>269.5</ele>
        <time>2024-04-23T13:10:36.000Z</time>
      </trkpt>
      <trkpt lat="44.13136" lon="2.25323">
        <ele>269.5</ele>
        <time>2024-04-23T13:10:37.000Z</time>
      </trkpt>
      <trkpt lat="44.13133" lon="2.25335">
        <ele>269.5</ele>
        <time>2024-04-23T13:10:52.000Z</time>
      </trkpt>
      <trkpt lat="44.1313" lon="2.25347">
        <ele>269.2</ele>
        <time>2024-04-23T13:11:10.000Z</time>
      </trkpt>
      <trkpt lat="44.13123" lon="2.25354">
        <ele>268.9</ele>
        <time>2024-04-23T13:11:25.000Z</time>
      </trkpt>
      <trkpt lat="44.13116" lon="2.25363">
        <ele>268.5</ele>
        <time>2024-04-23T13:11:40.000Z</time>
      </trkpt>
      <trkpt lat="44.13116" lon="2.25365">
        <ele>268.3</ele>
        <time>2024-04-23T13:11:46.000Z</time>
      </trkpt>
      <trkpt lat="44.13116" lon="2.25365">
        <ele>268.3</ele>
        <time>2024-04-23T13:11:47.000Z</time>
      </trkpt>
      <trkpt lat="44.13116" lon="2.25365">
        <ele>268</ele>
        <time>2024-04-23T13:12:01.000Z</time>
      </trkpt>
      <trkpt lat="44.1311" lon="2.25375">
        <ele>267.5</ele>
        <time>2024-04-23T13:12:12.000Z</time>
      </trkpt>
      <trkpt lat="44.13107" lon="2.25387">
        <ele>267</ele>
        <time>2024-04-23T13:12:22.000Z</time>
      </trkpt>
      <trkpt lat="44.131" lon="2.25396">
        <ele>267.3</ele>
        <time>2024-04-23T13:12:38.000Z</time>
      </trkpt>
      <trkpt lat="44.13099" lon="2.25396">
        <ele>267.5</ele>
        <time>2024-04-23T13:12:41.000Z</time>
      </trkpt>
      <trkpt lat="44.13099" lon="2.25396">
        <ele>267.6</ele>
        <time>2024-04-23T13:12:42.000Z</time>
      </trkpt>
      <trkpt lat="44.13098" lon="2.25397">
        <ele>267.6</ele>
        <time>2024-04-23T13:12:43.000Z</time>
      </trkpt>
      <trkpt lat="44.13098" lon="2.25397">
        <ele>267.7</ele>
        <time>2024-04-23T13:12:44.000Z</time>
      </trkpt>
      <trkpt lat="44.13098" lon="2.25397">
        <ele>267.7</ele>
        <time>2024-04-23T13:12:45.000Z</time>
      </trkpt>
      <trkpt lat="44.13099" lon="2.25398">
        <ele>267.8</ele>
        <time>2024-04-23T13:12:48.000Z</time>
      </trkpt>
      <trkpt lat="44.13099" lon="2.254">
        <ele>267.8</ele>
        <time>2024-04-23T13:12:49.000Z</time>
      </trkpt>
      <trkpt lat="44.13098" lon="2.254">
        <ele>268</ele>
        <time>2024-04-23T13:12:58.000Z</time>
      </trkpt>
      <trkpt lat="44.13098" lon="2.254">
        <ele>268</ele>
        <time>2024-04-23T13:12:59.000Z</time>
      </trkpt>
      <trkpt lat="44.13098" lon="2.25401">
        <ele>268</ele>
        <time>2024-04-23T13:13:00.000Z</time>
      </trkpt>
      <trkpt lat="44.13097" lon="2.25401">
        <ele>268</ele>
        <time>2024-04-23T13:13:01.000Z</time>
      </trkpt>
      <trkpt lat="44.13097" lon="2.25401">
        <ele>268</ele>
        <time>2024-04-23T13:13:02.000Z</time>
      </trkpt>
      <trkpt lat="44.13097" lon="2.25402">
        <ele>268</ele>
        <time>2024-04-23T13:13:03.000Z</time>
      </trkpt>
      <trkpt lat="44.13097" lon="2.25403">
        <ele>268.1</ele>
        <time>2024-04-23T13:13:06.000Z</time>
      </trkpt>
      <trkpt lat="44.13096" lon="2.25403">
        <ele>268.2</ele>
        <time>2024-04-23T13:13:07.000Z</time>
      </trkpt>
      <trkpt lat="44.13096" lon="2.25403">
        <ele>268.3</ele>
        <time>2024-04-23T13:13:10.000Z</time>
      </trkpt>
      <trkpt lat="44.13096" lon="2.25403">
        <ele>268.4</ele>
        <time>2024-04-23T13:13:11.000Z</time>
      </trkpt>
      <trkpt lat="44.13096" lon="2.25403">
        <ele>268.4</ele>
        <time>2024-04-23T13:13:12.000Z</time>
      </trkpt>
      <trkpt lat="44.13095" lon="2.25403">
        <ele>268.5</ele>
        <time>2024-04-23T13:13:13.000Z</time>
      </trkpt>
      <trkpt lat="44.13095" lon="2.25402">
        <ele>268.6</ele>
        <time>2024-04-23T13:13:16.000Z</time>
      </trkpt>
      <trkpt lat="44.13094" lon="2.25402">
        <ele>268.7</ele>
        <time>2024-04-23T13:13:17.000Z</time>
      </trkpt>
      <trkpt lat="44.13094" lon="2.25402">
        <ele>268.7</ele>
        <time>2024-04-23T13:13:18.000Z</time>
      </trkpt>
      <trkpt lat="44.13094" lon="2.25402">
        <ele>268.8</ele>
        <time>2024-04-23T13:13:19.000Z</time>
      </trkpt>
      <trkpt lat="44.13094" lon="2.25402">
        <ele>268.8</ele>
        <time>2024-04-23T13:13:20.000Z</time>
      </trkpt>
      <trkpt lat="44.13094" lon="2.25402">
        <ele>269</ele>
        <time>2024-04-23T13:13:24.000Z</time>
      </trkpt>
      <trkpt lat="44.13094" lon="2.25402">
        <ele>269</ele>
        <time>2024-04-23T13:13:25.000Z</time>
      </trkpt>
      <trkpt lat="44.13094" lon="2.25403">
        <ele>269.2</ele>
        <time>2024-04-23T13:13:31.000Z</time>
      </trkpt>
      <trkpt lat="44.13094" lon="2.25403">
        <ele>269.2</ele>
        <time>2024-04-23T13:13:32.000Z</time>
      </trkpt>
      <trkpt lat="44.13094" lon="2.25404">
        <ele>269.3</ele>
        <time>2024-04-23T13:13:34.000Z</time>
      </trkpt>
      <trkpt lat="44.13094" lon="2.25404">
        <ele>269.3</ele>
        <time>2024-04-23T13:13:35.000Z</time>
      </trkpt>
      <trkpt lat="44.13093" lon="2.25405">
        <ele>269.5</ele>
        <time>2024-04-23T13:13:45.000Z</time>
      </trkpt>
      <trkpt lat="44.13094" lon="2.25405">
        <ele>269.5</ele>
        <time>2024-04-23T13:13:46.000Z</time>
      </trkpt>
      <trkpt lat="44.13093" lon="2.25405">
        <ele>269.5</ele>
        <time>2024-04-23T13:13:47.000Z</time>
      </trkpt>
      <trkpt lat="44.13093" lon="2.25405">
        <ele>269.6</ele>
        <time>2024-04-23T13:13:48.000Z</time>
      </trkpt>
      <trkpt lat="44.13093" lon="2.25405">
        <ele>269.6</ele>
        <time>2024-04-23T13:13:49.000Z</time>
      </trkpt>
      <trkpt lat="44.13093" lon="2.25405">
        <ele>269.6</ele>
        <time>2024-04-23T13:13:50.000Z</time>
      </trkpt>
      <trkpt lat="44.13093" lon="2.25406">
        <ele>269.8</ele>
        <time>2024-04-23T13:13:54.000Z</time>
      </trkpt>
      <trkpt lat="44.13093" lon="2.25406">
        <ele>269.8</ele>
        <time>2024-04-23T13:13:55.000Z</time>
      </trkpt>
      <trkpt lat="44.13092" lon="2.2541">
        <ele>270.5</ele>
        <time>2024-04-23T13:14:06.000Z</time>
      </trkpt>
      <trkpt lat="44.13092" lon="2.2541">
        <ele>270.5</ele>
        <time>2024-04-23T13:14:07.000Z</time>
      </trkpt>
      <trkpt lat="44.13091" lon="2.25412">
        <ele>270.5</ele>
        <time>2024-04-23T13:14:11.000Z</time>
      </trkpt>
      <trkpt lat="44.13091" lon="2.25412">
        <ele>270.5</ele>
        <time>2024-04-23T13:14:12.000Z</time>
      </trkpt>
      <trkpt lat="44.13091" lon="2.25412">
        <ele>270.5</ele>
        <time>2024-04-23T13:14:13.000Z</time>
      </trkpt>
      <trkpt lat="44.13091" lon="2.25413">
        <ele>270.5</ele>
        <time>2024-04-23T13:14:14.000Z</time>
      </trkpt>
      <trkpt lat="44.1309" lon="2.25414">
        <ele>270.5</ele>
        <time>2024-04-23T13:14:15.000Z</time>
      </trkpt>
      <trkpt lat="44.1309" lon="2.25415">
        <ele>270.5</ele>
        <time>2024-04-23T13:14:16.000Z</time>
      </trkpt>
      <trkpt lat="44.13089" lon="2.25416">
        <ele>270.4</ele>
        <time>2024-04-23T13:14:17.000Z</time>
      </trkpt>
      <trkpt lat="44.13085" lon="2.25413">
        <ele>270.5</ele>
        <time>2024-04-23T13:14:30.000Z</time>
      </trkpt>
      <trkpt lat="44.13085" lon="2.25413">
        <ele>270.5</ele>
        <time>2024-04-23T13:14:31.000Z</time>
      </trkpt>
      <trkpt lat="44.13085" lon="2.25413">
        <ele>270.5</ele>
        <time>2024-04-23T13:14:32.000Z</time>
      </trkpt>
      <trkpt lat="44.13085" lon="2.25413">
        <ele>270.7</ele>
        <time>2024-04-23T13:14:41.000Z</time>
      </trkpt>
      <trkpt lat="44.13085" lon="2.25413">
        <ele>270.7</ele>
        <time>2024-04-23T13:14:42.000Z</time>
      </trkpt>
      <trkpt lat="44.13085" lon="2.25413">
        <ele>270.7</ele>
        <time>2024-04-23T13:14:43.000Z</time>
      </trkpt>
      <trkpt lat="44.13086" lon="2.25413">
        <ele>270.8</ele>
        <time>2024-04-23T13:14:51.000Z</time>
      </trkpt>
      <trkpt lat="44.13086" lon="2.25413">
        <ele>270.8</ele>
        <time>2024-04-23T13:14:52.000Z</time>
      </trkpt>
      <trkpt lat="44.13086" lon="2.25413">
        <ele>270.8</ele>
        <time>2024-04-23T13:14:53.000Z</time>
      </trkpt>
      <trkpt lat="44.13085" lon="2.25413">
        <ele>270.9</ele>
        <time>2024-04-23T13:15:08.000Z</time>
      </trkpt>
      <trkpt lat="44.13085" lon="2.25412">
        <ele>270.9</ele>
        <time>2024-04-23T13:15:09.000Z</time>
      </trkpt>
      <trkpt lat="44.13085" lon="2.25411">
        <ele>270.9</ele>
        <time>2024-04-23T13:15:10.000Z</time>
      </trkpt>
      <trkpt lat="44.13086" lon="2.25413">
        <ele>270.9</ele>
        <time>2024-04-23T13:15:19.000Z</time>
      </trkpt>
      <trkpt lat="44.13086" lon="2.25413">
        <ele>270.9</ele>
        <time>2024-04-23T13:15:20.000Z</time>
      </trkpt>
      <trkpt lat="44.13086" lon="2.25412">
        <ele>270.9</ele>
        <time>2024-04-23T13:15:25.000Z</time>
      </trkpt>
      <trkpt lat="44.13085" lon="2.25413">
        <ele>270.9</ele>
        <time>2024-04-23T13:15:26.000Z</time>
      </trkpt>
      <trkpt lat="44.13085" lon="2.25413">
        <ele>270.9</ele>
        <time>2024-04-23T13:15:27.000Z</time>
      </trkpt>
      <trkpt lat="44.13083" lon="2.25414">
        <ele>270.8</ele>
        <time>2024-04-23T13:15:33.000Z</time>
      </trkpt>
      <trkpt lat="44.13083" lon="2.25414">
        <ele>270.8</ele>
        <time>2024-04-23T13:15:34.000Z</time>
      </trkpt>
      <trkpt lat="44.13083" lon="2.25414">
        <ele>270.7</ele>
        <time>2024-04-23T13:15:35.000Z</time>
      </trkpt>
      <trkpt lat="44.13082" lon="2.25415">
        <ele>269.9</ele>
        <time>2024-04-23T13:16:15.000Z</time>
      </trkpt>
      <trkpt lat="44.13082" lon="2.25415">
        <ele>269.8</ele>
        <time>2024-04-23T13:16:16.000Z</time>
      </trkpt>
      <trkpt lat="44.13082" lon="2.25416">
        <ele>269.8</ele>
        <time>2024-04-23T13:16:17.000Z</time>
      </trkpt>
      <trkpt lat="44.13079" lon="2.2542">
        <ele>269.6</ele>
        <time>2024-04-23T13:16:26.000Z</time>
      </trkpt>
      <trkpt lat="44.13079" lon="2.2542">
        <ele>269.6</ele>
        <time>2024-04-23T13:16:27.000Z</time>
      </trkpt>
      <trkpt lat="44.13076" lon="2.25422">
        <ele>269.6</ele>
        <time>2024-04-23T13:16:36.000Z</time>
      </trkpt>
      <trkpt lat="44.13075" lon="2.25422">
        <ele>269.6</ele>
        <time>2024-04-23T13:16:37.000Z</time>
      </trkpt>
      <trkpt lat="44.13068" lon="2.25432">
        <ele>270.7</ele>
        <time>2024-04-23T13:16:57.000Z</time>
      </trkpt>
      <trkpt lat="44.1306" lon="2.25437">
        <ele>271</ele>
        <time>2024-04-23T13:17:12.000Z</time>
      </trkpt>
      <trkpt lat="44.13059" lon="2.25438">
        <ele>270.9</ele>
        <time>2024-04-23T13:17:16.000Z</time>
      </trkpt>
      <trkpt lat="44.13058" lon="2.25439">
        <ele>270.9</ele>
        <time>2024-04-23T13:17:17.000Z</time>
      </trkpt>
      <trkpt lat="44.13058" lon="2.25439">
        <ele>270.8</ele>
        <time>2024-04-23T13:17:18.000Z</time>
      </trkpt>
      <trkpt lat="44.13058" lon="2.25439">
        <ele>270.8</ele>
        <time>2024-04-23T13:17:19.000Z</time>
      </trkpt>
      <trkpt lat="44.13056" lon="2.2544">
        <ele>270.8</ele>
        <time>2024-04-23T13:17:23.000Z</time>
      </trkpt>
      <trkpt lat="44.13056" lon="2.25441">
        <ele>270.8</ele>
        <time>2024-04-23T13:17:24.000Z</time>
      </trkpt>
      <trkpt lat="44.13056" lon="2.25441">
        <ele>270.8</ele>
        <time>2024-04-23T13:17:25.000Z</time>
      </trkpt>
      <trkpt lat="44.13056" lon="2.25442">
        <ele>270.8</ele>
        <time>2024-04-23T13:17:26.000Z</time>
      </trkpt>
      <trkpt lat="44.13056" lon="2.25443">
        <ele>270.8</ele>
        <time>2024-04-23T13:17:27.000Z</time>
      </trkpt>
      <trkpt lat="44.13048" lon="2.25451">
        <ele>271.2</ele>
        <time>2024-04-23T13:17:48.000Z</time>
      </trkpt>
      <trkpt lat="44.13039" lon="2.25453">
        <ele>270.6</ele>
        <time>2024-04-23T13:18:02.000Z</time>
      </trkpt>
      <trkpt lat="44.13038" lon="2.25453">
        <ele>270.6</ele>
        <time>2024-04-23T13:18:03.000Z</time>
      </trkpt>
      <trkpt lat="44.13038" lon="2.25453">
        <ele>270.6</ele>
        <time>2024-04-23T13:18:04.000Z</time>
      </trkpt>
      <trkpt lat="44.1303" lon="2.25459">
        <ele>270.1</ele>
        <time>2024-04-23T13:18:20.000Z</time>
      </trkpt>
      <trkpt lat="44.13022" lon="2.25468">
        <ele>268.5</ele>
        <time>2024-04-23T13:18:34.000Z</time>
      </trkpt>
      <trkpt lat="44.13017" lon="2.2548">
        <ele>266.7</ele>
        <time>2024-04-23T13:18:46.000Z</time>
      </trkpt>
      <trkpt lat="44.13012" lon="2.25492">
        <ele>266.4</ele>
        <time>2024-04-23T13:19:00.000Z</time>
      </trkpt>
      <trkpt lat="44.13007" lon="2.25503">
        <ele>266.2</ele>
        <time>2024-04-23T13:19:14.000Z</time>
      </trkpt>
      <trkpt lat="44.13" lon="2.25512">
        <ele>265.8</ele>
        <time>2024-04-23T13:19:31.000Z</time>
      </trkpt>
      <trkpt lat="44.12994" lon="2.25521">
        <ele>265.6</ele>
        <time>2024-04-23T13:19:44.000Z</time>
      </trkpt>
      <trkpt lat="44.12989" lon="2.25533">
        <ele>266.3</ele>
        <time>2024-04-23T13:20:01.000Z</time>
      </trkpt>
      <trkpt lat="44.12981" lon="2.2554">
        <ele>268</ele>
        <time>2024-04-23T13:20:19.000Z</time>
      </trkpt>
      <trkpt lat="44.12972" lon="2.25543">
        <ele>268.6</ele>
        <time>2024-04-23T13:20:34.000Z</time>
      </trkpt>
      <trkpt lat="44.12968" lon="2.2555">
        <ele>268.9</ele>
        <time>2024-04-23T13:20:43.000Z</time>
      </trkpt>
      <trkpt lat="44.12968" lon="2.2555">
        <ele>268.9</ele>
        <time>2024-04-23T13:20:44.000Z</time>
      </trkpt>
      <trkpt lat="44.12968" lon="2.2555">
        <ele>268.9</ele>
        <time>2024-04-23T13:20:45.000Z</time>
      </trkpt>
      <trkpt lat="44.12967" lon="2.25553">
        <ele>269.2</ele>
        <time>2024-04-23T13:20:54.000Z</time>
      </trkpt>
      <trkpt lat="44.12966" lon="2.25553">
        <ele>269.2</ele>
        <time>2024-04-23T13:20:55.000Z</time>
      </trkpt>
      <trkpt lat="44.12961" lon="2.25558">
        <ele>269.3</ele>
        <time>2024-04-23T13:21:13.000Z</time>
      </trkpt>
      <trkpt lat="44.12961" lon="2.25558">
        <ele>269.3</ele>
        <time>2024-04-23T13:21:14.000Z</time>
      </trkpt>
      <trkpt lat="44.12961" lon="2.25558">
        <ele>269.3</ele>
        <time>2024-04-23T13:21:15.000Z</time>
      </trkpt>
      <trkpt lat="44.12961" lon="2.25558">
        <ele>269.3</ele>
        <time>2024-04-23T13:21:16.000Z</time>
      </trkpt>
      <trkpt lat="44.1296" lon="2.25558">
        <ele>269.3</ele>
        <time>2024-04-23T13:21:17.000Z</time>
      </trkpt>
      <trkpt lat="44.12958" lon="2.25559">
        <ele>269.5</ele>
        <time>2024-04-23T13:21:23.000Z</time>
      </trkpt>
      <trkpt lat="44.12957" lon="2.25559">
        <ele>269.6</ele>
        <time>2024-04-23T13:21:28.000Z</time>
      </trkpt>
      <trkpt lat="44.12948" lon="2.25563">
        <ele>270</ele>
        <time>2024-04-23T13:21:43.000Z</time>
      </trkpt>
      <trkpt lat="44.12945" lon="2.25567">
        <ele>270</ele>
        <time>2024-04-23T13:21:53.000Z</time>
      </trkpt>
      <trkpt lat="44.12945" lon="2.25567">
        <ele>270</ele>
        <time>2024-04-23T13:21:54.000Z</time>
      </trkpt>
      <trkpt lat="44.12945" lon="2.25566">
        <ele>270</ele>
        <time>2024-04-23T13:21:55.000Z</time>
      </trkpt>
      <trkpt lat="44.12945" lon="2.25567">
        <ele>270</ele>
        <time>2024-04-23T13:21:59.000Z</time>
      </trkpt>
      <trkpt lat="44.12944" lon="2.25567">
        <ele>270</ele>
        <time>2024-04-23T13:22:00.000Z</time>
      </trkpt>
      <trkpt lat="44.12943" lon="2.25568">
        <ele>270.2</ele>
        <time>2024-04-23T13:22:06.000Z</time>
      </trkpt>
      <trkpt lat="44.12943" lon="2.25569">
        <ele>270.3</ele>
        <time>2024-04-23T13:22:07.000Z</time>
      </trkpt>
      <trkpt lat="44.12943" lon="2.2557">
        <ele>270.3</ele>
        <time>2024-04-23T13:22:08.000Z</time>
      </trkpt>
      <trkpt lat="44.12943" lon="2.2557">
        <ele>270.4</ele>
        <time>2024-04-23T13:22:09.000Z</time>
      </trkpt>
      <trkpt lat="44.12943" lon="2.2557">
        <ele>270.5</ele>
        <time>2024-04-23T13:22:10.000Z</time>
      </trkpt>
      <trkpt lat="44.12941" lon="2.25572">
        <ele>271.1</ele>
        <time>2024-04-23T13:22:19.000Z</time>
      </trkpt>
      <trkpt lat="44.12941" lon="2.25573">
        <ele>271.1</ele>
        <time>2024-04-23T13:22:20.000Z</time>
      </trkpt>
      <trkpt lat="44.12941" lon="2.25573">
        <ele>271.1</ele>
        <time>2024-04-23T13:22:21.000Z</time>
      </trkpt>
      <trkpt lat="44.12942" lon="2.25573">
        <ele>271.2</ele>
        <time>2024-04-23T13:22:22.000Z</time>
      </trkpt>
      <trkpt lat="44.12942" lon="2.25573">
        <ele>271.2</ele>
        <time>2024-04-23T13:22:23.000Z</time>
      </trkpt>
      <trkpt lat="44.12941" lon="2.25573">
        <ele>271.3</ele>
        <time>2024-04-23T13:22:24.000Z</time>
      </trkpt>
      <trkpt lat="44.12942" lon="2.25574">
        <ele>271.3</ele>
        <time>2024-04-23T13:22:25.000Z</time>
      </trkpt>
      <trkpt lat="44.12943" lon="2.25576">
        <ele>271.7</ele>
        <time>2024-04-23T13:22:30.000Z</time>
      </trkpt>
      <trkpt lat="44.12944" lon="2.25576">
        <ele>271.9</ele>
        <time>2024-04-23T13:22:31.000Z</time>
      </trkpt>
      <trkpt lat="44.12944" lon="2.25576">
        <ele>272</ele>
        <time>2024-04-23T13:22:32.000Z</time>
      </trkpt>
      <trkpt lat="44.12944" lon="2.25576">
        <ele>272.6</ele>
        <time>2024-04-23T13:22:36.000Z</time>
      </trkpt>
      <trkpt lat="44.12944" lon="2.25576">
        <ele>272.7</ele>
        <time>2024-04-23T13:22:37.000Z</time>
      </trkpt>
      <trkpt lat="44.12944" lon="2.25576">
        <ele>272.8</ele>
        <time>2024-04-23T13:22:38.000Z</time>
      </trkpt>
      <trkpt lat="44.12944" lon="2.25576">
        <ele>273.3</ele>
        <time>2024-04-23T13:22:49.000Z</time>
      </trkpt>
      <trkpt lat="44.12944" lon="2.25576">
        <ele>273.3</ele>
        <time>2024-04-23T13:22:50.000Z</time>
      </trkpt>
      <trkpt lat="44.12944" lon="2.25575">
        <ele>273.3</ele>
        <time>2024-04-23T13:22:54.000Z</time>
      </trkpt>
      <trkpt lat="44.12944" lon="2.25575">
        <ele>273.3</ele>
        <time>2024-04-23T13:22:55.000Z</time>
      </trkpt>
      <trkpt lat="44.12944" lon="2.25575">
        <ele>273.3</ele>
        <time>2024-04-23T13:22:58.000Z</time>
      </trkpt>
      <trkpt lat="44.12944" lon="2.25575">
        <ele>273.3</ele>
        <time>2024-04-23T13:22:59.000Z</time>
      </trkpt>
      <trkpt lat="44.12936" lon="2.25567">
        <ele>273.2</ele>
        <time>2024-04-23T13:23:19.000Z</time>
      </trkpt>
      <trkpt lat="44.12932" lon="2.25558">
        <ele>274.4</ele>
        <time>2024-04-23T13:23:39.000Z</time>
      </trkpt>
      <trkpt lat="44.12932" lon="2.25558">
        <ele>274.6</ele>
        <time>2024-04-23T13:23:40.000Z</time>
      </trkpt>
      <trkpt lat="44.12932" lon="2.25558">
        <ele>276.8</ele>
        <time>2024-04-23T13:23:53.000Z</time>
      </trkpt>
      <trkpt lat="44.12932" lon="2.25558">
        <ele>276.8</ele>
        <time>2024-04-23T13:23:54.000Z</time>
      </trkpt>
      <trkpt lat="44.12932" lon="2.25558">
        <ele>276.9</ele>
        <time>2024-04-23T13:23:55.000Z</time>
      </trkpt>
      <trkpt lat="44.12932" lon="2.25559">
        <ele>276.9</ele>
        <time>2024-04-23T13:23:56.000Z</time>
      </trkpt>
      <trkpt lat="44.12931" lon="2.25558">
        <ele>277</ele>
        <time>2024-04-23T13:23:57.000Z</time>
      </trkpt>
      <trkpt lat="44.12931" lon="2.25558">
        <ele>277.1</ele>
        <time>2024-04-23T13:23:58.000Z</time>
      </trkpt>
      <trkpt lat="44.12931" lon="2.25559">
        <ele>277.1</ele>
        <time>2024-04-23T13:23:59.000Z</time>
      </trkpt>
      <trkpt lat="44.1293" lon="2.25559">
        <ele>277.2</ele>
        <time>2024-04-23T13:24:00.000Z</time>
      </trkpt>
      <trkpt lat="44.1293" lon="2.2556">
        <ele>277.5</ele>
        <time>2024-04-23T13:24:04.000Z</time>
      </trkpt>
      <trkpt lat="44.1293" lon="2.2556">
        <ele>277.6</ele>
        <time>2024-04-23T13:24:05.000Z</time>
      </trkpt>
      <trkpt lat="44.1293" lon="2.2556">
        <ele>277.7</ele>
        <time>2024-04-23T13:24:06.000Z</time>
      </trkpt>
      <trkpt lat="44.1293" lon="2.2556">
        <ele>277.7</ele>
        <time>2024-04-23T13:24:07.000Z</time>
      </trkpt>
      <trkpt lat="44.1293" lon="2.25562">
        <ele>278</ele>
        <time>2024-04-23T13:24:11.000Z</time>
      </trkpt>
      <trkpt lat="44.1293" lon="2.25562">
        <ele>278</ele>
        <time>2024-04-23T13:24:12.000Z</time>
      </trkpt>
      <trkpt lat="44.1293" lon="2.25564">
        <ele>278.7</ele>
        <time>2024-04-23T13:24:30.000Z</time>
      </trkpt>
      <trkpt lat="44.1293" lon="2.25564">
        <ele>278.7</ele>
        <time>2024-04-23T13:24:31.000Z</time>
      </trkpt>
      <trkpt lat="44.1293" lon="2.25564">
        <ele>278.7</ele>
        <time>2024-04-23T13:24:32.000Z</time>
      </trkpt>
      <trkpt lat="44.1293" lon="2.25564">
        <ele>278.7</ele>
        <time>2024-04-23T13:24:33.000Z</time>
      </trkpt>
      <trkpt lat="44.1293" lon="2.25564">
        <ele>278.7</ele>
        <time>2024-04-23T13:24:34.000Z</time>
      </trkpt>
      <trkpt lat="44.1293" lon="2.25564">
        <ele>278.7</ele>
        <time>2024-04-23T13:24:35.000Z</time>
      </trkpt>
      <trkpt lat="44.1293" lon="2.25563">
        <ele>278.7</ele>
        <time>2024-04-23T13:24:41.000Z</time>
      </trkpt>
      <trkpt lat="44.12929" lon="2.25563">
        <ele>278.7</ele>
        <time>2024-04-23T13:24:42.000Z</time>
      </trkpt>
      <trkpt lat="44.12929" lon="2.25563">
        <ele>278.7</ele>
        <time>2024-04-23T13:24:43.000Z</time>
      </trkpt>
      <trkpt lat="44.12929" lon="2.25563">
        <ele>278.8</ele>
        <time>2024-04-23T13:24:46.000Z</time>
      </trkpt>
      <trkpt lat="44.12929" lon="2.25563">
        <ele>278.8</ele>
        <time>2024-04-23T13:24:47.000Z</time>
      </trkpt>
      <trkpt lat="44.12929" lon="2.25563">
        <ele>278.8</ele>
        <time>2024-04-23T13:24:48.000Z</time>
      </trkpt>
      <trkpt lat="44.12929" lon="2.25563">
        <ele>278.8</ele>
        <time>2024-04-23T13:24:49.000Z</time>
      </trkpt>
      <trkpt lat="44.12929" lon="2.25563">
        <ele>278.8</ele>
        <time>2024-04-23T13:24:50.000Z</time>
      </trkpt>
      <trkpt lat="44.12929" lon="2.25564">
        <ele>278.8</ele>
        <time>2024-04-23T13:24:56.000Z</time>
      </trkpt>
      <trkpt lat="44.12929" lon="2.25564">
        <ele>278.9</ele>
        <time>2024-04-23T13:24:57.000Z</time>
      </trkpt>
      <trkpt lat="44.12929" lon="2.25564">
        <ele>278.9</ele>
        <time>2024-04-23T13:24:58.000Z</time>
      </trkpt>
      <trkpt lat="44.12929" lon="2.25564">
        <ele>278.9</ele>
        <time>2024-04-23T13:24:59.000Z</time>
      </trkpt>
      <trkpt lat="44.12921" lon="2.25567">
        <ele>279.2</ele>
        <time>2024-04-23T13:25:23.000Z</time>
      </trkpt>
      <trkpt lat="44.12921" lon="2.25567">
        <ele>279.2</ele>
        <time>2024-04-23T13:25:24.000Z</time>
      </trkpt>
      <trkpt lat="44.12921" lon="2.25567">
        <ele>279.4</ele>
        <time>2024-04-23T13:25:36.000Z</time>
      </trkpt>
      <trkpt lat="44.12921" lon="2.25567">
        <ele>279.4</ele>
        <time>2024-04-23T13:25:37.000Z</time>
      </trkpt>
      <trkpt lat="44.12921" lon="2.25567">
        <ele>279.4</ele>
        <time>2024-04-23T13:25:38.000Z</time>
      </trkpt>
      <trkpt lat="44.12921" lon="2.25566">
        <ele>279.4</ele>
        <time>2024-04-23T13:25:39.000Z</time>
      </trkpt>
      <trkpt lat="44.12921" lon="2.25566">
        <ele>279.4</ele>
        <time>2024-04-23T13:25:40.000Z</time>
      </trkpt>
      <trkpt lat="44.12921" lon="2.25566">
        <ele>279.4</ele>
        <time>2024-04-23T13:25:41.000Z</time>
      </trkpt>
      <trkpt lat="44.1292" lon="2.25565">
        <ele>279.4</ele>
        <time>2024-04-23T13:25:42.000Z</time>
      </trkpt>
      <trkpt lat="44.12912" lon="2.25568">
        <ele>279.5</ele>
        <time>2024-04-23T13:26:12.000Z</time>
      </trkpt>
      <trkpt lat="44.12904" lon="2.25575">
        <ele>275.5</ele>
        <time>2024-04-23T13:26:40.000Z</time>
      </trkpt>
      <trkpt lat="44.12896" lon="2.2558">
        <ele>274.1</ele>
        <time>2024-04-23T13:26:55.000Z</time>
      </trkpt>
      <trkpt lat="44.12896" lon="2.2558">
        <ele>274.1</ele>
        <time>2024-04-23T13:26:56.000Z</time>
      </trkpt>
      <trkpt lat="44.12896" lon="2.2558">
        <ele>274.1</ele>
        <time>2024-04-23T13:26:57.000Z</time>
      </trkpt>
      <trkpt lat="44.12895" lon="2.25579">
        <ele>274</ele>
        <time>2024-04-23T13:27:00.000Z</time>
      </trkpt>
      <trkpt lat="44.12894" lon="2.25579">
        <ele>274</ele>
        <time>2024-04-23T13:27:01.000Z</time>
      </trkpt>
      <trkpt lat="44.12894" lon="2.25579">
        <ele>274</ele>
        <time>2024-04-23T13:27:02.000Z</time>
      </trkpt>
      <trkpt lat="44.12894" lon="2.25581">
        <ele>273.7</ele>
        <time>2024-04-23T13:27:11.000Z</time>
      </trkpt>
      <trkpt lat="44.12894" lon="2.25581">
        <ele>273.6</ele>
        <time>2024-04-23T13:27:12.000Z</time>
      </trkpt>
      <trkpt lat="44.12894" lon="2.25583">
        <ele>272.9</ele>
        <time>2024-04-23T13:27:21.000Z</time>
      </trkpt>
      <trkpt lat="44.12893" lon="2.25584">
        <ele>272.8</ele>
        <time>2024-04-23T13:27:22.000Z</time>
      </trkpt>
      <trkpt lat="44.12893" lon="2.25584">
        <ele>272.7</ele>
        <time>2024-04-23T13:27:23.000Z</time>
      </trkpt>
      <trkpt lat="44.12892" lon="2.25586">
        <ele>271.9</ele>
        <time>2024-04-23T13:27:30.000Z</time>
      </trkpt>
      <trkpt lat="44.12892" lon="2.25586">
        <ele>271.8</ele>
        <time>2024-04-23T13:27:31.000Z</time>
      </trkpt>
      <trkpt lat="44.12892" lon="2.25586">
        <ele>271.7</ele>
        <time>2024-04-23T13:27:32.000Z</time>
      </trkpt>
      <trkpt lat="44.12891" lon="2.25584">
        <ele>271.2</ele>
        <time>2024-04-23T13:27:43.000Z</time>
      </trkpt>
      <trkpt lat="44.12891" lon="2.25583">
        <ele>271.1</ele>
        <time>2024-04-23T13:27:44.000Z</time>
      </trkpt>
      <trkpt lat="44.12891" lon="2.25583">
        <ele>271.1</ele>
        <time>2024-04-23T13:27:45.000Z</time>
      </trkpt>
      <trkpt lat="44.12891" lon="2.25583">
        <ele>271.1</ele>
        <time>2024-04-23T13:27:46.000Z</time>
      </trkpt>
      <trkpt lat="44.12891" lon="2.25583">
        <ele>271.1</ele>
        <time>2024-04-23T13:27:47.000Z</time>
      </trkpt>
      <trkpt lat="44.12891" lon="2.25582">
        <ele>270.9</ele>
        <time>2024-04-23T13:28:01.000Z</time>
      </trkpt>
      <trkpt lat="44.12891" lon="2.25582">
        <ele>270.9</ele>
        <time>2024-04-23T13:28:02.000Z</time>
      </trkpt>
      <trkpt lat="44.12892" lon="2.25583">
        <ele>270.9</ele>
        <time>2024-04-23T13:28:03.000Z</time>
      </trkpt>
      <trkpt lat="44.12886" lon="2.25577">
        <ele>270.8</ele>
        <time>2024-04-23T13:28:21.000Z</time>
      </trkpt>
      <trkpt lat="44.12886" lon="2.25577">
        <ele>270.8</ele>
        <time>2024-04-23T13:28:22.000Z</time>
      </trkpt>
      <trkpt lat="44.12886" lon="2.25577">
        <ele>270.8</ele>
        <time>2024-04-23T13:28:23.000Z</time>
      </trkpt>
      <trkpt lat="44.12884" lon="2.25574">
        <ele>270.9</ele>
        <time>2024-04-23T13:28:29.000Z</time>
      </trkpt>
      <trkpt lat="44.12884" lon="2.25573">
        <ele>270.8</ele>
        <time>2024-04-23T13:28:30.000Z</time>
      </trkpt>
      <trkpt lat="44.12876" lon="2.25564">
        <ele>270.7</ele>
        <time>2024-04-23T13:28:42.000Z</time>
      </trkpt>
      <trkpt lat="44.12868" lon="2.25562">
        <ele>270.1</ele>
        <time>2024-04-23T13:28:54.000Z</time>
      </trkpt>
      <trkpt lat="44.1286" lon="2.25555">
        <ele>270.1</ele>
        <time>2024-04-23T13:29:03.000Z</time>
      </trkpt>
      <trkpt lat="44.12853" lon="2.25546">
        <ele>270.2</ele>
        <time>2024-04-23T13:29:13.000Z</time>
      </trkpt>
      <trkpt lat="44.12844" lon="2.25539">
        <ele>270.3</ele>
        <time>2024-04-23T13:29:26.000Z</time>
      </trkpt>
      <trkpt lat="44.12836" lon="2.25533">
        <ele>270.4</ele>
        <time>2024-04-23T13:29:38.000Z</time>
      </trkpt>
      <trkpt lat="44.12828" lon="2.25526">
        <ele>270.4</ele>
        <time>2024-04-23T13:29:47.000Z</time>
      </trkpt>
      <trkpt lat="44.12821" lon="2.25518">
        <ele>270.3</ele>
        <time>2024-04-23T13:29:59.000Z</time>
      </trkpt>
      <trkpt lat="44.12815" lon="2.25508">
        <ele>270.3</ele>
        <time>2024-04-23T13:30:09.000Z</time>
      </trkpt>
      <trkpt lat="44.12806" lon="2.25502">
        <ele>270.2</ele>
        <time>2024-04-23T13:30:19.000Z</time>
      </trkpt>
      <trkpt lat="44.12796" lon="2.25501">
        <ele>270.1</ele>
        <time>2024-04-23T13:30:29.000Z</time>
      </trkpt>
      <trkpt lat="44.12795" lon="2.25506">
        <ele>269.8</ele>
        <time>2024-04-23T13:30:35.000Z</time>
      </trkpt>
      <trkpt lat="44.12795" lon="2.25506">
        <ele>269.8</ele>
        <time>2024-04-23T13:30:36.000Z</time>
      </trkpt>
      <trkpt lat="44.12795" lon="2.25506">
        <ele>269.7</ele>
        <time>2024-04-23T13:30:37.000Z</time>
      </trkpt>
      <trkpt lat="44.12794" lon="2.25505">
        <ele>269.5</ele>
        <time>2024-04-23T13:30:41.000Z</time>
      </trkpt>
      <trkpt lat="44.12793" lon="2.25504">
        <ele>269.5</ele>
        <time>2024-04-23T13:30:42.000Z</time>
      </trkpt>
      <trkpt lat="44.12792" lon="2.25504">
        <ele>269.4</ele>
        <time>2024-04-23T13:30:43.000Z</time>
      </trkpt>
      <trkpt lat="44.12784" lon="2.25498">
        <ele>269.4</ele>
        <time>2024-04-23T13:30:52.000Z</time>
      </trkpt>
      <trkpt lat="44.12778" lon="2.25489">
        <ele>269.4</ele>
        <time>2024-04-23T13:30:59.000Z</time>
      </trkpt>
      <trkpt lat="44.12769" lon="2.25486">
        <ele>269.7</ele>
        <time>2024-04-23T13:31:09.000Z</time>
      </trkpt>
      <trkpt lat="44.12761" lon="2.25479">
        <ele>269.9</ele>
        <time>2024-04-23T13:31:18.000Z</time>
      </trkpt>
      <trkpt lat="44.12752" lon="2.25473">
        <ele>270.2</ele>
        <time>2024-04-23T13:31:28.000Z</time>
      </trkpt>
      <trkpt lat="44.12743" lon="2.25471">
        <ele>270.2</ele>
        <time>2024-04-23T13:31:36.000Z</time>
      </trkpt>
      <trkpt lat="44.12733" lon="2.25469">
        <ele>270.3</ele>
        <time>2024-04-23T13:31:44.000Z</time>
      </trkpt>
      <trkpt lat="44.12724" lon="2.25468">
        <ele>270.7</ele>
        <time>2024-04-23T13:31:52.000Z</time>
      </trkpt>
      <trkpt lat="44.12715" lon="2.25465">
        <ele>272.3</ele>
        <time>2024-04-23T13:32:01.000Z</time>
      </trkpt>
      <trkpt lat="44.12705" lon="2.25461">
        <ele>274</ele>
        <time>2024-04-23T13:32:11.000Z</time>
      </trkpt>
      <trkpt lat="44.12696" lon="2.25461">
        <ele>275.4</ele>
        <time>2024-04-23T13:32:20.000Z</time>
      </trkpt>
      <trkpt lat="44.12687" lon="2.25462">
        <ele>276.1</ele>
        <time>2024-04-23T13:32:31.000Z</time>
      </trkpt>
      <trkpt lat="44.12678" lon="2.25465">
        <ele>276.1</ele>
        <time>2024-04-23T13:32:40.000Z</time>
      </trkpt>
      <trkpt lat="44.12668" lon="2.25463">
        <ele>276</ele>
        <time>2024-04-23T13:32:51.000Z</time>
      </trkpt>
      <trkpt lat="44.12659" lon="2.25466">
        <ele>276</ele>
        <time>2024-04-23T13:32:59.000Z</time>
      </trkpt>
      <trkpt lat="44.12649" lon="2.25472">
        <ele>276.1</ele>
        <time>2024-04-23T13:33:07.000Z</time>
      </trkpt>
      <trkpt lat="44.1264" lon="2.25476">
        <ele>276.1</ele>
        <time>2024-04-23T13:33:18.000Z</time>
      </trkpt>
      <trkpt lat="44.12632" lon="2.25483">
        <ele>276</ele>
        <time>2024-04-23T13:33:29.000Z</time>
      </trkpt>
      <trkpt lat="44.12626" lon="2.25492">
        <ele>276</ele>
        <time>2024-04-23T13:33:37.000Z</time>
      </trkpt>
      <trkpt lat="44.12622" lon="2.25504">
        <ele>275.9</ele>
        <time>2024-04-23T13:33:46.000Z</time>
      </trkpt>
      <trkpt lat="44.12623" lon="2.25512">
        <ele>276</ele>
        <time>2024-04-23T13:34:01.000Z</time>
      </trkpt>
      <trkpt lat="44.12623" lon="2.25512">
        <ele>275.9</ele>
        <time>2024-04-23T13:34:02.000Z</time>
      </trkpt>
      <trkpt lat="44.12623" lon="2.25512">
        <ele>275.9</ele>
        <time>2024-04-23T13:34:03.000Z</time>
      </trkpt>
      <trkpt lat="44.1262" lon="2.25515">
        <ele>275.8</ele>
        <time>2024-04-23T13:34:11.000Z</time>
      </trkpt>
      <trkpt lat="44.12619" lon="2.25516">
        <ele>275.7</ele>
        <time>2024-04-23T13:34:12.000Z</time>
      </trkpt>
      <trkpt lat="44.12618" lon="2.25516">
        <ele>275.6</ele>
        <time>2024-04-23T13:34:16.000Z</time>
      </trkpt>
      <trkpt lat="44.12618" lon="2.25515">
        <ele>275.6</ele>
        <time>2024-04-23T13:34:17.000Z</time>
      </trkpt>
      <trkpt lat="44.12617" lon="2.25515">
        <ele>275.6</ele>
        <time>2024-04-23T13:34:18.000Z</time>
      </trkpt>
      <trkpt lat="44.12617" lon="2.25516">
        <ele>275.6</ele>
        <time>2024-04-23T13:34:19.000Z</time>
      </trkpt>
      <trkpt lat="44.12617" lon="2.25516">
        <ele>275.5</ele>
        <time>2024-04-23T13:34:20.000Z</time>
      </trkpt>
      <trkpt lat="44.12616" lon="2.25517">
        <ele>275.5</ele>
        <time>2024-04-23T13:34:21.000Z</time>
      </trkpt>
      <trkpt lat="44.12616" lon="2.25516">
        <ele>275.5</ele>
        <time>2024-04-23T13:34:22.000Z</time>
      </trkpt>
      <trkpt lat="44.12615" lon="2.25516">
        <ele>275.5</ele>
        <time>2024-04-23T13:34:23.000Z</time>
      </trkpt>
      <trkpt lat="44.12613" lon="2.25515">
        <ele>275.2</ele>
        <time>2024-04-23T13:34:29.000Z</time>
      </trkpt>
      <trkpt lat="44.12613" lon="2.25515">
        <ele>275.2</ele>
        <time>2024-04-23T13:34:30.000Z</time>
      </trkpt>
      <trkpt lat="44.12613" lon="2.25516">
        <ele>275.1</ele>
        <time>2024-04-23T13:34:34.000Z</time>
      </trkpt>
      <trkpt lat="44.12614" lon="2.25517">
        <ele>275</ele>
        <time>2024-04-23T13:34:35.000Z</time>
      </trkpt>
      <trkpt lat="44.12612" lon="2.25515">
        <ele>274.6</ele>
        <time>2024-04-23T13:34:58.000Z</time>
      </trkpt>
      <trkpt lat="44.12613" lon="2.25515">
        <ele>274.5</ele>
        <time>2024-04-23T13:34:59.000Z</time>
      </trkpt>
      <trkpt lat="44.12613" lon="2.25515">
        <ele>274.5</ele>
        <time>2024-04-23T13:35:00.000Z</time>
      </trkpt>
      <trkpt lat="44.12613" lon="2.25515">
        <ele>274.4</ele>
        <time>2024-04-23T13:35:01.000Z</time>
      </trkpt>
      <trkpt lat="44.12613" lon="2.25515">
        <ele>274.4</ele>
        <time>2024-04-23T13:35:02.000Z</time>
      </trkpt>
      <trkpt lat="44.12613" lon="2.25515">
        <ele>274.3</ele>
        <time>2024-04-23T13:35:03.000Z</time>
      </trkpt>
      <trkpt lat="44.12613" lon="2.25516">
        <ele>274.3</ele>
        <time>2024-04-23T13:35:04.000Z</time>
      </trkpt>
      <trkpt lat="44.12613" lon="2.25516">
        <ele>274.3</ele>
        <time>2024-04-23T13:35:05.000Z</time>
      </trkpt>
      <trkpt lat="44.12613" lon="2.25516">
        <ele>274.3</ele>
        <time>2024-04-23T13:35:06.000Z</time>
      </trkpt>
      <trkpt lat="44.12613" lon="2.25517">
        <ele>274.3</ele>
        <time>2024-04-23T13:35:07.000Z</time>
      </trkpt>
      <trkpt lat="44.12612" lon="2.25517">
        <ele>274.3</ele>
        <time>2024-04-23T13:35:08.000Z</time>
      </trkpt>
      <trkpt lat="44.12612" lon="2.25518">
        <ele>274.3</ele>
        <time>2024-04-23T13:35:09.000Z</time>
      </trkpt>
      <trkpt lat="44.12611" lon="2.25525">
        <ele>274.2</ele>
        <time>2024-04-23T13:35:18.000Z</time>
      </trkpt>
      <trkpt lat="44.12612" lon="2.25526">
        <ele>274.1</ele>
        <time>2024-04-23T13:35:19.000Z</time>
      </trkpt>
      <trkpt lat="44.12613" lon="2.25527">
        <ele>274.1</ele>
        <time>2024-04-23T13:35:20.000Z</time>
      </trkpt>
      <trkpt lat="44.12613" lon="2.25529">
        <ele>274</ele>
        <time>2024-04-23T13:35:21.000Z</time>
      </trkpt>
      <trkpt lat="44.12614" lon="2.2553">
        <ele>273.9</ele>
        <time>2024-04-23T13:35:22.000Z</time>
      </trkpt>
      <trkpt lat="44.12611" lon="2.25542">
        <ele>272.6</ele>
        <time>2024-04-23T13:35:31.000Z</time>
      </trkpt>
      <trkpt lat="44.12603" lon="2.25548">
        <ele>272.6</ele>
        <time>2024-04-23T13:35:45.000Z</time>
      </trkpt>
      <trkpt lat="44.12602" lon="2.25544">
        <ele>272.8</ele>
        <time>2024-04-23T13:35:59.000Z</time>
      </trkpt>
      <trkpt lat="44.12602" lon="2.25544">
        <ele>272.8</ele>
        <time>2024-04-23T13:36:00.000Z</time>
      </trkpt>
      <trkpt lat="44.12602" lon="2.25544">
        <ele>272.7</ele>
        <time>2024-04-23T13:36:02.000Z</time>
      </trkpt>
      <trkpt lat="44.12602" lon="2.25544">
        <ele>272.6</ele>
        <time>2024-04-23T13:36:06.000Z</time>
      </trkpt>
      <trkpt lat="44.12602" lon="2.25544">
        <ele>272.4</ele>
        <time>2024-04-23T13:36:19.000Z</time>
      </trkpt>
      <trkpt lat="44.12602" lon="2.25544">
        <ele>272.3</ele>
        <time>2024-04-23T13:36:23.000Z</time>
      </trkpt>
      <trkpt lat="44.12602" lon="2.25544">
        <ele>272.3</ele>
        <time>2024-04-23T13:36:24.000Z</time>
      </trkpt>
      <trkpt lat="44.12602" lon="2.25544">
        <ele>272.3</ele>
        <time>2024-04-23T13:36:25.000Z</time>
      </trkpt>
      <trkpt lat="44.12602" lon="2.25544">
        <ele>272.1</ele>
        <time>2024-04-23T13:36:35.000Z</time>
      </trkpt>
      <trkpt lat="44.12602" lon="2.25544">
        <ele>272.1</ele>
        <time>2024-04-23T13:36:36.000Z</time>
      </trkpt>
      <trkpt lat="44.12602" lon="2.25545">
        <ele>272</ele>
        <time>2024-04-23T13:37:04.000Z</time>
      </trkpt>
      <trkpt lat="44.12602" lon="2.25545">
        <ele>272</ele>
        <time>2024-04-23T13:37:05.000Z</time>
      </trkpt>
      <trkpt lat="44.12602" lon="2.25545">
        <ele>272</ele>
        <time>2024-04-23T13:37:06.000Z</time>
      </trkpt>
      <trkpt lat="44.12602" lon="2.25545">
        <ele>272</ele>
        <time>2024-04-23T13:37:07.000Z</time>
      </trkpt>
      <trkpt lat="44.12603" lon="2.25545">
        <ele>272.4</ele>
        <time>2024-04-23T13:38:05.000Z</time>
      </trkpt>
      <trkpt lat="44.12603" lon="2.25545">
        <ele>272.4</ele>
        <time>2024-04-23T13:38:06.000Z</time>
      </trkpt>
      <trkpt lat="44.12603" lon="2.25545">
        <ele>272.4</ele>
        <time>2024-04-23T13:38:07.000Z</time>
      </trkpt>
      <trkpt lat="44.12603" lon="2.25545">
        <ele>272.4</ele>
        <time>2024-04-23T13:38:08.000Z</time>
      </trkpt>
      <trkpt lat="44.12603" lon="2.25545">
        <ele>272.4</ele>
        <time>2024-04-23T13:38:09.000Z</time>
      </trkpt>
      <trkpt lat="44.12603" lon="2.25545">
        <ele>272.4</ele>
        <time>2024-04-23T13:38:21.000Z</time>
      </trkpt>
      <trkpt lat="44.12603" lon="2.25545">
        <ele>272.4</ele>
        <time>2024-04-23T13:38:22.000Z</time>
      </trkpt>
      <trkpt lat="44.12603" lon="2.25545">
        <ele>272.4</ele>
        <time>2024-04-23T13:38:23.000Z</time>
      </trkpt>
      <trkpt lat="44.12603" lon="2.25545">
        <ele>272.5</ele>
        <time>2024-04-23T13:38:24.000Z</time>
      </trkpt>
      <trkpt lat="44.12603" lon="2.25545">
        <ele>272.5</ele>
        <time>2024-04-23T13:38:25.000Z</time>
      </trkpt>
      <trkpt lat="44.12604" lon="2.25545">
        <ele>272.5</ele>
        <time>2024-04-23T13:38:26.000Z</time>
      </trkpt>
      <trkpt lat="44.12604" lon="2.25545">
        <ele>272.5</ele>
        <time>2024-04-23T13:38:27.000Z</time>
      </trkpt>
      <trkpt lat="44.12604" lon="2.25545">
        <ele>272.5</ele>
        <time>2024-04-23T13:38:28.000Z</time>
      </trkpt>
      <trkpt lat="44.12604" lon="2.25546">
        <ele>272.5</ele>
        <time>2024-04-23T13:38:29.000Z</time>
      </trkpt>
      <trkpt lat="44.12604" lon="2.25546">
        <ele>272.5</ele>
        <time>2024-04-23T13:38:30.000Z</time>
      </trkpt>
      <trkpt lat="44.12605" lon="2.25548">
        <ele>272.9</ele>
        <time>2024-04-23T13:39:18.000Z</time>
      </trkpt>
      <trkpt lat="44.12605" lon="2.25548">
        <ele>272.9</ele>
        <time>2024-04-23T13:39:19.000Z</time>
      </trkpt>
      <trkpt lat="44.12605" lon="2.25548">
        <ele>272.9</ele>
        <time>2024-04-23T13:39:20.000Z</time>
      </trkpt>
      <trkpt lat="44.12604" lon="2.25549">
        <ele>272.9</ele>
        <time>2024-04-23T13:39:21.000Z</time>
      </trkpt>
      <trkpt lat="44.12604" lon="2.2555">
        <ele>273</ele>
        <time>2024-04-23T13:39:22.000Z</time>
      </trkpt>
      <trkpt lat="44.12604" lon="2.2555">
        <ele>273</ele>
        <time>2024-04-23T13:39:23.000Z</time>
      </trkpt>
      <trkpt lat="44.12603" lon="2.25551">
        <ele>273</ele>
        <time>2024-04-23T13:39:24.000Z</time>
      </trkpt>
      <trkpt lat="44.12599" lon="2.25563">
        <ele>273.1</ele>
        <time>2024-04-23T13:39:35.000Z</time>
      </trkpt>
      <trkpt lat="44.12594" lon="2.25574">
        <ele>273.1</ele>
        <time>2024-04-23T13:39:43.000Z</time>
      </trkpt>
      <trkpt lat="44.12588" lon="2.25585">
        <ele>273.1</ele>
        <time>2024-04-23T13:39:51.000Z</time>
      </trkpt>
      <trkpt lat="44.12583" lon="2.25596">
        <ele>273.2</ele>
        <time>2024-04-23T13:40:00.000Z</time>
      </trkpt>
      <trkpt lat="44.1258" lon="2.25608">
        <ele>273.2</ele>
        <time>2024-04-23T13:40:09.000Z</time>
      </trkpt>
      <trkpt lat="44.12576" lon="2.2562">
        <ele>273.1</ele>
        <time>2024-04-23T13:40:18.000Z</time>
      </trkpt>
      <trkpt lat="44.12577" lon="2.25633">
        <ele>271.9</ele>
        <time>2024-04-23T13:40:26.000Z</time>
      </trkpt>
      <trkpt lat="44.12585" lon="2.25643">
        <ele>269.1</ele>
        <time>2024-04-23T13:40:35.000Z</time>
      </trkpt>
      <trkpt lat="44.12593" lon="2.25651">
        <ele>268.7</ele>
        <time>2024-04-23T13:40:44.000Z</time>
      </trkpt>
      <trkpt lat="44.12602" lon="2.25655">
        <ele>269</ele>
        <time>2024-04-23T13:40:52.000Z</time>
      </trkpt>
      <trkpt lat="44.1261" lon="2.2566">
        <ele>269.4</ele>
        <time>2024-04-23T13:41:00.000Z</time>
      </trkpt>
      <trkpt lat="44.1262" lon="2.25666">
        <ele>270.1</ele>
        <time>2024-04-23T13:41:10.000Z</time>
      </trkpt>
      <trkpt lat="44.12628" lon="2.2567">
        <ele>270.9</ele>
        <time>2024-04-23T13:41:20.000Z</time>
      </trkpt>
      <trkpt lat="44.12637" lon="2.25676">
        <ele>271.9</ele>
        <time>2024-04-23T13:41:29.000Z</time>
      </trkpt>
      <trkpt lat="44.12647" lon="2.25676">
        <ele>272.8</ele>
        <time>2024-04-23T13:41:37.000Z</time>
      </trkpt>
      <trkpt lat="44.12657" lon="2.25673">
        <ele>273.6</ele>
        <time>2024-04-23T13:41:45.000Z</time>
      </trkpt>
      <trkpt lat="44.12665" lon="2.25669">
        <ele>273.9</ele>
        <time>2024-04-23T13:41:52.000Z</time>
      </trkpt>
      <trkpt lat="44.12673" lon="2.25662">
        <ele>274</ele>
        <time>2024-04-23T13:42:01.000Z</time>
      </trkpt>
      <trkpt lat="44.12681" lon="2.25656">
        <ele>274</ele>
        <time>2024-04-23T13:42:09.000Z</time>
      </trkpt>
      <trkpt lat="44.12689" lon="2.25649">
        <ele>274.1</ele>
        <time>2024-04-23T13:42:16.000Z</time>
      </trkpt>
      <trkpt lat="44.12699" lon="2.25644">
        <ele>275.3</ele>
        <time>2024-04-23T13:42:28.000Z</time>
      </trkpt>
      <trkpt lat="44.12709" lon="2.25642">
        <ele>276.5</ele>
        <time>2024-04-23T13:42:37.000Z</time>
      </trkpt>
      <trkpt lat="44.12718" lon="2.25642">
        <ele>276.8</ele>
        <time>2024-04-23T13:42:46.000Z</time>
      </trkpt>
      <trkpt lat="44.12728" lon="2.25644">
        <ele>276.8</ele>
        <time>2024-04-23T13:42:56.000Z</time>
      </trkpt>
      <trkpt lat="44.12737" lon="2.25649">
        <ele>277.7</ele>
        <time>2024-04-23T13:43:09.000Z</time>
      </trkpt>
      <trkpt lat="44.12746" lon="2.25656">
        <ele>278.6</ele>
        <time>2024-04-23T13:43:18.000Z</time>
      </trkpt>
      <trkpt lat="44.12754" lon="2.25663">
        <ele>280</ele>
        <time>2024-04-23T13:43:27.000Z</time>
      </trkpt>
      <trkpt lat="44.12762" lon="2.2567">
        <ele>281.4</ele>
        <time>2024-04-23T13:43:38.000Z</time>
      </trkpt>
      <trkpt lat="44.1277" lon="2.25677">
        <ele>282</ele>
        <time>2024-04-23T13:43:48.000Z</time>
      </trkpt>
      <trkpt lat="44.1278" lon="2.25681">
        <ele>283</ele>
        <time>2024-04-23T13:43:57.000Z</time>
      </trkpt>
      <trkpt lat="44.12789" lon="2.25686">
        <ele>284</ele>
        <time>2024-04-23T13:44:07.000Z</time>
      </trkpt>
      <trkpt lat="44.12798" lon="2.25687">
        <ele>285.3</ele>
        <time>2024-04-23T13:44:16.000Z</time>
      </trkpt>
      <trkpt lat="44.12807" lon="2.25693">
        <ele>286.8</ele>
        <time>2024-04-23T13:44:25.000Z</time>
      </trkpt>
      <trkpt lat="44.12816" lon="2.25697">
        <ele>288.3</ele>
        <time>2024-04-23T13:44:34.000Z</time>
      </trkpt>
      <trkpt lat="44.12825" lon="2.25701">
        <ele>290</ele>
        <time>2024-04-23T13:44:44.000Z</time>
      </trkpt>
      <trkpt lat="44.12834" lon="2.25704">
        <ele>291.3</ele>
        <time>2024-04-23T13:44:53.000Z</time>
      </trkpt>
      <trkpt lat="44.12842" lon="2.25711">
        <ele>292.6</ele>
        <time>2024-04-23T13:45:03.000Z</time>
      </trkpt>
      <trkpt lat="44.1285" lon="2.25718">
        <ele>293.3</ele>
        <time>2024-04-23T13:45:12.000Z</time>
      </trkpt>
      <trkpt lat="44.12859" lon="2.25723">
        <ele>294.1</ele>
        <time>2024-04-23T13:45:22.000Z</time>
      </trkpt>
      <trkpt lat="44.12867" lon="2.25729">
        <ele>294.6</ele>
        <time>2024-04-23T13:45:32.000Z</time>
      </trkpt>
      <trkpt lat="44.12876" lon="2.25734">
        <ele>294.9</ele>
        <time>2024-04-23T13:45:41.000Z</time>
      </trkpt>
      <trkpt lat="44.1288" lon="2.25735">
        <ele>295.6</ele>
        <time>2024-04-23T13:45:55.000Z</time>
      </trkpt>
      <trkpt lat="44.1288" lon="2.25735">
        <ele>295.7</ele>
        <time>2024-04-23T13:45:56.000Z</time>
      </trkpt>
      <trkpt lat="44.1288" lon="2.25735">
        <ele>295.7</ele>
        <time>2024-04-23T13:45:57.000Z</time>
      </trkpt>
      <trkpt lat="44.1288" lon="2.25734">
        <ele>295.8</ele>
        <time>2024-04-23T13:46:00.000Z</time>
      </trkpt>
      <trkpt lat="44.1288" lon="2.25734">
        <ele>295.8</ele>
        <time>2024-04-23T13:46:01.000Z</time>
      </trkpt>
      <trkpt lat="44.1288" lon="2.25734">
        <ele>295.8</ele>
        <time>2024-04-23T13:46:02.000Z</time>
      </trkpt>
      <trkpt lat="44.1288" lon="2.25734">
        <ele>296</ele>
        <time>2024-04-23T13:46:09.000Z</time>
      </trkpt>
      <trkpt lat="44.1288" lon="2.25734">
        <ele>296</ele>
        <time>2024-04-23T13:46:10.000Z</time>
      </trkpt>
      <trkpt lat="44.1288" lon="2.25734">
        <ele>296.1</ele>
        <time>2024-04-23T13:46:15.000Z</time>
      </trkpt>
      <trkpt lat="44.1288" lon="2.25734">
        <ele>296.1</ele>
        <time>2024-04-23T13:46:16.000Z</time>
      </trkpt>
      <trkpt lat="44.1288" lon="2.25734">
        <ele>296.1</ele>
        <time>2024-04-23T13:46:17.000Z</time>
      </trkpt>
      <trkpt lat="44.12881" lon="2.25734">
        <ele>296.8</ele>
        <time>2024-04-23T13:46:35.000Z</time>
      </trkpt>
      <trkpt lat="44.12881" lon="2.25734">
        <ele>296.8</ele>
        <time>2024-04-23T13:46:36.000Z</time>
      </trkpt>
      <trkpt lat="44.12881" lon="2.25734">
        <ele>296.9</ele>
        <time>2024-04-23T13:46:37.000Z</time>
      </trkpt>
      <trkpt lat="44.12881" lon="2.25734">
        <ele>297</ele>
        <time>2024-04-23T13:46:41.000Z</time>
      </trkpt>
      <trkpt lat="44.12881" lon="2.25733">
        <ele>297</ele>
        <time>2024-04-23T13:46:42.000Z</time>
      </trkpt>
      <trkpt lat="44.12882" lon="2.25733">
        <ele>297</ele>
        <time>2024-04-23T13:46:43.000Z</time>
      </trkpt>
      <trkpt lat="44.12875" lon="2.25738">
        <ele>297.2</ele>
        <time>2024-04-23T13:47:05.000Z</time>
      </trkpt>
      <trkpt lat="44.12875" lon="2.25738">
        <ele>297.2</ele>
        <time>2024-04-23T13:47:06.000Z</time>
      </trkpt>
      <trkpt lat="44.12875" lon="2.25738">
        <ele>297.2</ele>
        <time>2024-04-23T13:47:07.000Z</time>
      </trkpt>
      <trkpt lat="44.12875" lon="2.25737">
        <ele>297.3</ele>
        <time>2024-04-23T13:47:10.000Z</time>
      </trkpt>
      <trkpt lat="44.12874" lon="2.25737">
        <ele>297.3</ele>
        <time>2024-04-23T13:47:11.000Z</time>
      </trkpt>
      <trkpt lat="44.12874" lon="2.25737">
        <ele>297.4</ele>
        <time>2024-04-23T13:47:12.000Z</time>
      </trkpt>
      <trkpt lat="44.12865" lon="2.25736">
        <ele>299.6</ele>
        <time>2024-04-23T13:47:31.000Z</time>
      </trkpt>
      <trkpt lat="44.12856" lon="2.25736">
        <ele>301.1</ele>
        <time>2024-04-23T13:47:49.000Z</time>
      </trkpt>
      <trkpt lat="44.12861" lon="2.25747">
        <ele>304.5</ele>
        <time>2024-04-23T13:48:06.000Z</time>
      </trkpt>
      <trkpt lat="44.12868" lon="2.25755">
        <ele>305.7</ele>
        <time>2024-04-23T13:48:15.000Z</time>
      </trkpt>
      <trkpt lat="44.12876" lon="2.25763">
        <ele>306.8</ele>
        <time>2024-04-23T13:48:30.000Z</time>
      </trkpt>
      <trkpt lat="44.12884" lon="2.25766">
        <ele>307.6</ele>
        <time>2024-04-23T13:48:43.000Z</time>
      </trkpt>
      <trkpt lat="44.12894" lon="2.25768">
        <ele>307.8</ele>
        <time>2024-04-23T13:48:57.000Z</time>
      </trkpt>
      <trkpt lat="44.12902" lon="2.25774">
        <ele>307.4</ele>
        <time>2024-04-23T13:49:12.000Z</time>
      </trkpt>
      <trkpt lat="44.12911" lon="2.25777">
        <ele>307.2</ele>
        <time>2024-04-23T13:49:27.000Z</time>
      </trkpt>
      <trkpt lat="44.1292" lon="2.25782">
        <ele>307.6</ele>
        <time>2024-04-23T13:49:38.000Z</time>
      </trkpt>
      <trkpt lat="44.12928" lon="2.25789">
        <ele>310</ele>
        <time>2024-04-23T13:49:53.000Z</time>
      </trkpt>
      <trkpt lat="44.12932" lon="2.258">
        <ele>313.7</ele>
        <time>2024-04-23T13:50:09.000Z</time>
      </trkpt>
      <trkpt lat="44.12938" lon="2.25809">
        <ele>315.4</ele>
        <time>2024-04-23T13:50:23.000Z</time>
      </trkpt>
      <trkpt lat="44.12947" lon="2.25812">
        <ele>316.9</ele>
        <time>2024-04-23T13:50:37.000Z</time>
      </trkpt>
      <trkpt lat="44.12953" lon="2.25823">
        <ele>318.9</ele>
        <time>2024-04-23T13:50:50.000Z</time>
      </trkpt>
      <trkpt lat="44.12955" lon="2.25835">
        <ele>320.9</ele>
        <time>2024-04-23T13:51:03.000Z</time>
      </trkpt>
      <trkpt lat="44.12956" lon="2.25849">
        <ele>322.7</ele>
        <time>2024-04-23T13:51:14.000Z</time>
      </trkpt>
      <trkpt lat="44.12957" lon="2.25861">
        <ele>325.4</ele>
        <time>2024-04-23T13:51:29.000Z</time>
      </trkpt>
      <trkpt lat="44.12956" lon="2.25874">
        <ele>327.9</ele>
        <time>2024-04-23T13:51:45.000Z</time>
      </trkpt>
      <trkpt lat="44.12959" lon="2.25887">
        <ele>328.1</ele>
        <time>2024-04-23T13:51:59.000Z</time>
      </trkpt>
      <trkpt lat="44.12961" lon="2.259">
        <ele>328.7</ele>
        <time>2024-04-23T13:52:11.000Z</time>
      </trkpt>
      <trkpt lat="44.12962" lon="2.25913">
        <ele>331.8</ele>
        <time>2024-04-23T13:52:21.000Z</time>
      </trkpt>
      <trkpt lat="44.12961" lon="2.25926">
        <ele>333.7</ele>
        <time>2024-04-23T13:52:32.000Z</time>
      </trkpt>
      <trkpt lat="44.12958" lon="2.25938">
        <ele>334.9</ele>
        <time>2024-04-23T13:52:50.000Z</time>
      </trkpt>
      <trkpt lat="44.12958" lon="2.25951">
        <ele>336.2</ele>
        <time>2024-04-23T13:53:01.000Z</time>
      </trkpt>
      <trkpt lat="44.12956" lon="2.25964">
        <ele>338.6</ele>
        <time>2024-04-23T13:53:12.000Z</time>
      </trkpt>
      <trkpt lat="44.12956" lon="2.25977">
        <ele>339.1</ele>
        <time>2024-04-23T13:53:23.000Z</time>
      </trkpt>
      <trkpt lat="44.12954" lon="2.25989">
        <ele>339.3</ele>
        <time>2024-04-23T13:53:35.000Z</time>
      </trkpt>
      <trkpt lat="44.1295" lon="2.25977">
        <ele>344.5</ele>
        <time>2024-04-23T13:54:01.000Z</time>
      </trkpt>
      <trkpt lat="44.12949" lon="2.25965">
        <ele>346.6</ele>
        <time>2024-04-23T13:54:11.000Z</time>
      </trkpt>
      <trkpt lat="44.12945" lon="2.25953">
        <ele>348.5</ele>
        <time>2024-04-23T13:54:21.000Z</time>
      </trkpt>
      <trkpt lat="44.12941" lon="2.25941">
        <ele>349.2</ele>
        <time>2024-04-23T13:54:31.000Z</time>
      </trkpt>
      <trkpt lat="44.12937" lon="2.25928">
        <ele>350.2</ele>
        <time>2024-04-23T13:54:40.000Z</time>
      </trkpt>
      <trkpt lat="44.12932" lon="2.25917">
        <ele>351</ele>
        <time>2024-04-23T13:54:49.000Z</time>
      </trkpt>
      <trkpt lat="44.12925" lon="2.25909">
        <ele>352.9</ele>
        <time>2024-04-23T13:55:00.000Z</time>
      </trkpt>
      <trkpt lat="44.12917" lon="2.25902">
        <ele>356</ele>
        <time>2024-04-23T13:55:12.000Z</time>
      </trkpt>
      <trkpt lat="44.12908" lon="2.25899">
        <ele>358.4</ele>
        <time>2024-04-23T13:55:22.000Z</time>
      </trkpt>
      <trkpt lat="44.12898" lon="2.25898">
        <ele>359.6</ele>
        <time>2024-04-23T13:55:32.000Z</time>
      </trkpt>
      <trkpt lat="44.12889" lon="2.25901">
        <ele>360.9</ele>
        <time>2024-04-23T13:55:41.000Z</time>
      </trkpt>
      <trkpt lat="44.12879" lon="2.25905">
        <ele>363</ele>
        <time>2024-04-23T13:55:52.000Z</time>
      </trkpt>
      <trkpt lat="44.12876" lon="2.25917">
        <ele>364.5</ele>
        <time>2024-04-23T13:56:04.000Z</time>
      </trkpt>
      <trkpt lat="44.12879" lon="2.25929">
        <ele>363.7</ele>
        <time>2024-04-23T13:56:15.000Z</time>
      </trkpt>
      <trkpt lat="44.12884" lon="2.25941">
        <ele>363</ele>
        <time>2024-04-23T13:56:27.000Z</time>
      </trkpt>
      <trkpt lat="44.12888" lon="2.25952">
        <ele>363.7</ele>
        <time>2024-04-23T13:56:41.000Z</time>
      </trkpt>
      <trkpt lat="44.12889" lon="2.25965">
        <ele>366.2</ele>
        <time>2024-04-23T13:56:55.000Z</time>
      </trkpt>
      <trkpt lat="44.12889" lon="2.25977">
        <ele>368.1</ele>
        <time>2024-04-23T13:57:10.000Z</time>
      </trkpt>
      <trkpt lat="44.12884" lon="2.25984">
        <ele>369</ele>
        <time>2024-04-23T13:57:23.000Z</time>
      </trkpt>
      <trkpt lat="44.12884" lon="2.25984">
        <ele>369.1</ele>
        <time>2024-04-23T13:57:24.000Z</time>
      </trkpt>
      <trkpt lat="44.12885" lon="2.25985">
        <ele>370.6</ele>
        <time>2024-04-23T13:57:35.000Z</time>
      </trkpt>
      <trkpt lat="44.12885" lon="2.25985">
        <ele>370.7</ele>
        <time>2024-04-23T13:57:36.000Z</time>
      </trkpt>
      <trkpt lat="44.12885" lon="2.25985">
        <ele>370.7</ele>
        <time>2024-04-23T13:57:37.000Z</time>
      </trkpt>
      <trkpt lat="44.12885" lon="2.25985">
        <ele>370.8</ele>
        <time>2024-04-23T13:57:38.000Z</time>
      </trkpt>
      <trkpt lat="44.12885" lon="2.25985">
        <ele>370.9</ele>
        <time>2024-04-23T13:57:39.000Z</time>
      </trkpt>
      <trkpt lat="44.12885" lon="2.25985">
        <ele>370.9</ele>
        <time>2024-04-23T13:57:40.000Z</time>
      </trkpt>
      <trkpt lat="44.12885" lon="2.25986">
        <ele>371.2</ele>
        <time>2024-04-23T13:57:46.000Z</time>
      </trkpt>
      <trkpt lat="44.12885" lon="2.25986">
        <ele>371.3</ele>
        <time>2024-04-23T13:57:47.000Z</time>
      </trkpt>
      <trkpt lat="44.12885" lon="2.25986">
        <ele>371.3</ele>
        <time>2024-04-23T13:57:48.000Z</time>
      </trkpt>
      <trkpt lat="44.12885" lon="2.25986">
        <ele>371.4</ele>
        <time>2024-04-23T13:57:49.000Z</time>
      </trkpt>
      <trkpt lat="44.12885" lon="2.25986">
        <ele>371.6</ele>
        <time>2024-04-23T13:57:55.000Z</time>
      </trkpt>
      <trkpt lat="44.12884" lon="2.25986">
        <ele>371.6</ele>
        <time>2024-04-23T13:57:56.000Z</time>
      </trkpt>
      <trkpt lat="44.12884" lon="2.25986">
        <ele>371.6</ele>
        <time>2024-04-23T13:57:57.000Z</time>
      </trkpt>
      <trkpt lat="44.12884" lon="2.25986">
        <ele>371.7</ele>
        <time>2024-04-23T13:58:01.000Z</time>
      </trkpt>
      <trkpt lat="44.12884" lon="2.25987">
        <ele>371.7</ele>
        <time>2024-04-23T13:58:02.000Z</time>
      </trkpt>
      <trkpt lat="44.12884" lon="2.25987">
        <ele>371.7</ele>
        <time>2024-04-23T13:58:03.000Z</time>
      </trkpt>
      <trkpt lat="44.12885" lon="2.2599">
        <ele>372.2</ele>
        <time>2024-04-23T13:58:48.000Z</time>
      </trkpt>
      <trkpt lat="44.12885" lon="2.2599">
        <ele>372.3</ele>
        <time>2024-04-23T13:58:49.000Z</time>
      </trkpt>
      <trkpt lat="44.12884" lon="2.2599">
        <ele>372.3</ele>
        <time>2024-04-23T13:58:50.000Z</time>
      </trkpt>
      <trkpt lat="44.12884" lon="2.25991">
        <ele>372.4</ele>
        <time>2024-04-23T13:58:51.000Z</time>
      </trkpt>
      <trkpt lat="44.12884" lon="2.25991">
        <ele>372.5</ele>
        <time>2024-04-23T13:58:52.000Z</time>
      </trkpt>
      <trkpt lat="44.12884" lon="2.25992">
        <ele>372.6</ele>
        <time>2024-04-23T13:58:53.000Z</time>
      </trkpt>
      <trkpt lat="44.12884" lon="2.25992">
        <ele>372.6</ele>
        <time>2024-04-23T13:58:54.000Z</time>
      </trkpt>
      <trkpt lat="44.12884" lon="2.25993">
        <ele>372.7</ele>
        <time>2024-04-23T13:58:55.000Z</time>
      </trkpt>
      <trkpt lat="44.12885" lon="2.25992">
        <ele>373.1</ele>
        <time>2024-04-23T13:58:59.000Z</time>
      </trkpt>
      <trkpt lat="44.12885" lon="2.25992">
        <ele>373.2</ele>
        <time>2024-04-23T13:59:00.000Z</time>
      </trkpt>
      <trkpt lat="44.12885" lon="2.25993">
        <ele>373.3</ele>
        <time>2024-04-23T13:59:01.000Z</time>
      </trkpt>
      <trkpt lat="44.12885" lon="2.25994">
        <ele>373.5</ele>
        <time>2024-04-23T13:59:02.000Z</time>
      </trkpt>
      <trkpt lat="44.12886" lon="2.25995">
        <ele>373.6</ele>
        <time>2024-04-23T13:59:03.000Z</time>
      </trkpt>
      <trkpt lat="44.12888" lon="2.26008">
        <ele>375.1</ele>
        <time>2024-04-23T13:59:16.000Z</time>
      </trkpt>
      <trkpt lat="44.12891" lon="2.26021">
        <ele>376.3</ele>
        <time>2024-04-23T13:59:28.000Z</time>
      </trkpt>
      <trkpt lat="44.12889" lon="2.26034">
        <ele>377.4</ele>
        <time>2024-04-23T13:59:41.000Z</time>
      </trkpt>
      <trkpt lat="44.1289" lon="2.26047">
        <ele>377.8</ele>
        <time>2024-04-23T13:59:55.000Z</time>
      </trkpt>
      <trkpt lat="44.12892" lon="2.2606">
        <ele>379</ele>
        <time>2024-04-23T14:00:09.000Z</time>
      </trkpt>
      <trkpt lat="44.12892" lon="2.26074">
        <ele>381.8</ele>
        <time>2024-04-23T14:00:22.000Z</time>
      </trkpt>
      <trkpt lat="44.1289" lon="2.26087">
        <ele>384.4</ele>
        <time>2024-04-23T14:00:36.000Z</time>
      </trkpt>
      <trkpt lat="44.1289" lon="2.261">
        <ele>386</ele>
        <time>2024-04-23T14:00:50.000Z</time>
      </trkpt>
      <trkpt lat="44.12892" lon="2.26113">
        <ele>388.3</ele>
        <time>2024-04-23T14:01:05.000Z</time>
      </trkpt>
      <trkpt lat="44.12896" lon="2.26124">
        <ele>390</ele>
        <time>2024-04-23T14:01:17.000Z</time>
      </trkpt>
      <trkpt lat="44.12898" lon="2.26137">
        <ele>390.9</ele>
        <time>2024-04-23T14:01:27.000Z</time>
      </trkpt>
      <trkpt lat="44.12899" lon="2.2615">
        <ele>392.2</ele>
        <time>2024-04-23T14:01:38.000Z</time>
      </trkpt>
      <trkpt lat="44.12903" lon="2.26162">
        <ele>393.7</ele>
        <time>2024-04-23T14:01:48.000Z</time>
      </trkpt>
      <trkpt lat="44.12906" lon="2.26175">
        <ele>394.1</ele>
        <time>2024-04-23T14:01:57.000Z</time>
      </trkpt>
      <trkpt lat="44.1291" lon="2.26188">
        <ele>394</ele>
        <time>2024-04-23T14:02:09.000Z</time>
      </trkpt>
      <trkpt lat="44.12914" lon="2.262">
        <ele>393.9</ele>
        <time>2024-04-23T14:02:18.000Z</time>
      </trkpt>
      <trkpt lat="44.12917" lon="2.26213">
        <ele>393.9</ele>
        <time>2024-04-23T14:02:27.000Z</time>
      </trkpt>
      <trkpt lat="44.12922" lon="2.26224">
        <ele>393.9</ele>
        <time>2024-04-23T14:02:38.000Z</time>
      </trkpt>
      <trkpt lat="44.12927" lon="2.26235">
        <ele>393.8</ele>
        <time>2024-04-23T14:02:50.000Z</time>
      </trkpt>
      <trkpt lat="44.12927" lon="2.26248">
        <ele>394.4</ele>
        <time>2024-04-23T14:03:01.000Z</time>
      </trkpt>
      <trkpt lat="44.12932" lon="2.26259">
        <ele>395.1</ele>
        <time>2024-04-23T14:03:10.000Z</time>
      </trkpt>
      <trkpt lat="44.12936" lon="2.26271">
        <ele>397.1</ele>
        <time>2024-04-23T14:03:19.000Z</time>
      </trkpt>
      <trkpt lat="44.12937" lon="2.26284">
        <ele>398.4</ele>
        <time>2024-04-23T14:03:30.000Z</time>
      </trkpt>
      <trkpt lat="44.1294" lon="2.26297">
        <ele>399.1</ele>
        <time>2024-04-23T14:03:42.000Z</time>
      </trkpt>
      <trkpt lat="44.12942" lon="2.2631">
        <ele>399.4</ele>
        <time>2024-04-23T14:03:51.000Z</time>
      </trkpt>
      <trkpt lat="44.12944" lon="2.26322">
        <ele>400.3</ele>
        <time>2024-04-23T14:04:02.000Z</time>
      </trkpt>
      <trkpt lat="44.12943" lon="2.26335">
        <ele>401.5</ele>
        <time>2024-04-23T14:04:10.000Z</time>
      </trkpt>
      <trkpt lat="44.12944" lon="2.26348">
        <ele>403.8</ele>
        <time>2024-04-23T14:04:25.000Z</time>
      </trkpt>
      <trkpt lat="44.12945" lon="2.26361">
        <ele>403.5</ele>
        <time>2024-04-23T14:04:35.000Z</time>
      </trkpt>
      <trkpt lat="44.12944" lon="2.26374">
        <ele>403.2</ele>
        <time>2024-04-23T14:04:45.000Z</time>
      </trkpt>
      <trkpt lat="44.12943" lon="2.26387">
        <ele>403.3</ele>
        <time>2024-04-23T14:04:56.000Z</time>
      </trkpt>
      <trkpt lat="44.12942" lon="2.26393">
        <ele>404.3</ele>
        <time>2024-04-23T14:05:09.000Z</time>
      </trkpt>
      <trkpt lat="44.12942" lon="2.26393">
        <ele>404.4</ele>
        <time>2024-04-23T14:05:10.000Z</time>
      </trkpt>
      <trkpt lat="44.12942" lon="2.26393">
        <ele>404.7</ele>
        <time>2024-04-23T14:05:16.000Z</time>
      </trkpt>
      <trkpt lat="44.12943" lon="2.26394">
        <ele>404.7</ele>
        <time>2024-04-23T14:05:17.000Z</time>
      </trkpt>
      <trkpt lat="44.12945" lon="2.26406">
        <ele>404.4</ele>
        <time>2024-04-23T14:05:29.000Z</time>
      </trkpt>
      <trkpt lat="44.12947" lon="2.26419">
        <ele>404.1</ele>
        <time>2024-04-23T14:05:43.000Z</time>
      </trkpt>
      <trkpt lat="44.1295" lon="2.26432">
        <ele>404.2</ele>
        <time>2024-04-23T14:05:54.000Z</time>
      </trkpt>
      <trkpt lat="44.12953" lon="2.26443">
        <ele>403.7</ele>
        <time>2024-04-23T14:06:06.000Z</time>
      </trkpt>
      <trkpt lat="44.12953" lon="2.26445">
        <ele>403.7</ele>
        <time>2024-04-23T14:06:07.000Z</time>
      </trkpt>
      <trkpt lat="44.12954" lon="2.26446">
        <ele>403.6</ele>
        <time>2024-04-23T14:06:08.000Z</time>
      </trkpt>
      <trkpt lat="44.12954" lon="2.26447">
        <ele>403.6</ele>
        <time>2024-04-23T14:06:09.000Z</time>
      </trkpt>
      <trkpt lat="44.12954" lon="2.26449">
        <ele>403.5</ele>
        <time>2024-04-23T14:06:10.000Z</time>
      </trkpt>
      <trkpt lat="44.12958" lon="2.26461">
        <ele>403.9</ele>
        <time>2024-04-23T14:06:20.000Z</time>
      </trkpt>
      <trkpt lat="44.12962" lon="2.26474">
        <ele>403.8</ele>
        <time>2024-04-23T14:06:29.000Z</time>
      </trkpt>
      <trkpt lat="44.12965" lon="2.26486">
        <ele>403.4</ele>
        <time>2024-04-23T14:06:39.000Z</time>
      </trkpt>
      <trkpt lat="44.12969" lon="2.26498">
        <ele>403.3</ele>
        <time>2024-04-23T14:06:48.000Z</time>
      </trkpt>
      <trkpt lat="44.12972" lon="2.26512">
        <ele>403.6</ele>
        <time>2024-04-23T14:06:57.000Z</time>
      </trkpt>
      <trkpt lat="44.12976" lon="2.26524">
        <ele>403.4</ele>
        <time>2024-04-23T14:07:05.000Z</time>
      </trkpt>
      <trkpt lat="44.12979" lon="2.26536">
        <ele>402.7</ele>
        <time>2024-04-23T14:07:14.000Z</time>
      </trkpt>
      <trkpt lat="44.12982" lon="2.26548">
        <ele>402.7</ele>
        <time>2024-04-23T14:07:22.000Z</time>
      </trkpt>
      <trkpt lat="44.12986" lon="2.2656">
        <ele>402.2</ele>
        <time>2024-04-23T14:07:32.000Z</time>
      </trkpt>
      <trkpt lat="44.12989" lon="2.26572">
        <ele>401.6</ele>
        <time>2024-04-23T14:07:42.000Z</time>
      </trkpt>
      <trkpt lat="44.1299" lon="2.26574">
        <ele>401.3</ele>
        <time>2024-04-23T14:07:58.000Z</time>
      </trkpt>
      <trkpt lat="44.1299" lon="2.26574">
        <ele>401.3</ele>
        <time>2024-04-23T14:07:59.000Z</time>
      </trkpt>
      <trkpt lat="44.1299" lon="2.26574">
        <ele>401.3</ele>
        <time>2024-04-23T14:08:00.000Z</time>
      </trkpt>
      <trkpt lat="44.1299" lon="2.26574">
        <ele>401.3</ele>
        <time>2024-04-23T14:08:04.000Z</time>
      </trkpt>
      <trkpt lat="44.1299" lon="2.26574">
        <ele>401.3</ele>
        <time>2024-04-23T14:08:05.000Z</time>
      </trkpt>
      <trkpt lat="44.12991" lon="2.26587">
        <ele>401.2</ele>
        <time>2024-04-23T14:08:24.000Z</time>
      </trkpt>
      <trkpt lat="44.12993" lon="2.26601">
        <ele>401.1</ele>
        <time>2024-04-23T14:08:31.000Z</time>
      </trkpt>
      <trkpt lat="44.12993" lon="2.26614">
        <ele>400.7</ele>
        <time>2024-04-23T14:08:37.000Z</time>
      </trkpt>
      <trkpt lat="44.12991" lon="2.26627">
        <ele>400.2</ele>
        <time>2024-04-23T14:08:44.000Z</time>
      </trkpt>
      <trkpt lat="44.12992" lon="2.2664">
        <ele>399.7</ele>
        <time>2024-04-23T14:08:52.000Z</time>
      </trkpt>
      <trkpt lat="44.1299" lon="2.26653">
        <ele>399.5</ele>
        <time>2024-04-23T14:08:59.000Z</time>
      </trkpt>
      <trkpt lat="44.12984" lon="2.26663">
        <ele>399.1</ele>
        <time>2024-04-23T14:09:07.000Z</time>
      </trkpt>
      <trkpt lat="44.12978" lon="2.26674">
        <ele>398.3</ele>
        <time>2024-04-23T14:09:14.000Z</time>
      </trkpt>
      <trkpt lat="44.12972" lon="2.26683">
        <ele>397.9</ele>
        <time>2024-04-23T14:09:21.000Z</time>
      </trkpt>
      <trkpt lat="44.12966" lon="2.26693">
        <ele>397.9</ele>
        <time>2024-04-23T14:09:28.000Z</time>
      </trkpt>
      <trkpt lat="44.12959" lon="2.26701">
        <ele>397.8</ele>
        <time>2024-04-23T14:09:36.000Z</time>
      </trkpt>
      <trkpt lat="44.1295" lon="2.26695">
        <ele>397.8</ele>
        <time>2024-04-23T14:09:44.000Z</time>
      </trkpt>
      <trkpt lat="44.12944" lon="2.26686">
        <ele>397.9</ele>
        <time>2024-04-23T14:09:51.000Z</time>
      </trkpt>
      <trkpt lat="44.12938" lon="2.26675">
        <ele>398</ele>
        <time>2024-04-23T14:09:59.000Z</time>
      </trkpt>
      <trkpt lat="44.12932" lon="2.26665">
        <ele>397.9</ele>
        <time>2024-04-23T14:10:07.000Z</time>
      </trkpt>
      <trkpt lat="44.12926" lon="2.26656">
        <ele>397.8</ele>
        <time>2024-04-23T14:10:16.000Z</time>
      </trkpt>
      <trkpt lat="44.1292" lon="2.26646">
        <ele>397.2</ele>
        <time>2024-04-23T14:10:25.000Z</time>
      </trkpt>
      <trkpt lat="44.12913" lon="2.26635">
        <ele>395.8</ele>
        <time>2024-04-23T14:10:34.000Z</time>
      </trkpt>
      <trkpt lat="44.12907" lon="2.26624">
        <ele>395.3</ele>
        <time>2024-04-23T14:10:43.000Z</time>
      </trkpt>
      <trkpt lat="44.12901" lon="2.26613">
        <ele>395</ele>
        <time>2024-04-23T14:10:53.000Z</time>
      </trkpt>
      <trkpt lat="44.12895" lon="2.26603">
        <ele>394.4</ele>
        <time>2024-04-23T14:11:03.000Z</time>
      </trkpt>
      <trkpt lat="44.12889" lon="2.26593">
        <ele>393.9</ele>
        <time>2024-04-23T14:11:11.000Z</time>
      </trkpt>
      <trkpt lat="44.12883" lon="2.26585">
        <ele>393.6</ele>
        <time>2024-04-23T14:11:20.000Z</time>
      </trkpt>
      <trkpt lat="44.12874" lon="2.26577">
        <ele>393.6</ele>
        <time>2024-04-23T14:11:28.000Z</time>
      </trkpt>
      <trkpt lat="44.12865" lon="2.26573">
        <ele>393.8</ele>
        <time>2024-04-23T14:11:37.000Z</time>
      </trkpt>
      <trkpt lat="44.12855" lon="2.26568">
        <ele>394.5</ele>
        <time>2024-04-23T14:11:45.000Z</time>
      </trkpt>
      <trkpt lat="44.12846" lon="2.26572">
        <ele>394.7</ele>
        <time>2024-04-23T14:11:56.000Z</time>
      </trkpt>
      <trkpt lat="44.12838" lon="2.26579">
        <ele>393.1</ele>
        <time>2024-04-23T14:12:05.000Z</time>
      </trkpt>
      <trkpt lat="44.12828" lon="2.26582">
        <ele>391.9</ele>
        <time>2024-04-23T14:12:11.000Z</time>
      </trkpt>
      <trkpt lat="44.12819" lon="2.26581">
        <ele>391.4</ele>
        <time>2024-04-23T14:12:18.000Z</time>
      </trkpt>
      <trkpt lat="44.12811" lon="2.26572">
        <ele>391.6</ele>
        <time>2024-04-23T14:12:27.000Z</time>
      </trkpt>
      <trkpt lat="44.12803" lon="2.26565">
        <ele>392.4</ele>
        <time>2024-04-23T14:12:37.000Z</time>
      </trkpt>
      <trkpt lat="44.12794" lon="2.26564">
        <ele>394.2</ele>
        <time>2024-04-23T14:12:49.000Z</time>
      </trkpt>
      <trkpt lat="44.12785" lon="2.2656">
        <ele>395.9</ele>
        <time>2024-04-23T14:13:02.000Z</time>
      </trkpt>
      <trkpt lat="44.12776" lon="2.26557">
        <ele>397.6</ele>
        <time>2024-04-23T14:13:15.000Z</time>
      </trkpt>
      <trkpt lat="44.12766" lon="2.26552">
        <ele>399.2</ele>
        <time>2024-04-23T14:13:25.000Z</time>
      </trkpt>
      <trkpt lat="44.12757" lon="2.26548">
        <ele>401.3</ele>
        <time>2024-04-23T14:13:37.000Z</time>
      </trkpt>
      <trkpt lat="44.12747" lon="2.26545">
        <ele>401.9</ele>
        <time>2024-04-23T14:13:47.000Z</time>
      </trkpt>
      <trkpt lat="44.12738" lon="2.26542">
        <ele>402.4</ele>
        <time>2024-04-23T14:13:55.000Z</time>
      </trkpt>
      <trkpt lat="44.12729" lon="2.26539">
        <ele>402.6</ele>
        <time>2024-04-23T14:14:04.000Z</time>
      </trkpt>
      <trkpt lat="44.12719" lon="2.26539">
        <ele>402.7</ele>
        <time>2024-04-23T14:14:12.000Z</time>
      </trkpt>
      <trkpt lat="44.12712" lon="2.26548">
        <ele>402.8</ele>
        <time>2024-04-23T14:14:21.000Z</time>
      </trkpt>
      <trkpt lat="44.12705" lon="2.26557">
        <ele>402.9</ele>
        <time>2024-04-23T14:14:28.000Z</time>
      </trkpt>
      <trkpt lat="44.127" lon="2.26569">
        <ele>403.4</ele>
        <time>2024-04-23T14:14:38.000Z</time>
      </trkpt>
      <trkpt lat="44.12693" lon="2.26578">
        <ele>403.8</ele>
        <time>2024-04-23T14:14:47.000Z</time>
      </trkpt>
      <trkpt lat="44.12686" lon="2.26588">
        <ele>404</ele>
        <time>2024-04-23T14:14:54.000Z</time>
      </trkpt>
      <trkpt lat="44.12678" lon="2.26597">
        <ele>404.1</ele>
        <time>2024-04-23T14:15:03.000Z</time>
      </trkpt>
      <trkpt lat="44.12671" lon="2.26606">
        <ele>404.1</ele>
        <time>2024-04-23T14:15:10.000Z</time>
      </trkpt>
      <trkpt lat="44.12662" lon="2.26611">
        <ele>403.9</ele>
        <time>2024-04-23T14:15:21.000Z</time>
      </trkpt>
      <trkpt lat="44.12653" lon="2.26617">
        <ele>403.8</ele>
        <time>2024-04-23T14:15:32.000Z</time>
      </trkpt>
      <trkpt lat="44.12647" lon="2.26626">
        <ele>403.7</ele>
        <time>2024-04-23T14:15:43.000Z</time>
      </trkpt>
      <trkpt lat="44.12642" lon="2.26638">
        <ele>403.7</ele>
        <time>2024-04-23T14:15:54.000Z</time>
      </trkpt>
      <trkpt lat="44.12635" lon="2.26649">
        <ele>404</ele>
        <time>2024-04-23T14:16:05.000Z</time>
      </trkpt>
      <trkpt lat="44.12626" lon="2.26654">
        <ele>404.2</ele>
        <time>2024-04-23T14:16:12.000Z</time>
      </trkpt>
      <trkpt lat="44.12617" lon="2.26658">
        <ele>404.3</ele>
        <time>2024-04-23T14:16:20.000Z</time>
      </trkpt>
      <trkpt lat="44.12608" lon="2.2666">
        <ele>404.3</ele>
        <time>2024-04-23T14:16:28.000Z</time>
      </trkpt>
      <trkpt lat="44.12598" lon="2.2666">
        <ele>404.2</ele>
        <time>2024-04-23T14:16:35.000Z</time>
      </trkpt>
      <trkpt lat="44.12589" lon="2.26661">
        <ele>404.3</ele>
        <time>2024-04-23T14:16:42.000Z</time>
      </trkpt>
      <trkpt lat="44.1258" lon="2.26664">
        <ele>404.5</ele>
        <time>2024-04-23T14:16:51.000Z</time>
      </trkpt>
      <trkpt lat="44.12576" lon="2.26665">
        <ele>404.7</ele>
        <time>2024-04-23T14:16:58.000Z</time>
      </trkpt>
      <trkpt lat="44.12576" lon="2.26665">
        <ele>404.7</ele>
        <time>2024-04-23T14:16:59.000Z</time>
      </trkpt>
      <trkpt lat="44.12576" lon="2.26665">
        <ele>404.7</ele>
        <time>2024-04-23T14:17:00.000Z</time>
      </trkpt>
      <trkpt lat="44.12575" lon="2.26666">
        <ele>404.7</ele>
        <time>2024-04-23T14:17:04.000Z</time>
      </trkpt>
      <trkpt lat="44.12574" lon="2.26667">
        <ele>404.8</ele>
        <time>2024-04-23T14:17:05.000Z</time>
      </trkpt>
      <trkpt lat="44.12565" lon="2.26673">
        <ele>405</ele>
        <time>2024-04-23T14:17:14.000Z</time>
      </trkpt>
      <trkpt lat="44.12555" lon="2.26675">
        <ele>405.8</ele>
        <time>2024-04-23T14:17:23.000Z</time>
      </trkpt>
      <trkpt lat="44.12546" lon="2.26679">
        <ele>407.9</ele>
        <time>2024-04-23T14:17:32.000Z</time>
      </trkpt>
      <trkpt lat="44.12537" lon="2.26682">
        <ele>409.5</ele>
        <time>2024-04-23T14:17:40.000Z</time>
      </trkpt>
      <trkpt lat="44.12529" lon="2.26688">
        <ele>411.1</ele>
        <time>2024-04-23T14:17:48.000Z</time>
      </trkpt>
      <trkpt lat="44.12521" lon="2.26696">
        <ele>411.8</ele>
        <time>2024-04-23T14:17:57.000Z</time>
      </trkpt>
      <trkpt lat="44.12515" lon="2.26706">
        <ele>412</ele>
        <time>2024-04-23T14:18:06.000Z</time>
      </trkpt>
      <trkpt lat="44.12508" lon="2.26715">
        <ele>412.2</ele>
        <time>2024-04-23T14:18:16.000Z</time>
      </trkpt>
      <trkpt lat="44.12499" lon="2.26721">
        <ele>413.2</ele>
        <time>2024-04-23T14:18:25.000Z</time>
      </trkpt>
      <trkpt lat="44.1249" lon="2.26723">
        <ele>413.8</ele>
        <time>2024-04-23T14:18:33.000Z</time>
      </trkpt>
      <trkpt lat="44.12481" lon="2.26721">
        <ele>414.3</ele>
        <time>2024-04-23T14:18:44.000Z</time>
      </trkpt>
      <trkpt lat="44.12472" lon="2.26717">
        <ele>415.2</ele>
        <time>2024-04-23T14:18:51.000Z</time>
      </trkpt>
      <trkpt lat="44.12463" lon="2.26713">
        <ele>416.6</ele>
        <time>2024-04-23T14:19:00.000Z</time>
      </trkpt>
      <trkpt lat="44.12454" lon="2.26707">
        <ele>417.9</ele>
        <time>2024-04-23T14:19:09.000Z</time>
      </trkpt>
      <trkpt lat="44.12446" lon="2.267">
        <ele>419.7</ele>
        <time>2024-04-23T14:19:19.000Z</time>
      </trkpt>
      <trkpt lat="44.12438" lon="2.26693">
        <ele>420.1</ele>
        <time>2024-04-23T14:19:29.000Z</time>
      </trkpt>
      <trkpt lat="44.12429" lon="2.26689">
        <ele>420.6</ele>
        <time>2024-04-23T14:19:41.000Z</time>
      </trkpt>
      <trkpt lat="44.12424" lon="2.26688">
        <ele>420.5</ele>
        <time>2024-04-23T14:19:51.000Z</time>
      </trkpt>
      <trkpt lat="44.12425" lon="2.26689">
        <ele>420.5</ele>
        <time>2024-04-23T14:19:52.000Z</time>
      </trkpt>
      <trkpt lat="44.12425" lon="2.26689">
        <ele>420.5</ele>
        <time>2024-04-23T14:19:53.000Z</time>
      </trkpt>
      <trkpt lat="44.12425" lon="2.26689">
        <ele>420.4</ele>
        <time>2024-04-23T14:19:54.000Z</time>
      </trkpt>
      <trkpt lat="44.12425" lon="2.26689">
        <ele>420.4</ele>
        <time>2024-04-23T14:19:55.000Z</time>
      </trkpt>
      <trkpt lat="44.12425" lon="2.26689">
        <ele>420.4</ele>
        <time>2024-04-23T14:19:56.000Z</time>
      </trkpt>
      <trkpt lat="44.12425" lon="2.26689">
        <ele>420.3</ele>
        <time>2024-04-23T14:19:57.000Z</time>
      </trkpt>
      <trkpt lat="44.12425" lon="2.26689">
        <ele>420.1</ele>
        <time>2024-04-23T14:20:06.000Z</time>
      </trkpt>
      <trkpt lat="44.12425" lon="2.26689">
        <ele>420.1</ele>
        <time>2024-04-23T14:20:07.000Z</time>
      </trkpt>
      <trkpt lat="44.12425" lon="2.2669">
        <ele>420</ele>
        <time>2024-04-23T14:20:08.000Z</time>
      </trkpt>
      <trkpt lat="44.12425" lon="2.26691">
        <ele>419.9</ele>
        <time>2024-04-23T14:20:11.000Z</time>
      </trkpt>
      <trkpt lat="44.12425" lon="2.26691">
        <ele>419.9</ele>
        <time>2024-04-23T14:20:12.000Z</time>
      </trkpt>
      <trkpt lat="44.12428" lon="2.26691">
        <ele>419.5</ele>
        <time>2024-04-23T14:20:20.000Z</time>
      </trkpt>
      <trkpt lat="44.12428" lon="2.26691">
        <ele>419.4</ele>
        <time>2024-04-23T14:20:21.000Z</time>
      </trkpt>
      <trkpt lat="44.12428" lon="2.26691">
        <ele>419.3</ele>
        <time>2024-04-23T14:20:22.000Z</time>
      </trkpt>
      <trkpt lat="44.12428" lon="2.26691">
        <ele>419</ele>
        <time>2024-04-23T14:20:26.000Z</time>
      </trkpt>
      <trkpt lat="44.12428" lon="2.26691">
        <ele>419</ele>
        <time>2024-04-23T14:20:27.000Z</time>
      </trkpt>
      <trkpt lat="44.12428" lon="2.26691">
        <ele>418.9</ele>
        <time>2024-04-23T14:20:28.000Z</time>
      </trkpt>
      <trkpt lat="44.12428" lon="2.26691">
        <ele>418</ele>
        <time>2024-04-23T14:21:01.000Z</time>
      </trkpt>
      <trkpt lat="44.12427" lon="2.26692">
        <ele>418</ele>
        <time>2024-04-23T14:21:02.000Z</time>
      </trkpt>
      <trkpt lat="44.12426" lon="2.26692">
        <ele>418</ele>
        <time>2024-04-23T14:21:03.000Z</time>
      </trkpt>
      <trkpt lat="44.12418" lon="2.26698">
        <ele>417.9</ele>
        <time>2024-04-23T14:21:11.000Z</time>
      </trkpt>
      <trkpt lat="44.12409" lon="2.26701">
        <ele>417.9</ele>
        <time>2024-04-23T14:21:19.000Z</time>
      </trkpt>
      <trkpt lat="44.12399" lon="2.26704">
        <ele>417.9</ele>
        <time>2024-04-23T14:21:27.000Z</time>
      </trkpt>
      <trkpt lat="44.1239" lon="2.26704">
        <ele>418</ele>
        <time>2024-04-23T14:21:33.000Z</time>
      </trkpt>
      <trkpt lat="44.12381" lon="2.26702">
        <ele>418.1</ele>
        <time>2024-04-23T14:21:40.000Z</time>
      </trkpt>
      <trkpt lat="44.12372" lon="2.26697">
        <ele>418.4</ele>
        <time>2024-04-23T14:21:46.000Z</time>
      </trkpt>
      <trkpt lat="44.12363" lon="2.26694">
        <ele>418.7</ele>
        <time>2024-04-23T14:21:53.000Z</time>
      </trkpt>
      <trkpt lat="44.12353" lon="2.26694">
        <ele>420.1</ele>
        <time>2024-04-23T14:22:01.000Z</time>
      </trkpt>
      <trkpt lat="44.12344" lon="2.26694">
        <ele>421.5</ele>
        <time>2024-04-23T14:22:08.000Z</time>
      </trkpt>
      <trkpt lat="44.12334" lon="2.26692">
        <ele>422.3</ele>
        <time>2024-04-23T14:22:15.000Z</time>
      </trkpt>
      <trkpt lat="44.12324" lon="2.26691">
        <ele>423.3</ele>
        <time>2024-04-23T14:22:23.000Z</time>
      </trkpt>
      <trkpt lat="44.12315" lon="2.26691">
        <ele>423.9</ele>
        <time>2024-04-23T14:22:31.000Z</time>
      </trkpt>
      <trkpt lat="44.12306" lon="2.26689">
        <ele>424.4</ele>
        <time>2024-04-23T14:22:38.000Z</time>
      </trkpt>
      <trkpt lat="44.12297" lon="2.26689">
        <ele>425.3</ele>
        <time>2024-04-23T14:22:45.000Z</time>
      </trkpt>
      <trkpt lat="44.12286" lon="2.26689">
        <ele>426.4</ele>
        <time>2024-04-23T14:22:53.000Z</time>
      </trkpt>
      <trkpt lat="44.12276" lon="2.2669">
        <ele>427.6</ele>
        <time>2024-04-23T14:23:00.000Z</time>
      </trkpt>
      <trkpt lat="44.12267" lon="2.2669">
        <ele>428.5</ele>
        <time>2024-04-23T14:23:07.000Z</time>
      </trkpt>
      <trkpt lat="44.12258" lon="2.26689">
        <ele>429.3</ele>
        <time>2024-04-23T14:23:14.000Z</time>
      </trkpt>
      <trkpt lat="44.12249" lon="2.26686">
        <ele>429.5</ele>
        <time>2024-04-23T14:23:22.000Z</time>
      </trkpt>
      <trkpt lat="44.1224" lon="2.26684">
        <ele>429.4</ele>
        <time>2024-04-23T14:23:28.000Z</time>
      </trkpt>
      <trkpt lat="44.12231" lon="2.26682">
        <ele>429.1</ele>
        <time>2024-04-23T14:23:36.000Z</time>
      </trkpt>
      <trkpt lat="44.12222" lon="2.26676">
        <ele>428.8</ele>
        <time>2024-04-23T14:23:42.000Z</time>
      </trkpt>
      <trkpt lat="44.12215" lon="2.26668">
        <ele>428.5</ele>
        <time>2024-04-23T14:23:48.000Z</time>
      </trkpt>
      <trkpt lat="44.12208" lon="2.2666">
        <ele>428.5</ele>
        <time>2024-04-23T14:23:55.000Z</time>
      </trkpt>
      <trkpt lat="44.12202" lon="2.26649">
        <ele>428.5</ele>
        <time>2024-04-23T14:24:02.000Z</time>
      </trkpt>
      <trkpt lat="44.12196" lon="2.26639">
        <ele>428.5</ele>
        <time>2024-04-23T14:24:09.000Z</time>
      </trkpt>
      <trkpt lat="44.12189" lon="2.26631">
        <ele>428.6</ele>
        <time>2024-04-23T14:24:15.000Z</time>
      </trkpt>
      <trkpt lat="44.12184" lon="2.2662">
        <ele>428.6</ele>
        <time>2024-04-23T14:24:21.000Z</time>
      </trkpt>
      <trkpt lat="44.12183" lon="2.26606">
        <ele>428.5</ele>
        <time>2024-04-23T14:24:27.000Z</time>
      </trkpt>
      <trkpt lat="44.12181" lon="2.26592">
        <ele>428.4</ele>
        <time>2024-04-23T14:24:33.000Z</time>
      </trkpt>
      <trkpt lat="44.12179" lon="2.26578">
        <ele>428.1</ele>
        <time>2024-04-23T14:24:40.000Z</time>
      </trkpt>
      <trkpt lat="44.12178" lon="2.26565">
        <ele>426.9</ele>
        <time>2024-04-23T14:24:47.000Z</time>
      </trkpt>
      <trkpt lat="44.12176" lon="2.26552">
        <ele>425.5</ele>
        <time>2024-04-23T14:24:53.000Z</time>
      </trkpt>
      <trkpt lat="44.12173" lon="2.26539">
        <ele>424.3</ele>
        <time>2024-04-23T14:25:00.000Z</time>
      </trkpt>
      <trkpt lat="44.1217" lon="2.26525">
        <ele>423.5</ele>
        <time>2024-04-23T14:25:07.000Z</time>
      </trkpt>
      <trkpt lat="44.12166" lon="2.26513">
        <ele>423</ele>
        <time>2024-04-23T14:25:14.000Z</time>
      </trkpt>
      <trkpt lat="44.12164" lon="2.26501">
        <ele>422.7</ele>
        <time>2024-04-23T14:25:21.000Z</time>
      </trkpt>
      <trkpt lat="44.12161" lon="2.26487">
        <ele>422.4</ele>
        <time>2024-04-23T14:25:29.000Z</time>
      </trkpt>
      <trkpt lat="44.12156" lon="2.26476">
        <ele>422.1</ele>
        <time>2024-04-23T14:25:35.000Z</time>
      </trkpt>
      <trkpt lat="44.1215" lon="2.26466">
        <ele>421.9</ele>
        <time>2024-04-23T14:25:41.000Z</time>
      </trkpt>
      <trkpt lat="44.12144" lon="2.26457">
        <ele>421.9</ele>
        <time>2024-04-23T14:25:46.000Z</time>
      </trkpt>
      <trkpt lat="44.12139" lon="2.26445">
        <ele>422</ele>
        <time>2024-04-23T14:25:53.000Z</time>
      </trkpt>
      <trkpt lat="44.12134" lon="2.26434">
        <ele>422</ele>
        <time>2024-04-23T14:25:59.000Z</time>
      </trkpt>
      <trkpt lat="44.1213" lon="2.26422">
        <ele>421.7</ele>
        <time>2024-04-23T14:26:09.000Z</time>
      </trkpt>
      <trkpt lat="44.12133" lon="2.26409">
        <ele>420.2</ele>
        <time>2024-04-23T14:26:17.000Z</time>
      </trkpt>
      <trkpt lat="44.1213" lon="2.26396">
        <ele>418.7</ele>
        <time>2024-04-23T14:26:27.000Z</time>
      </trkpt>
      <trkpt lat="44.12121" lon="2.26392">
        <ele>418.5</ele>
        <time>2024-04-23T14:26:35.000Z</time>
      </trkpt>
      <trkpt lat="44.12116" lon="2.26381">
        <ele>418.1</ele>
        <time>2024-04-23T14:26:44.000Z</time>
      </trkpt>
      <trkpt lat="44.12115" lon="2.26367">
        <ele>417.8</ele>
        <time>2024-04-23T14:26:51.000Z</time>
      </trkpt>
      <trkpt lat="44.12112" lon="2.26354">
        <ele>415.9</ele>
        <time>2024-04-23T14:27:01.000Z</time>
      </trkpt>
      <trkpt lat="44.12111" lon="2.26341">
        <ele>413.2</ele>
        <time>2024-04-23T14:27:10.000Z</time>
      </trkpt>
      <trkpt lat="44.12107" lon="2.26329">
        <ele>411.2</ele>
        <time>2024-04-23T14:27:20.000Z</time>
      </trkpt>
      <trkpt lat="44.12103" lon="2.26317">
        <ele>410.6</ele>
        <time>2024-04-23T14:27:29.000Z</time>
      </trkpt>
      <trkpt lat="44.12105" lon="2.26305">
        <ele>409.8</ele>
        <time>2024-04-23T14:27:40.000Z</time>
      </trkpt>
      <trkpt lat="44.12105" lon="2.26305">
        <ele>409.2</ele>
        <time>2024-04-23T14:27:44.000Z</time>
      </trkpt>
      <trkpt lat="44.12105" lon="2.26304">
        <ele>409.1</ele>
        <time>2024-04-23T14:27:45.000Z</time>
      </trkpt>
      <trkpt lat="44.12105" lon="2.26303">
        <ele>408.9</ele>
        <time>2024-04-23T14:27:46.000Z</time>
      </trkpt>
      <trkpt lat="44.12104" lon="2.26302">
        <ele>408.9</ele>
        <time>2024-04-23T14:27:47.000Z</time>
      </trkpt>
      <trkpt lat="44.12104" lon="2.26301">
        <ele>408.8</ele>
        <time>2024-04-23T14:27:48.000Z</time>
      </trkpt>
      <trkpt lat="44.12104" lon="2.263">
        <ele>408.4</ele>
        <time>2024-04-23T14:27:54.000Z</time>
      </trkpt>
      <trkpt lat="44.12104" lon="2.263">
        <ele>408.3</ele>
        <time>2024-04-23T14:27:55.000Z</time>
      </trkpt>
      <trkpt lat="44.12104" lon="2.263">
        <ele>408.3</ele>
        <time>2024-04-23T14:27:56.000Z</time>
      </trkpt>
      <trkpt lat="44.12104" lon="2.263">
        <ele>408.3</ele>
        <time>2024-04-23T14:27:57.000Z</time>
      </trkpt>
      <trkpt lat="44.12104" lon="2.263">
        <ele>408.3</ele>
        <time>2024-04-23T14:27:58.000Z</time>
      </trkpt>
      <trkpt lat="44.12103" lon="2.26299">
        <ele>408.2</ele>
        <time>2024-04-23T14:27:59.000Z</time>
      </trkpt>
      <trkpt lat="44.12103" lon="2.26298">
        <ele>408.2</ele>
        <time>2024-04-23T14:28:00.000Z</time>
      </trkpt>
      <trkpt lat="44.12104" lon="2.26296">
        <ele>408.2</ele>
        <time>2024-04-23T14:28:01.000Z</time>
      </trkpt>
      <trkpt lat="44.12104" lon="2.26294">
        <ele>408.2</ele>
        <time>2024-04-23T14:28:02.000Z</time>
      </trkpt>
      <trkpt lat="44.12106" lon="2.26288">
        <ele>407.9</ele>
        <time>2024-04-23T14:28:11.000Z</time>
      </trkpt>
      <trkpt lat="44.12106" lon="2.26287">
        <ele>407.8</ele>
        <time>2024-04-23T14:28:12.000Z</time>
      </trkpt>
      <trkpt lat="44.12105" lon="2.26286">
        <ele>407.8</ele>
        <time>2024-04-23T14:28:13.000Z</time>
      </trkpt>
      <trkpt lat="44.12105" lon="2.26285">
        <ele>407.7</ele>
        <time>2024-04-23T14:28:14.000Z</time>
      </trkpt>
      <trkpt lat="44.12101" lon="2.26272">
        <ele>407.2</ele>
        <time>2024-04-23T14:28:22.000Z</time>
      </trkpt>
      <trkpt lat="44.12098" lon="2.26259">
        <ele>406.6</ele>
        <time>2024-04-23T14:28:29.000Z</time>
      </trkpt>
      <trkpt lat="44.12093" lon="2.26248">
        <ele>406</ele>
        <time>2024-04-23T14:28:36.000Z</time>
      </trkpt>
      <trkpt lat="44.12088" lon="2.26236">
        <ele>405.5</ele>
        <time>2024-04-23T14:28:43.000Z</time>
      </trkpt>
      <trkpt lat="44.1208" lon="2.2623">
        <ele>405.3</ele>
        <time>2024-04-23T14:28:52.000Z</time>
      </trkpt>
      <trkpt lat="44.12071" lon="2.26224">
        <ele>405.3</ele>
        <time>2024-04-23T14:29:01.000Z</time>
      </trkpt>
      <trkpt lat="44.12065" lon="2.26214">
        <ele>405</ele>
        <time>2024-04-23T14:29:09.000Z</time>
      </trkpt>
      <trkpt lat="44.12063" lon="2.26201">
        <ele>404.3</ele>
        <time>2024-04-23T14:29:17.000Z</time>
      </trkpt>
      <trkpt lat="44.12065" lon="2.26189">
        <ele>403.8</ele>
        <time>2024-04-23T14:29:25.000Z</time>
      </trkpt>
      <trkpt lat="44.1207" lon="2.26177">
        <ele>403.5</ele>
        <time>2024-04-23T14:29:33.000Z</time>
      </trkpt>
      <trkpt lat="44.12068" lon="2.26165">
        <ele>403.4</ele>
        <time>2024-04-23T14:29:40.000Z</time>
      </trkpt>
      <trkpt lat="44.12066" lon="2.26151">
        <ele>403.3</ele>
        <time>2024-04-23T14:29:47.000Z</time>
      </trkpt>
      <trkpt lat="44.12065" lon="2.26138">
        <ele>403.3</ele>
        <time>2024-04-23T14:29:56.000Z</time>
      </trkpt>
      <trkpt lat="44.1206" lon="2.26127">
        <ele>403.4</ele>
        <time>2024-04-23T14:30:05.000Z</time>
      </trkpt>
      <trkpt lat="44.12064" lon="2.26115">
        <ele>403.3</ele>
        <time>2024-04-23T14:30:15.000Z</time>
      </trkpt>
      <trkpt lat="44.12067" lon="2.26102">
        <ele>402.6</ele>
        <time>2024-04-23T14:30:26.000Z</time>
      </trkpt>
      <trkpt lat="44.12063" lon="2.2609">
        <ele>401.5</ele>
        <time>2024-04-23T14:30:41.000Z</time>
      </trkpt>
      <trkpt lat="44.12063" lon="2.26091">
        <ele>401.4</ele>
        <time>2024-04-23T14:30:46.000Z</time>
      </trkpt>
      <trkpt lat="44.12063" lon="2.26091">
        <ele>401.4</ele>
        <time>2024-04-23T14:30:47.000Z</time>
      </trkpt>
      <trkpt lat="44.12063" lon="2.26091">
        <ele>401.4</ele>
        <time>2024-04-23T14:30:48.000Z</time>
      </trkpt>
      <trkpt lat="44.12064" lon="2.2609">
        <ele>401.3</ele>
        <time>2024-04-23T14:30:59.000Z</time>
      </trkpt>
      <trkpt lat="44.12064" lon="2.26089">
        <ele>401.2</ele>
        <time>2024-04-23T14:31:00.000Z</time>
      </trkpt>
      <trkpt lat="44.12064" lon="2.26082">
        <ele>401.1</ele>
        <time>2024-04-23T14:31:11.000Z</time>
      </trkpt>
      <trkpt lat="44.12065" lon="2.26082">
        <ele>401.1</ele>
        <time>2024-04-23T14:31:12.000Z</time>
      </trkpt>
      <trkpt lat="44.12065" lon="2.26082">
        <ele>401.1</ele>
        <time>2024-04-23T14:31:13.000Z</time>
      </trkpt>
      <trkpt lat="44.12064" lon="2.2608">
        <ele>401.1</ele>
        <time>2024-04-23T14:31:19.000Z</time>
      </trkpt>
      <trkpt lat="44.12064" lon="2.2608">
        <ele>401</ele>
        <time>2024-04-23T14:31:20.000Z</time>
      </trkpt>
      <trkpt lat="44.12065" lon="2.26071">
        <ele>401</ele>
        <time>2024-04-23T14:31:30.000Z</time>
      </trkpt>
      <trkpt lat="44.12065" lon="2.26071">
        <ele>400.9</ele>
        <time>2024-04-23T14:31:31.000Z</time>
      </trkpt>
      <trkpt lat="44.12066" lon="2.26071">
        <ele>400.9</ele>
        <time>2024-04-23T14:31:32.000Z</time>
      </trkpt>
      <trkpt lat="44.12067" lon="2.26069">
        <ele>400.9</ele>
        <time>2024-04-23T14:31:35.000Z</time>
      </trkpt>
      <trkpt lat="44.12066" lon="2.26068">
        <ele>400.9</ele>
        <time>2024-04-23T14:31:36.000Z</time>
      </trkpt>
      <trkpt lat="44.12066" lon="2.26067">
        <ele>400.9</ele>
        <time>2024-04-23T14:31:37.000Z</time>
      </trkpt>
      <trkpt lat="44.12071" lon="2.26056">
        <ele>401</ele>
        <time>2024-04-23T14:31:48.000Z</time>
      </trkpt>
      <trkpt lat="44.12068" lon="2.26044">
        <ele>401.4</ele>
        <time>2024-04-23T14:32:00.000Z</time>
      </trkpt>
      <trkpt lat="44.12069" lon="2.26031">
        <ele>401.9</ele>
        <time>2024-04-23T14:32:11.000Z</time>
      </trkpt>
      <trkpt lat="44.12072" lon="2.26018">
        <ele>401.9</ele>
        <time>2024-04-23T14:32:21.000Z</time>
      </trkpt>
      <trkpt lat="44.12066" lon="2.26009">
        <ele>401.9</ele>
        <time>2024-04-23T14:32:36.000Z</time>
      </trkpt>
      <trkpt lat="44.12064" lon="2.26008">
        <ele>402</ele>
        <time>2024-04-23T14:32:49.000Z</time>
      </trkpt>
      <trkpt lat="44.12064" lon="2.26008">
        <ele>402</ele>
        <time>2024-04-23T14:32:50.000Z</time>
      </trkpt>
      <trkpt lat="44.12064" lon="2.26006">
        <ele>402.5</ele>
        <time>2024-04-23T14:33:06.000Z</time>
      </trkpt>
      <trkpt lat="44.12064" lon="2.26006">
        <ele>402.6</ele>
        <time>2024-04-23T14:33:07.000Z</time>
      </trkpt>
      <trkpt lat="44.12064" lon="2.26006">
        <ele>402.6</ele>
        <time>2024-04-23T14:33:08.000Z</time>
      </trkpt>
      <trkpt lat="44.12064" lon="2.26006">
        <ele>402.6</ele>
        <time>2024-04-23T14:33:09.000Z</time>
      </trkpt>
      <trkpt lat="44.12064" lon="2.26006">
        <ele>402.6</ele>
        <time>2024-04-23T14:33:10.000Z</time>
      </trkpt>
      <trkpt lat="44.12062" lon="2.26006">
        <ele>403.6</ele>
        <time>2024-04-23T14:34:43.000Z</time>
      </trkpt>
      <trkpt lat="44.12063" lon="2.26006">
        <ele>403.6</ele>
        <time>2024-04-23T14:34:44.000Z</time>
      </trkpt>
      <trkpt lat="44.12063" lon="2.26006">
        <ele>403.6</ele>
        <time>2024-04-23T14:34:45.000Z</time>
      </trkpt>
      <trkpt lat="44.1207" lon="2.26008">
        <ele>403.5</ele>
        <time>2024-04-23T14:35:01.000Z</time>
      </trkpt>
      <trkpt lat="44.1207" lon="2.26007">
        <ele>403.5</ele>
        <time>2024-04-23T14:35:02.000Z</time>
      </trkpt>
      <trkpt lat="44.1207" lon="2.26007">
        <ele>403.5</ele>
        <time>2024-04-23T14:35:03.000Z</time>
      </trkpt>
      <trkpt lat="44.1207" lon="2.26006">
        <ele>403.4</ele>
        <time>2024-04-23T14:35:04.000Z</time>
      </trkpt>
      <trkpt lat="44.1207" lon="2.26005">
        <ele>403.4</ele>
        <time>2024-04-23T14:35:05.000Z</time>
      </trkpt>
      <trkpt lat="44.12072" lon="2.25992">
        <ele>403.1</ele>
        <time>2024-04-23T14:35:15.000Z</time>
      </trkpt>
      <trkpt lat="44.12078" lon="2.25982">
        <ele>402.5</ele>
        <time>2024-04-23T14:35:25.000Z</time>
      </trkpt>
      <trkpt lat="44.1208" lon="2.25978">
        <ele>401.5</ele>
        <time>2024-04-23T14:35:35.000Z</time>
      </trkpt>
      <trkpt lat="44.1208" lon="2.25978">
        <ele>401.5</ele>
        <time>2024-04-23T14:35:36.000Z</time>
      </trkpt>
      <trkpt lat="44.1208" lon="2.25978">
        <ele>401.4</ele>
        <time>2024-04-23T14:35:37.000Z</time>
      </trkpt>
      <trkpt lat="44.12081" lon="2.25976">
        <ele>401.3</ele>
        <time>2024-04-23T14:35:38.000Z</time>
      </trkpt>
      <trkpt lat="44.12081" lon="2.25975">
        <ele>401.3</ele>
        <time>2024-04-23T14:35:39.000Z</time>
      </trkpt>
      <trkpt lat="44.12078" lon="2.25961">
        <ele>401</ele>
        <time>2024-04-23T14:35:47.000Z</time>
      </trkpt>
      <trkpt lat="44.12076" lon="2.2595">
        <ele>401</ele>
        <time>2024-04-23T14:36:04.000Z</time>
      </trkpt>
      <trkpt lat="44.12076" lon="2.2595">
        <ele>401.1</ele>
        <time>2024-04-23T14:36:05.000Z</time>
      </trkpt>
      <trkpt lat="44.12076" lon="2.2595">
        <ele>401.1</ele>
        <time>2024-04-23T14:36:13.000Z</time>
      </trkpt>
      <trkpt lat="44.12076" lon="2.2595">
        <ele>401.1</ele>
        <time>2024-04-23T14:36:14.000Z</time>
      </trkpt>
      <trkpt lat="44.12076" lon="2.2595">
        <ele>401.1</ele>
        <time>2024-04-23T14:36:15.000Z</time>
      </trkpt>
      <trkpt lat="44.12076" lon="2.2595">
        <ele>401.1</ele>
        <time>2024-04-23T14:36:16.000Z</time>
      </trkpt>
      <trkpt lat="44.12076" lon="2.2595">
        <ele>401.1</ele>
        <time>2024-04-23T14:36:17.000Z</time>
      </trkpt>
      <trkpt lat="44.12076" lon="2.25951">
        <ele>401.1</ele>
        <time>2024-04-23T14:36:20.000Z</time>
      </trkpt>
      <trkpt lat="44.12076" lon="2.25951">
        <ele>401.1</ele>
        <time>2024-04-23T14:36:21.000Z</time>
      </trkpt>
      <trkpt lat="44.12076" lon="2.25951">
        <ele>401.1</ele>
        <time>2024-04-23T14:36:22.000Z</time>
      </trkpt>
      <trkpt lat="44.12076" lon="2.25951">
        <ele>401.1</ele>
        <time>2024-04-23T14:36:23.000Z</time>
      </trkpt>
      <trkpt lat="44.12076" lon="2.25951">
        <ele>401.1</ele>
        <time>2024-04-23T14:36:24.000Z</time>
      </trkpt>
      <trkpt lat="44.12076" lon="2.25951">
        <ele>401.1</ele>
        <time>2024-04-23T14:36:25.000Z</time>
      </trkpt>
      <trkpt lat="44.12076" lon="2.25951">
        <ele>401.1</ele>
        <time>2024-04-23T14:36:28.000Z</time>
      </trkpt>
      <trkpt lat="44.12076" lon="2.25951">
        <ele>401.1</ele>
        <time>2024-04-23T14:36:29.000Z</time>
      </trkpt>
      <trkpt lat="44.12076" lon="2.25951">
        <ele>401.1</ele>
        <time>2024-04-23T14:36:30.000Z</time>
      </trkpt>
      <trkpt lat="44.12076" lon="2.25951">
        <ele>401.1</ele>
        <time>2024-04-23T14:36:34.000Z</time>
      </trkpt>
      <trkpt lat="44.12076" lon="2.25951">
        <ele>401.1</ele>
        <time>2024-04-23T14:36:35.000Z</time>
      </trkpt>
      <trkpt lat="44.12076" lon="2.25951">
        <ele>400.9</ele>
        <time>2024-04-23T14:36:56.000Z</time>
      </trkpt>
      <trkpt lat="44.12076" lon="2.25951">
        <ele>400.9</ele>
        <time>2024-04-23T14:36:57.000Z</time>
      </trkpt>
      <trkpt lat="44.12076" lon="2.25951">
        <ele>400.9</ele>
        <time>2024-04-23T14:36:58.000Z</time>
      </trkpt>
      <trkpt lat="44.12076" lon="2.25951">
        <ele>400.9</ele>
        <time>2024-04-23T14:36:59.000Z</time>
      </trkpt>
      <trkpt lat="44.12076" lon="2.25951">
        <ele>400.9</ele>
        <time>2024-04-23T14:37:00.000Z</time>
      </trkpt>
      <trkpt lat="44.12076" lon="2.25951">
        <ele>400.8</ele>
        <time>2024-04-23T14:37:13.000Z</time>
      </trkpt>
      <trkpt lat="44.12076" lon="2.25951">
        <ele>400.8</ele>
        <time>2024-04-23T14:37:14.000Z</time>
      </trkpt>
      <trkpt lat="44.12079" lon="2.25949">
        <ele>400.7</ele>
        <time>2024-04-23T14:37:21.000Z</time>
      </trkpt>
      <trkpt lat="44.12079" lon="2.25949">
        <ele>400.7</ele>
        <time>2024-04-23T14:37:22.000Z</time>
      </trkpt>
      <trkpt lat="44.12079" lon="2.25949">
        <ele>400.7</ele>
        <time>2024-04-23T14:37:23.000Z</time>
      </trkpt>
      <trkpt lat="44.12079" lon="2.25949">
        <ele>400.6</ele>
        <time>2024-04-23T14:37:26.000Z</time>
      </trkpt>
      <trkpt lat="44.12079" lon="2.25949">
        <ele>400.6</ele>
        <time>2024-04-23T14:37:27.000Z</time>
      </trkpt>
      <trkpt lat="44.1208" lon="2.2595">
        <ele>400.6</ele>
        <time>2024-04-23T14:37:28.000Z</time>
      </trkpt>
      <trkpt lat="44.12084" lon="2.2595">
        <ele>399.8</ele>
        <time>2024-04-23T14:37:41.000Z</time>
      </trkpt>
      <trkpt lat="44.12084" lon="2.2595">
        <ele>399.8</ele>
        <time>2024-04-23T14:37:42.000Z</time>
      </trkpt>
      <trkpt lat="44.12084" lon="2.2595">
        <ele>399.4</ele>
        <time>2024-04-23T14:37:48.000Z</time>
      </trkpt>
      <trkpt lat="44.12084" lon="2.25949">
        <ele>399.3</ele>
        <time>2024-04-23T14:37:49.000Z</time>
      </trkpt>
      <trkpt lat="44.12084" lon="2.25949">
        <ele>399.3</ele>
        <time>2024-04-23T14:37:50.000Z</time>
      </trkpt>
      <trkpt lat="44.12091" lon="2.25939">
        <ele>398.4</ele>
        <time>2024-04-23T14:38:02.000Z</time>
      </trkpt>
      <trkpt lat="44.12093" lon="2.25927">
        <ele>397.6</ele>
        <time>2024-04-23T14:38:12.000Z</time>
      </trkpt>
      <trkpt lat="44.12097" lon="2.25916">
        <ele>396.5</ele>
        <time>2024-04-23T14:38:27.000Z</time>
      </trkpt>
      <trkpt lat="44.121" lon="2.25903">
        <ele>395.1</ele>
        <time>2024-04-23T14:38:40.000Z</time>
      </trkpt>
      <trkpt lat="44.12101" lon="2.2589">
        <ele>394.3</ele>
        <time>2024-04-23T14:38:49.000Z</time>
      </trkpt>
      <trkpt lat="44.12102" lon="2.25877">
        <ele>393.4</ele>
        <time>2024-04-23T14:38:59.000Z</time>
      </trkpt>
      <trkpt lat="44.12105" lon="2.25864">
        <ele>391.1</ele>
        <time>2024-04-23T14:39:14.000Z</time>
      </trkpt>
      <trkpt lat="44.12108" lon="2.25852">
        <ele>389.2</ele>
        <time>2024-04-23T14:39:25.000Z</time>
      </trkpt>
      <trkpt lat="44.12112" lon="2.2584">
        <ele>388.1</ele>
        <time>2024-04-23T14:39:35.000Z</time>
      </trkpt>
      <trkpt lat="44.12119" lon="2.25832">
        <ele>387.7</ele>
        <time>2024-04-23T14:39:44.000Z</time>
      </trkpt>
      <trkpt lat="44.12123" lon="2.2582">
        <ele>387.1</ele>
        <time>2024-04-23T14:39:52.000Z</time>
      </trkpt>
      <trkpt lat="44.1212" lon="2.25807">
        <ele>386.6</ele>
        <time>2024-04-23T14:40:00.000Z</time>
      </trkpt>
      <trkpt lat="44.12123" lon="2.25795">
        <ele>385.5</ele>
        <time>2024-04-23T14:40:12.000Z</time>
      </trkpt>
      <trkpt lat="44.12128" lon="2.25784">
        <ele>383.4</ele>
        <time>2024-04-23T14:40:25.000Z</time>
      </trkpt>
      <trkpt lat="44.12133" lon="2.25773">
        <ele>380.7</ele>
        <time>2024-04-23T14:40:39.000Z</time>
      </trkpt>
      <trkpt lat="44.12134" lon="2.2576">
        <ele>378.8</ele>
        <time>2024-04-23T14:40:49.000Z</time>
      </trkpt>
      <trkpt lat="44.12138" lon="2.25748">
        <ele>378</ele>
        <time>2024-04-23T14:40:57.000Z</time>
      </trkpt>
      <trkpt lat="44.12139" lon="2.25735">
        <ele>376.9</ele>
        <time>2024-04-23T14:41:05.000Z</time>
      </trkpt>
      <trkpt lat="44.1214" lon="2.25722">
        <ele>376.1</ele>
        <time>2024-04-23T14:41:13.000Z</time>
      </trkpt>
      <trkpt lat="44.12144" lon="2.2571">
        <ele>375.3</ele>
        <time>2024-04-23T14:41:21.000Z</time>
      </trkpt>
      <trkpt lat="44.12144" lon="2.25696">
        <ele>374.1</ele>
        <time>2024-04-23T14:41:33.000Z</time>
      </trkpt>
      <trkpt lat="44.12145" lon="2.25683">
        <ele>373.6</ele>
        <time>2024-04-23T14:41:42.000Z</time>
      </trkpt>
      <trkpt lat="44.12149" lon="2.25671">
        <ele>373.8</ele>
        <time>2024-04-23T14:41:53.000Z</time>
      </trkpt>
      <trkpt lat="44.12152" lon="2.25658">
        <ele>374.2</ele>
        <time>2024-04-23T14:42:03.000Z</time>
      </trkpt>
      <trkpt lat="44.12147" lon="2.25647">
        <ele>375.2</ele>
        <time>2024-04-23T14:42:13.000Z</time>
      </trkpt>
      <trkpt lat="44.12147" lon="2.25634">
        <ele>376.5</ele>
        <time>2024-04-23T14:42:31.000Z</time>
      </trkpt>
      <trkpt lat="44.12151" lon="2.25622">
        <ele>379.1</ele>
        <time>2024-04-23T14:42:48.000Z</time>
      </trkpt>
      <trkpt lat="44.12157" lon="2.25612">
        <ele>379.2</ele>
        <time>2024-04-23T14:42:56.000Z</time>
      </trkpt>
      <trkpt lat="44.12163" lon="2.25602">
        <ele>379</ele>
        <time>2024-04-23T14:43:07.000Z</time>
      </trkpt>
      <trkpt lat="44.12165" lon="2.25589">
        <ele>379</ele>
        <time>2024-04-23T14:43:17.000Z</time>
      </trkpt>
      <trkpt lat="44.12167" lon="2.25576">
        <ele>379</ele>
        <time>2024-04-23T14:43:28.000Z</time>
      </trkpt>
      <trkpt lat="44.12173" lon="2.25566">
        <ele>379</ele>
        <time>2024-04-23T14:43:37.000Z</time>
      </trkpt>
      <trkpt lat="44.12179" lon="2.25555">
        <ele>378.8</ele>
        <time>2024-04-23T14:43:48.000Z</time>
      </trkpt>
      <trkpt lat="44.12183" lon="2.25544">
        <ele>378.4</ele>
        <time>2024-04-23T14:43:57.000Z</time>
      </trkpt>
      <trkpt lat="44.12182" lon="2.25531">
        <ele>377.5</ele>
        <time>2024-04-23T14:44:07.000Z</time>
      </trkpt>
      <trkpt lat="44.12178" lon="2.2552">
        <ele>375.4</ele>
        <time>2024-04-23T14:44:23.000Z</time>
      </trkpt>
      <trkpt lat="44.12178" lon="2.25514">
        <ele>375</ele>
        <time>2024-04-23T14:44:34.000Z</time>
      </trkpt>
      <trkpt lat="44.12178" lon="2.25514">
        <ele>374.9</ele>
        <time>2024-04-23T14:44:35.000Z</time>
      </trkpt>
      <trkpt lat="44.12178" lon="2.25513">
        <ele>374.9</ele>
        <time>2024-04-23T14:44:38.000Z</time>
      </trkpt>
      <trkpt lat="44.12178" lon="2.25513">
        <ele>374.8</ele>
        <time>2024-04-23T14:44:39.000Z</time>
      </trkpt>
      <trkpt lat="44.1218" lon="2.25501">
        <ele>374.2</ele>
        <time>2024-04-23T14:45:01.000Z</time>
      </trkpt>
      <trkpt lat="44.12185" lon="2.2549">
        <ele>372.1</ele>
        <time>2024-04-23T14:45:17.000Z</time>
      </trkpt>
      <trkpt lat="44.12194" lon="2.2549">
        <ele>369.8</ele>
        <time>2024-04-23T14:45:26.000Z</time>
      </trkpt>
      <trkpt lat="44.12203" lon="2.25494">
        <ele>366.3</ele>
        <time>2024-04-23T14:45:37.000Z</time>
      </trkpt>
      <trkpt lat="44.12211" lon="2.25503">
        <ele>362.2</ele>
        <time>2024-04-23T14:45:47.000Z</time>
      </trkpt>
      <trkpt lat="44.12219" lon="2.2551">
        <ele>360.7</ele>
        <time>2024-04-23T14:45:57.000Z</time>
      </trkpt>
      <trkpt lat="44.12224" lon="2.25521">
        <ele>360</ele>
        <time>2024-04-23T14:46:06.000Z</time>
      </trkpt>
      <trkpt lat="44.12226" lon="2.25534">
        <ele>359.1</ele>
        <time>2024-04-23T14:46:15.000Z</time>
      </trkpt>
      <trkpt lat="44.12224" lon="2.25547">
        <ele>357.6</ele>
        <time>2024-04-23T14:46:26.000Z</time>
      </trkpt>
      <trkpt lat="44.12223" lon="2.25548">
        <ele>357.4</ele>
        <time>2024-04-23T14:46:28.000Z</time>
      </trkpt>
      <trkpt lat="44.12223" lon="2.25548">
        <ele>357.3</ele>
        <time>2024-04-23T14:46:29.000Z</time>
      </trkpt>
      <trkpt lat="44.12223" lon="2.25548">
        <ele>357.2</ele>
        <time>2024-04-23T14:46:30.000Z</time>
      </trkpt>
      <trkpt lat="44.12223" lon="2.2555">
        <ele>356.9</ele>
        <time>2024-04-23T14:46:34.000Z</time>
      </trkpt>
      <trkpt lat="44.12223" lon="2.25551">
        <ele>356.8</ele>
        <time>2024-04-23T14:46:35.000Z</time>
      </trkpt>
      <trkpt lat="44.12221" lon="2.25564">
        <ele>354.7</ele>
        <time>2024-04-23T14:46:48.000Z</time>
      </trkpt>
      <trkpt lat="44.12221" lon="2.25571">
        <ele>353.2</ele>
        <time>2024-04-23T14:46:58.000Z</time>
      </trkpt>
      <trkpt lat="44.12221" lon="2.25572">
        <ele>353.1</ele>
        <time>2024-04-23T14:46:59.000Z</time>
      </trkpt>
      <trkpt lat="44.12221" lon="2.25572">
        <ele>353</ele>
        <time>2024-04-23T14:47:00.000Z</time>
      </trkpt>
      <trkpt lat="44.12221" lon="2.25573">
        <ele>352.9</ele>
        <time>2024-04-23T14:47:01.000Z</time>
      </trkpt>
      <trkpt lat="44.12221" lon="2.25574">
        <ele>352.8</ele>
        <time>2024-04-23T14:47:02.000Z</time>
      </trkpt>
      <trkpt lat="44.12224" lon="2.25586">
        <ele>351.4</ele>
        <time>2024-04-23T14:47:17.000Z</time>
      </trkpt>
      <trkpt lat="44.12223" lon="2.25599">
        <ele>349</ele>
        <time>2024-04-23T14:47:35.000Z</time>
      </trkpt>
      <trkpt lat="44.12219" lon="2.2561">
        <ele>348</ele>
        <time>2024-04-23T14:47:59.000Z</time>
      </trkpt>
      <trkpt lat="44.12215" lon="2.25622">
        <ele>345</ele>
        <time>2024-04-23T14:48:13.000Z</time>
      </trkpt>
      <trkpt lat="44.12213" lon="2.25629">
        <ele>342.1</ele>
        <time>2024-04-23T14:48:23.000Z</time>
      </trkpt>
      <trkpt lat="44.12213" lon="2.25629">
        <ele>341.8</ele>
        <time>2024-04-23T14:48:24.000Z</time>
      </trkpt>
      <trkpt lat="44.12213" lon="2.2563">
        <ele>341.7</ele>
        <time>2024-04-23T14:48:25.000Z</time>
      </trkpt>
      <trkpt lat="44.12212" lon="2.25631">
        <ele>341.6</ele>
        <time>2024-04-23T14:48:26.000Z</time>
      </trkpt>
      <trkpt lat="44.12212" lon="2.25632">
        <ele>341.6</ele>
        <time>2024-04-23T14:48:27.000Z</time>
      </trkpt>
      <trkpt lat="44.12211" lon="2.25635">
        <ele>341.6</ele>
        <time>2024-04-23T14:48:33.000Z</time>
      </trkpt>
      <trkpt lat="44.12211" lon="2.25635">
        <ele>341.7</ele>
        <time>2024-04-23T14:48:34.000Z</time>
      </trkpt>
      <trkpt lat="44.12211" lon="2.25638">
        <ele>341.9</ele>
        <time>2024-04-23T14:48:38.000Z</time>
      </trkpt>
      <trkpt lat="44.12212" lon="2.25638">
        <ele>341.9</ele>
        <time>2024-04-23T14:48:39.000Z</time>
      </trkpt>
      <trkpt lat="44.12212" lon="2.25639">
        <ele>341.9</ele>
        <time>2024-04-23T14:48:40.000Z</time>
      </trkpt>
      <trkpt lat="44.12214" lon="2.25651">
        <ele>340.5</ele>
        <time>2024-04-23T14:49:02.000Z</time>
      </trkpt>
      <trkpt lat="44.12213" lon="2.25664">
        <ele>339</ele>
        <time>2024-04-23T14:49:21.000Z</time>
      </trkpt>
      <trkpt lat="44.12213" lon="2.25677">
        <ele>338.5</ele>
        <time>2024-04-23T14:49:35.000Z</time>
      </trkpt>
      <trkpt lat="44.12212" lon="2.2569">
        <ele>338.2</ele>
        <time>2024-04-23T14:49:43.000Z</time>
      </trkpt>
      <trkpt lat="44.12214" lon="2.25702">
        <ele>337.8</ele>
        <time>2024-04-23T14:49:51.000Z</time>
      </trkpt>
      <trkpt lat="44.12212" lon="2.25715">
        <ele>337.3</ele>
        <time>2024-04-23T14:50:01.000Z</time>
      </trkpt>
      <trkpt lat="44.12212" lon="2.25728">
        <ele>336.4</ele>
        <time>2024-04-23T14:50:11.000Z</time>
      </trkpt>
      <trkpt lat="44.12211" lon="2.25729">
        <ele>335.9</ele>
        <time>2024-04-23T14:50:15.000Z</time>
      </trkpt>
      <trkpt lat="44.12211" lon="2.25729">
        <ele>335.8</ele>
        <time>2024-04-23T14:50:16.000Z</time>
      </trkpt>
      <trkpt lat="44.12211" lon="2.25729">
        <ele>335.7</ele>
        <time>2024-04-23T14:50:17.000Z</time>
      </trkpt>
      <trkpt lat="44.1221" lon="2.25732">
        <ele>335.5</ele>
        <time>2024-04-23T14:50:21.000Z</time>
      </trkpt>
      <trkpt lat="44.12209" lon="2.25734">
        <ele>335.4</ele>
        <time>2024-04-23T14:50:22.000Z</time>
      </trkpt>
      <trkpt lat="44.12207" lon="2.25746">
        <ele>334.7</ele>
        <time>2024-04-23T14:50:33.000Z</time>
      </trkpt>
      <trkpt lat="44.12208" lon="2.25748">
        <ele>334.8</ele>
        <time>2024-04-23T14:50:39.000Z</time>
      </trkpt>
      <trkpt lat="44.12208" lon="2.25748">
        <ele>334.9</ele>
        <time>2024-04-23T14:50:40.000Z</time>
      </trkpt>
      <trkpt lat="44.12209" lon="2.2575">
        <ele>335</ele>
        <time>2024-04-23T14:50:44.000Z</time>
      </trkpt>
      <trkpt lat="44.12209" lon="2.25751">
        <ele>335</ele>
        <time>2024-04-23T14:50:45.000Z</time>
      </trkpt>
      <trkpt lat="44.12208" lon="2.25757">
        <ele>335.1</ele>
        <time>2024-04-23T14:50:58.000Z</time>
      </trkpt>
      <trkpt lat="44.12208" lon="2.25757">
        <ele>335.1</ele>
        <time>2024-04-23T14:50:59.000Z</time>
      </trkpt>
      <trkpt lat="44.12208" lon="2.25757">
        <ele>335</ele>
        <time>2024-04-23T14:51:00.000Z</time>
      </trkpt>
      <trkpt lat="44.12208" lon="2.25757">
        <ele>335</ele>
        <time>2024-04-23T14:51:01.000Z</time>
      </trkpt>
      <trkpt lat="44.12208" lon="2.25757">
        <ele>335</ele>
        <time>2024-04-23T14:51:02.000Z</time>
      </trkpt>
      <trkpt lat="44.12207" lon="2.2576">
        <ele>335</ele>
        <time>2024-04-23T14:51:08.000Z</time>
      </trkpt>
      <trkpt lat="44.12206" lon="2.25761">
        <ele>335</ele>
        <time>2024-04-23T14:51:09.000Z</time>
      </trkpt>
      <trkpt lat="44.12207" lon="2.25761">
        <ele>335</ele>
        <time>2024-04-23T14:51:10.000Z</time>
      </trkpt>
      <trkpt lat="44.12206" lon="2.25762">
        <ele>335</ele>
        <time>2024-04-23T14:51:11.000Z</time>
      </trkpt>
      <trkpt lat="44.12206" lon="2.25762">
        <ele>335</ele>
        <time>2024-04-23T14:51:12.000Z</time>
      </trkpt>
      <trkpt lat="44.12206" lon="2.25762">
        <ele>335</ele>
        <time>2024-04-23T14:51:13.000Z</time>
      </trkpt>
      <trkpt lat="44.12206" lon="2.25763">
        <ele>335</ele>
        <time>2024-04-23T14:51:14.000Z</time>
      </trkpt>
      <trkpt lat="44.12206" lon="2.25763">
        <ele>335.1</ele>
        <time>2024-04-23T14:51:18.000Z</time>
      </trkpt>
      <trkpt lat="44.12206" lon="2.25764">
        <ele>335.1</ele>
        <time>2024-04-23T14:51:19.000Z</time>
      </trkpt>
      <trkpt lat="44.12208" lon="2.25776">
        <ele>334.1</ele>
        <time>2024-04-23T14:51:40.000Z</time>
      </trkpt>
      <trkpt lat="44.12214" lon="2.25787">
        <ele>330.4</ele>
        <time>2024-04-23T14:51:50.000Z</time>
      </trkpt>
      <trkpt lat="44.12217" lon="2.25799">
        <ele>326.9</ele>
        <time>2024-04-23T14:52:05.000Z</time>
      </trkpt>
      <trkpt lat="44.12214" lon="2.25805">
        <ele>326.4</ele>
        <time>2024-04-23T14:52:20.000Z</time>
      </trkpt>
      <trkpt lat="44.12214" lon="2.25805">
        <ele>326.4</ele>
        <time>2024-04-23T14:52:21.000Z</time>
      </trkpt>
      <trkpt lat="44.12214" lon="2.25805">
        <ele>326.3</ele>
        <time>2024-04-23T14:52:22.000Z</time>
      </trkpt>
      <trkpt lat="44.12214" lon="2.25805">
        <ele>326.3</ele>
        <time>2024-04-23T14:52:23.000Z</time>
      </trkpt>
      <trkpt lat="44.12214" lon="2.25805">
        <ele>326.3</ele>
        <time>2024-04-23T14:52:24.000Z</time>
      </trkpt>
      <trkpt lat="44.12214" lon="2.25806">
        <ele>326.3</ele>
        <time>2024-04-23T14:52:25.000Z</time>
      </trkpt>
      <trkpt lat="44.12213" lon="2.25807">
        <ele>326.5</ele>
        <time>2024-04-23T14:52:33.000Z</time>
      </trkpt>
      <trkpt lat="44.12213" lon="2.25807">
        <ele>326.5</ele>
        <time>2024-04-23T14:52:34.000Z</time>
      </trkpt>
      <trkpt lat="44.12213" lon="2.25807">
        <ele>326.5</ele>
        <time>2024-04-23T14:52:35.000Z</time>
      </trkpt>
      <trkpt lat="44.12213" lon="2.25807">
        <ele>326.5</ele>
        <time>2024-04-23T14:52:36.000Z</time>
      </trkpt>
      <trkpt lat="44.12213" lon="2.25807">
        <ele>326.5</ele>
        <time>2024-04-23T14:52:37.000Z</time>
      </trkpt>
      <trkpt lat="44.12213" lon="2.25807">
        <ele>326.5</ele>
        <time>2024-04-23T14:52:38.000Z</time>
      </trkpt>
      <trkpt lat="44.12213" lon="2.25807">
        <ele>326.6</ele>
        <time>2024-04-23T14:52:39.000Z</time>
      </trkpt>
      <trkpt lat="44.12212" lon="2.25807">
        <ele>326.6</ele>
        <time>2024-04-23T14:52:43.000Z</time>
      </trkpt>
      <trkpt lat="44.12212" lon="2.25808">
        <ele>326.6</ele>
        <time>2024-04-23T14:52:44.000Z</time>
      </trkpt>
      <trkpt lat="44.12212" lon="2.25808">
        <ele>326.7</ele>
        <time>2024-04-23T14:52:51.000Z</time>
      </trkpt>
      <trkpt lat="44.12212" lon="2.25808">
        <ele>326.7</ele>
        <time>2024-04-23T14:52:52.000Z</time>
      </trkpt>
      <trkpt lat="44.12212" lon="2.25808">
        <ele>326.7</ele>
        <time>2024-04-23T14:52:53.000Z</time>
      </trkpt>
      <trkpt lat="44.12211" lon="2.25809">
        <ele>326.8</ele>
        <time>2024-04-23T14:53:03.000Z</time>
      </trkpt>
      <trkpt lat="44.12211" lon="2.25809">
        <ele>326.8</ele>
        <time>2024-04-23T14:53:04.000Z</time>
      </trkpt>
      <trkpt lat="44.12211" lon="2.25809">
        <ele>326.8</ele>
        <time>2024-04-23T14:53:05.000Z</time>
      </trkpt>
      <trkpt lat="44.12208" lon="2.25822">
        <ele>327</ele>
        <time>2024-04-23T14:53:17.000Z</time>
      </trkpt>
      <trkpt lat="44.12204" lon="2.25834">
        <ele>327.4</ele>
        <time>2024-04-23T14:53:27.000Z</time>
      </trkpt>
      <trkpt lat="44.12203" lon="2.25847">
        <ele>328.3</ele>
        <time>2024-04-23T14:53:40.000Z</time>
      </trkpt>
      <trkpt lat="44.12202" lon="2.2586">
        <ele>328.4</ele>
        <time>2024-04-23T14:53:54.000Z</time>
      </trkpt>
      <trkpt lat="44.12199" lon="2.25873">
        <ele>328.8</ele>
        <time>2024-04-23T14:54:07.000Z</time>
      </trkpt>
      <trkpt lat="44.12194" lon="2.25884">
        <ele>329</ele>
        <time>2024-04-23T14:54:19.000Z</time>
      </trkpt>
      <trkpt lat="44.12194" lon="2.25898">
        <ele>329.5</ele>
        <time>2024-04-23T14:54:30.000Z</time>
      </trkpt>
      <trkpt lat="44.12195" lon="2.25911">
        <ele>329.1</ele>
        <time>2024-04-23T14:54:45.000Z</time>
      </trkpt>
      <trkpt lat="44.12196" lon="2.25913">
        <ele>328.9</ele>
        <time>2024-04-23T14:54:56.000Z</time>
      </trkpt>
      <trkpt lat="44.12196" lon="2.25913">
        <ele>328.9</ele>
        <time>2024-04-23T14:54:57.000Z</time>
      </trkpt>
      <trkpt lat="44.12196" lon="2.25914">
        <ele>328.9</ele>
        <time>2024-04-23T14:54:58.000Z</time>
      </trkpt>
      <trkpt lat="44.12196" lon="2.25915">
        <ele>328.8</ele>
        <time>2024-04-23T14:55:01.000Z</time>
      </trkpt>
      <trkpt lat="44.12196" lon="2.25915">
        <ele>328.7</ele>
        <time>2024-04-23T14:55:02.000Z</time>
      </trkpt>
      <trkpt lat="44.12196" lon="2.25915">
        <ele>328.7</ele>
        <time>2024-04-23T14:55:03.000Z</time>
      </trkpt>
      <trkpt lat="44.12196" lon="2.25916">
        <ele>328.5</ele>
        <time>2024-04-23T14:55:08.000Z</time>
      </trkpt>
      <trkpt lat="44.12196" lon="2.25916">
        <ele>328.4</ele>
        <time>2024-04-23T14:55:09.000Z</time>
      </trkpt>
      <trkpt lat="44.12196" lon="2.25916">
        <ele>328.2</ele>
        <time>2024-04-23T14:55:18.000Z</time>
      </trkpt>
      <trkpt lat="44.12196" lon="2.25916">
        <ele>328.2</ele>
        <time>2024-04-23T14:55:19.000Z</time>
      </trkpt>
      <trkpt lat="44.12195" lon="2.25929">
        <ele>328</ele>
        <time>2024-04-23T14:55:38.000Z</time>
      </trkpt>
      <trkpt lat="44.12199" lon="2.25941">
        <ele>326</ele>
        <time>2024-04-23T14:55:53.000Z</time>
      </trkpt>
      <trkpt lat="44.12199" lon="2.25954">
        <ele>323.6</ele>
        <time>2024-04-23T14:56:07.000Z</time>
      </trkpt>
      <trkpt lat="44.122" lon="2.25966">
        <ele>320.9</ele>
        <time>2024-04-23T14:56:30.000Z</time>
      </trkpt>
      <trkpt lat="44.12203" lon="2.25973">
        <ele>318.8</ele>
        <time>2024-04-23T14:56:56.000Z</time>
      </trkpt>
      <trkpt lat="44.12203" lon="2.25973">
        <ele>318.8</ele>
        <time>2024-04-23T14:56:57.000Z</time>
      </trkpt>
      <trkpt lat="44.12204" lon="2.25974">
        <ele>318.5</ele>
        <time>2024-04-23T14:57:06.000Z</time>
      </trkpt>
      <trkpt lat="44.12204" lon="2.25974">
        <ele>318.5</ele>
        <time>2024-04-23T14:57:07.000Z</time>
      </trkpt>
      <trkpt lat="44.12204" lon="2.25974">
        <ele>318.4</ele>
        <time>2024-04-23T14:57:08.000Z</time>
      </trkpt>
      <trkpt lat="44.12204" lon="2.25974">
        <ele>318.4</ele>
        <time>2024-04-23T14:57:09.000Z</time>
      </trkpt>
      <trkpt lat="44.12204" lon="2.25974">
        <ele>318.4</ele>
        <time>2024-04-23T14:57:10.000Z</time>
      </trkpt>
      <trkpt lat="44.12204" lon="2.25974">
        <ele>318.4</ele>
        <time>2024-04-23T14:57:11.000Z</time>
      </trkpt>
      <trkpt lat="44.12204" lon="2.25975">
        <ele>318.4</ele>
        <time>2024-04-23T14:57:12.000Z</time>
      </trkpt>
      <trkpt lat="44.12202" lon="2.25988">
        <ele>317.3</ele>
        <time>2024-04-23T14:57:36.000Z</time>
      </trkpt>
      <trkpt lat="44.12199" lon="2.26">
        <ele>317</ele>
        <time>2024-04-23T14:57:50.000Z</time>
      </trkpt>
      <trkpt lat="44.122" lon="2.26012">
        <ele>317.5</ele>
        <time>2024-04-23T14:57:59.000Z</time>
      </trkpt>
      <trkpt lat="44.12198" lon="2.26025">
        <ele>317.6</ele>
        <time>2024-04-23T14:58:07.000Z</time>
      </trkpt>
      <trkpt lat="44.12197" lon="2.26037">
        <ele>317.8</ele>
        <time>2024-04-23T14:58:16.000Z</time>
      </trkpt>
      <trkpt lat="44.12199" lon="2.2605">
        <ele>318.4</ele>
        <time>2024-04-23T14:58:25.000Z</time>
      </trkpt>
      <trkpt lat="44.12202" lon="2.26062">
        <ele>319.2</ele>
        <time>2024-04-23T14:58:36.000Z</time>
      </trkpt>
      <trkpt lat="44.12205" lon="2.26075">
        <ele>319.7</ele>
        <time>2024-04-23T14:58:45.000Z</time>
      </trkpt>
      <trkpt lat="44.12205" lon="2.26088">
        <ele>320</ele>
        <time>2024-04-23T14:58:53.000Z</time>
      </trkpt>
      <trkpt lat="44.12209" lon="2.26101">
        <ele>320</ele>
        <time>2024-04-23T14:59:05.000Z</time>
      </trkpt>
      <trkpt lat="44.12214" lon="2.26113">
        <ele>320</ele>
        <time>2024-04-23T14:59:14.000Z</time>
      </trkpt>
      <trkpt lat="44.12217" lon="2.261">
        <ele>319.3</ele>
        <time>2024-04-23T14:59:27.000Z</time>
      </trkpt>
      <trkpt lat="44.12221" lon="2.26089">
        <ele>317.8</ele>
        <time>2024-04-23T14:59:40.000Z</time>
      </trkpt>
      <trkpt lat="44.12222" lon="2.26076">
        <ele>316.4</ele>
        <time>2024-04-23T14:59:48.000Z</time>
      </trkpt>
      <trkpt lat="44.12222" lon="2.26063">
        <ele>315.5</ele>
        <time>2024-04-23T14:59:58.000Z</time>
      </trkpt>
      <trkpt lat="44.12231" lon="2.26063">
        <ele>313</ele>
        <time>2024-04-23T15:00:27.000Z</time>
      </trkpt>
      <trkpt lat="44.12238" lon="2.2607">
        <ele>311.2</ele>
        <time>2024-04-23T15:00:41.000Z</time>
      </trkpt>
      <trkpt lat="44.12241" lon="2.26083">
        <ele>307.3</ele>
        <time>2024-04-23T15:00:59.000Z</time>
      </trkpt>
      <trkpt lat="44.12246" lon="2.26093">
        <ele>303.2</ele>
        <time>2024-04-23T15:01:21.000Z</time>
      </trkpt>
      <trkpt lat="44.12252" lon="2.26104">
        <ele>301.5</ele>
        <time>2024-04-23T15:01:34.000Z</time>
      </trkpt>
      <trkpt lat="44.12254" lon="2.26108">
        <ele>300.9</ele>
        <time>2024-04-23T15:01:43.000Z</time>
      </trkpt>
      <trkpt lat="44.12254" lon="2.26108">
        <ele>300.9</ele>
        <time>2024-04-23T15:01:44.000Z</time>
      </trkpt>
      <trkpt lat="44.12253" lon="2.2611">
        <ele>300.5</ele>
        <time>2024-04-23T15:01:58.000Z</time>
      </trkpt>
      <trkpt lat="44.12253" lon="2.2611">
        <ele>300.5</ele>
        <time>2024-04-23T15:01:59.000Z</time>
      </trkpt>
      <trkpt lat="44.12253" lon="2.26111">
        <ele>300.4</ele>
        <time>2024-04-23T15:02:00.000Z</time>
      </trkpt>
      <trkpt lat="44.12253" lon="2.26111">
        <ele>300.4</ele>
        <time>2024-04-23T15:02:01.000Z</time>
      </trkpt>
      <trkpt lat="44.12253" lon="2.26111">
        <ele>300.3</ele>
        <time>2024-04-23T15:02:02.000Z</time>
      </trkpt>
      <trkpt lat="44.12254" lon="2.26112">
        <ele>300.1</ele>
        <time>2024-04-23T15:02:05.000Z</time>
      </trkpt>
      <trkpt lat="44.12254" lon="2.26112">
        <ele>300</ele>
        <time>2024-04-23T15:02:06.000Z</time>
      </trkpt>
      <trkpt lat="44.12255" lon="2.26112">
        <ele>300</ele>
        <time>2024-04-23T15:02:07.000Z</time>
      </trkpt>
      <trkpt lat="44.12256" lon="2.26126">
        <ele>299.7</ele>
        <time>2024-04-23T15:02:18.000Z</time>
      </trkpt>
      <trkpt lat="44.12252" lon="2.26137">
        <ele>299.8</ele>
        <time>2024-04-23T15:02:31.000Z</time>
      </trkpt>
      <trkpt lat="44.12255" lon="2.26149">
        <ele>300.1</ele>
        <time>2024-04-23T15:02:44.000Z</time>
      </trkpt>
      <trkpt lat="44.12257" lon="2.26157">
        <ele>300.1</ele>
        <time>2024-04-23T15:02:54.000Z</time>
      </trkpt>
      <trkpt lat="44.12258" lon="2.26157">
        <ele>300.1</ele>
        <time>2024-04-23T15:02:55.000Z</time>
      </trkpt>
      <trkpt lat="44.12259" lon="2.26158">
        <ele>300</ele>
        <time>2024-04-23T15:02:56.000Z</time>
      </trkpt>
      <trkpt lat="44.12259" lon="2.26159">
        <ele>300</ele>
        <time>2024-04-23T15:02:57.000Z</time>
      </trkpt>
      <trkpt lat="44.1226" lon="2.26172">
        <ele>300.2</ele>
        <time>2024-04-23T15:03:17.000Z</time>
      </trkpt>
      <trkpt lat="44.12266" lon="2.26184">
        <ele>300.3</ele>
        <time>2024-04-23T15:03:27.000Z</time>
      </trkpt>
      <trkpt lat="44.12271" lon="2.26196">
        <ele>300.2</ele>
        <time>2024-04-23T15:03:35.000Z</time>
      </trkpt>
      <trkpt lat="44.12276" lon="2.26207">
        <ele>300.1</ele>
        <time>2024-04-23T15:03:46.000Z</time>
      </trkpt>
      <trkpt lat="44.12277" lon="2.26207">
        <ele>300.1</ele>
        <time>2024-04-23T15:03:53.000Z</time>
      </trkpt>
      <trkpt lat="44.12277" lon="2.26207">
        <ele>300.1</ele>
        <time>2024-04-23T15:03:54.000Z</time>
      </trkpt>
      <trkpt lat="44.12277" lon="2.26208">
        <ele>300.1</ele>
        <time>2024-04-23T15:03:55.000Z</time>
      </trkpt>
      <trkpt lat="44.12277" lon="2.26208">
        <ele>300.2</ele>
        <time>2024-04-23T15:03:58.000Z</time>
      </trkpt>
      <trkpt lat="44.12278" lon="2.26208">
        <ele>300.2</ele>
        <time>2024-04-23T15:03:59.000Z</time>
      </trkpt>
      <trkpt lat="44.12278" lon="2.26195">
        <ele>300.4</ele>
        <time>2024-04-23T15:04:15.000Z</time>
      </trkpt>
      <trkpt lat="44.12283" lon="2.26183">
        <ele>299.2</ele>
        <time>2024-04-23T15:04:45.000Z</time>
      </trkpt>
      <trkpt lat="44.12285" lon="2.26171">
        <ele>299.1</ele>
        <time>2024-04-23T15:04:58.000Z</time>
      </trkpt>
      <trkpt lat="44.12289" lon="2.26159">
        <ele>298</ele>
        <time>2024-04-23T15:05:07.000Z</time>
      </trkpt>
      <trkpt lat="44.12289" lon="2.26152">
        <ele>296.6</ele>
        <time>2024-04-23T15:05:14.000Z</time>
      </trkpt>
      <trkpt lat="44.12289" lon="2.26152">
        <ele>296.4</ele>
        <time>2024-04-23T15:05:15.000Z</time>
      </trkpt>
      <trkpt lat="44.1229" lon="2.26151">
        <ele>295.7</ele>
        <time>2024-04-23T15:05:18.000Z</time>
      </trkpt>
      <trkpt lat="44.1229" lon="2.26151">
        <ele>295.5</ele>
        <time>2024-04-23T15:05:19.000Z</time>
      </trkpt>
      <trkpt lat="44.12291" lon="2.26164">
        <ele>292.6</ele>
        <time>2024-04-23T15:05:40.000Z</time>
      </trkpt>
      <trkpt lat="44.12295" lon="2.26172">
        <ele>292.3</ele>
        <time>2024-04-23T15:05:56.000Z</time>
      </trkpt>
      <trkpt lat="44.12294" lon="2.26172">
        <ele>292.3</ele>
        <time>2024-04-23T15:05:57.000Z</time>
      </trkpt>
      <trkpt lat="44.12294" lon="2.26171">
        <ele>292.4</ele>
        <time>2024-04-23T15:05:58.000Z</time>
      </trkpt>
      <trkpt lat="44.12294" lon="2.26171">
        <ele>292.4</ele>
        <time>2024-04-23T15:06:01.000Z</time>
      </trkpt>
      <trkpt lat="44.12295" lon="2.26171">
        <ele>292.5</ele>
        <time>2024-04-23T15:06:02.000Z</time>
      </trkpt>
      <trkpt lat="44.12296" lon="2.26171">
        <ele>292.6</ele>
        <time>2024-04-23T15:06:03.000Z</time>
      </trkpt>
      <trkpt lat="44.12296" lon="2.26171">
        <ele>292.7</ele>
        <time>2024-04-23T15:06:04.000Z</time>
      </trkpt>
      <trkpt lat="44.12297" lon="2.2617">
        <ele>292.8</ele>
        <time>2024-04-23T15:06:05.000Z</time>
      </trkpt>
      <trkpt lat="44.12297" lon="2.2617">
        <ele>292.8</ele>
        <time>2024-04-23T15:06:06.000Z</time>
      </trkpt>
      <trkpt lat="44.12298" lon="2.26171">
        <ele>292.9</ele>
        <time>2024-04-23T15:06:07.000Z</time>
      </trkpt>
      <trkpt lat="44.12298" lon="2.26171">
        <ele>293.2</ele>
        <time>2024-04-23T15:06:15.000Z</time>
      </trkpt>
      <trkpt lat="44.123" lon="2.2617">
        <ele>293.2</ele>
        <time>2024-04-23T15:06:16.000Z</time>
      </trkpt>
      <trkpt lat="44.123" lon="2.2617">
        <ele>293.2</ele>
        <time>2024-04-23T15:06:17.000Z</time>
      </trkpt>
      <trkpt lat="44.12301" lon="2.2617">
        <ele>293.1</ele>
        <time>2024-04-23T15:06:18.000Z</time>
      </trkpt>
      <trkpt lat="44.12301" lon="2.26169">
        <ele>293</ele>
        <time>2024-04-23T15:06:19.000Z</time>
      </trkpt>
      <trkpt lat="44.123" lon="2.2616">
        <ele>288.8</ele>
        <time>2024-04-23T15:06:40.000Z</time>
      </trkpt>
      <trkpt lat="44.123" lon="2.26159">
        <ele>288.8</ele>
        <time>2024-04-23T15:06:41.000Z</time>
      </trkpt>
      <trkpt lat="44.12301" lon="2.2616">
        <ele>288.8</ele>
        <time>2024-04-23T15:06:42.000Z</time>
      </trkpt>
      <trkpt lat="44.12303" lon="2.2616">
        <ele>288.8</ele>
        <time>2024-04-23T15:06:48.000Z</time>
      </trkpt>
      <trkpt lat="44.12304" lon="2.26161">
        <ele>288.8</ele>
        <time>2024-04-23T15:06:49.000Z</time>
      </trkpt>
      <trkpt lat="44.12307" lon="2.26165">
        <ele>288.4</ele>
        <time>2024-04-23T15:07:01.000Z</time>
      </trkpt>
      <trkpt lat="44.12307" lon="2.26165">
        <ele>288.3</ele>
        <time>2024-04-23T15:07:02.000Z</time>
      </trkpt>
      <trkpt lat="44.12307" lon="2.26165">
        <ele>288.3</ele>
        <time>2024-04-23T15:07:03.000Z</time>
      </trkpt>
      <trkpt lat="44.12307" lon="2.26165">
        <ele>287.8</ele>
        <time>2024-04-23T15:07:16.000Z</time>
      </trkpt>
      <trkpt lat="44.12306" lon="2.26166">
        <ele>287.8</ele>
        <time>2024-04-23T15:07:17.000Z</time>
      </trkpt>
      <trkpt lat="44.12305" lon="2.26165">
        <ele>287.6</ele>
        <time>2024-04-23T15:07:18.000Z</time>
      </trkpt>
      <trkpt lat="44.12297" lon="2.26159">
        <ele>285.6</ele>
        <time>2024-04-23T15:07:29.000Z</time>
      </trkpt>
      <trkpt lat="44.12297" lon="2.26159">
        <ele>285.4</ele>
        <time>2024-04-23T15:07:30.000Z</time>
      </trkpt>
      <trkpt lat="44.12297" lon="2.26159">
        <ele>285.1</ele>
        <time>2024-04-23T15:07:33.000Z</time>
      </trkpt>
      <trkpt lat="44.12297" lon="2.26159">
        <ele>285</ele>
        <time>2024-04-23T15:07:34.000Z</time>
      </trkpt>
      <trkpt lat="44.12297" lon="2.26159">
        <ele>285</ele>
        <time>2024-04-23T15:07:35.000Z</time>
      </trkpt>
      <trkpt lat="44.12297" lon="2.26159">
        <ele>284.9</ele>
        <time>2024-04-23T15:07:36.000Z</time>
      </trkpt>
      <trkpt lat="44.12297" lon="2.26159">
        <ele>284.8</ele>
        <time>2024-04-23T15:07:37.000Z</time>
      </trkpt>
      <trkpt lat="44.12299" lon="2.26158">
        <ele>284.1</ele>
        <time>2024-04-23T15:07:51.000Z</time>
      </trkpt>
      <trkpt lat="44.12299" lon="2.26158">
        <ele>284.1</ele>
        <time>2024-04-23T15:07:52.000Z</time>
      </trkpt>
      <trkpt lat="44.12299" lon="2.26159">
        <ele>284</ele>
        <time>2024-04-23T15:07:53.000Z</time>
      </trkpt>
      <trkpt lat="44.12299" lon="2.26159">
        <ele>283.9</ele>
        <time>2024-04-23T15:07:54.000Z</time>
      </trkpt>
      <trkpt lat="44.12298" lon="2.26159">
        <ele>283.8</ele>
        <time>2024-04-23T15:07:55.000Z</time>
      </trkpt>
      <trkpt lat="44.12298" lon="2.26158">
        <ele>283.7</ele>
        <time>2024-04-23T15:07:56.000Z</time>
      </trkpt>
      <trkpt lat="44.12298" lon="2.26157">
        <ele>283.6</ele>
        <time>2024-04-23T15:07:57.000Z</time>
      </trkpt>
      <trkpt lat="44.12298" lon="2.26152">
        <ele>282.1</ele>
        <time>2024-04-23T15:08:05.000Z</time>
      </trkpt>
      <trkpt lat="44.12297" lon="2.26152">
        <ele>281.9</ele>
        <time>2024-04-23T15:08:06.000Z</time>
      </trkpt>
      <trkpt lat="44.12297" lon="2.26151">
        <ele>281.7</ele>
        <time>2024-04-23T15:08:07.000Z</time>
      </trkpt>
      <trkpt lat="44.12297" lon="2.26152">
        <ele>281</ele>
        <time>2024-04-23T15:08:10.000Z</time>
      </trkpt>
      <trkpt lat="44.12297" lon="2.26152">
        <ele>280.8</ele>
        <time>2024-04-23T15:08:11.000Z</time>
      </trkpt>
      <trkpt lat="44.12297" lon="2.26152">
        <ele>280.6</ele>
        <time>2024-04-23T15:08:12.000Z</time>
      </trkpt>
      <trkpt lat="44.12297" lon="2.26152">
        <ele>280.4</ele>
        <time>2024-04-23T15:08:13.000Z</time>
      </trkpt>
      <trkpt lat="44.12297" lon="2.26152">
        <ele>280.3</ele>
        <time>2024-04-23T15:08:14.000Z</time>
      </trkpt>
      <trkpt lat="44.12297" lon="2.26152">
        <ele>280.2</ele>
        <time>2024-04-23T15:08:15.000Z</time>
      </trkpt>
      <trkpt lat="44.12297" lon="2.26151">
        <ele>278.3</ele>
        <time>2024-04-23T15:08:58.000Z</time>
      </trkpt>
      <trkpt lat="44.12297" lon="2.26151">
        <ele>278.3</ele>
        <time>2024-04-23T15:08:59.000Z</time>
      </trkpt>
      <trkpt lat="44.12297" lon="2.26151">
        <ele>278.3</ele>
        <time>2024-04-23T15:09:00.000Z</time>
      </trkpt>
      <trkpt lat="44.12297" lon="2.26151">
        <ele>278.3</ele>
        <time>2024-04-23T15:09:01.000Z</time>
      </trkpt>
      <trkpt lat="44.12297" lon="2.26151">
        <ele>278.2</ele>
        <time>2024-04-23T15:09:02.000Z</time>
      </trkpt>
      <trkpt lat="44.12295" lon="2.26152">
        <ele>278.1</ele>
        <time>2024-04-23T15:09:18.000Z</time>
      </trkpt>
      <trkpt lat="44.12296" lon="2.26152">
        <ele>278</ele>
        <time>2024-04-23T15:09:19.000Z</time>
      </trkpt>
      <trkpt lat="44.12296" lon="2.26152">
        <ele>278</ele>
        <time>2024-04-23T15:09:20.000Z</time>
      </trkpt>
      <trkpt lat="44.12296" lon="2.26153">
        <ele>278</ele>
        <time>2024-04-23T15:09:21.000Z</time>
      </trkpt>
      <trkpt lat="44.12296" lon="2.26153">
        <ele>278</ele>
        <time>2024-04-23T15:09:22.000Z</time>
      </trkpt>
      <trkpt lat="44.12294" lon="2.26153">
        <ele>278.1</ele>
        <time>2024-04-23T15:09:39.000Z</time>
      </trkpt>
      <trkpt lat="44.12294" lon="2.26153">
        <ele>278.1</ele>
        <time>2024-04-23T15:09:40.000Z</time>
      </trkpt>
      <trkpt lat="44.12294" lon="2.26154">
        <ele>278.1</ele>
        <time>2024-04-23T15:09:41.000Z</time>
      </trkpt>
      <trkpt lat="44.12294" lon="2.26154">
        <ele>278.1</ele>
        <time>2024-04-23T15:09:42.000Z</time>
      </trkpt>
      <trkpt lat="44.12294" lon="2.26154">
        <ele>278.1</ele>
        <time>2024-04-23T15:09:43.000Z</time>
      </trkpt>
      <trkpt lat="44.12294" lon="2.26154">
        <ele>278.1</ele>
        <time>2024-04-23T15:09:44.000Z</time>
      </trkpt>
      <trkpt lat="44.12294" lon="2.26154">
        <ele>278.1</ele>
        <time>2024-04-23T15:09:45.000Z</time>
      </trkpt>
      <trkpt lat="44.12294" lon="2.26154">
        <ele>278.1</ele>
        <time>2024-04-23T15:09:46.000Z</time>
      </trkpt>
      <trkpt lat="44.12294" lon="2.26154">
        <ele>278.1</ele>
        <time>2024-04-23T15:09:47.000Z</time>
      </trkpt>
      <trkpt lat="44.12293" lon="2.26154">
        <ele>278</ele>
        <time>2024-04-23T15:10:03.000Z</time>
      </trkpt>
      <trkpt lat="44.12292" lon="2.26154">
        <ele>278</ele>
        <time>2024-04-23T15:10:04.000Z</time>
      </trkpt>
      <trkpt lat="44.12291" lon="2.26154">
        <ele>278</ele>
        <time>2024-04-23T15:10:05.000Z</time>
      </trkpt>
      <trkpt lat="44.12291" lon="2.26154">
        <ele>278</ele>
        <time>2024-04-23T15:10:06.000Z</time>
      </trkpt>
      <trkpt lat="44.12291" lon="2.26154">
        <ele>278.1</ele>
        <time>2024-04-23T15:10:07.000Z</time>
      </trkpt>
      <trkpt lat="44.12291" lon="2.26154">
        <ele>278.3</ele>
        <time>2024-04-23T15:10:21.000Z</time>
      </trkpt>
      <trkpt lat="44.12291" lon="2.26154">
        <ele>278.3</ele>
        <time>2024-04-23T15:10:22.000Z</time>
      </trkpt>
      <trkpt lat="44.12291" lon="2.26154">
        <ele>278.4</ele>
        <time>2024-04-23T15:10:23.000Z</time>
      </trkpt>
      <trkpt lat="44.12291" lon="2.26154">
        <ele>278.4</ele>
        <time>2024-04-23T15:10:24.000Z</time>
      </trkpt>
      <trkpt lat="44.12291" lon="2.26154">
        <ele>278.4</ele>
        <time>2024-04-23T15:10:25.000Z</time>
      </trkpt>
      <trkpt lat="44.1229" lon="2.26153">
        <ele>279.1</ele>
        <time>2024-04-23T15:11:01.000Z</time>
      </trkpt>
      <trkpt lat="44.12291" lon="2.26153">
        <ele>279.1</ele>
        <time>2024-04-23T15:11:02.000Z</time>
      </trkpt>
      <trkpt lat="44.12291" lon="2.26154">
        <ele>279.1</ele>
        <time>2024-04-23T15:11:03.000Z</time>
      </trkpt>
      <trkpt lat="44.12291" lon="2.26153">
        <ele>279.1</ele>
        <time>2024-04-23T15:11:04.000Z</time>
      </trkpt>
      <trkpt lat="44.12291" lon="2.26153">
        <ele>279.2</ele>
        <time>2024-04-23T15:11:05.000Z</time>
      </trkpt>
      <trkpt lat="44.12291" lon="2.26153">
        <ele>279.3</ele>
        <time>2024-04-23T15:11:10.000Z</time>
      </trkpt>
      <trkpt lat="44.12291" lon="2.26153">
        <ele>279.4</ele>
        <time>2024-04-23T15:11:11.000Z</time>
      </trkpt>
      <trkpt lat="44.12291" lon="2.26153">
        <ele>279.4</ele>
        <time>2024-04-23T15:11:12.000Z</time>
      </trkpt>
      <trkpt lat="44.12291" lon="2.26153">
        <ele>279.4</ele>
        <time>2024-04-23T15:11:13.000Z</time>
      </trkpt>
      <trkpt lat="44.12291" lon="2.26153">
        <ele>279.5</ele>
        <time>2024-04-23T15:11:14.000Z</time>
      </trkpt>
      <trkpt lat="44.12292" lon="2.26154">
        <ele>280.1</ele>
        <time>2024-04-23T15:11:33.000Z</time>
      </trkpt>
      <trkpt lat="44.12292" lon="2.26154">
        <ele>280.1</ele>
        <time>2024-04-23T15:11:34.000Z</time>
      </trkpt>
      <trkpt lat="44.12292" lon="2.26154">
        <ele>280.1</ele>
        <time>2024-04-23T15:11:35.000Z</time>
      </trkpt>
      <trkpt lat="44.12292" lon="2.26154">
        <ele>280.1</ele>
        <time>2024-04-23T15:11:36.000Z</time>
      </trkpt>
      <trkpt lat="44.12292" lon="2.26154">
        <ele>280.1</ele>
        <time>2024-04-23T15:11:37.000Z</time>
      </trkpt>
      <trkpt lat="44.12292" lon="2.26154">
        <ele>280.1</ele>
        <time>2024-04-23T15:11:38.000Z</time>
      </trkpt>
      <trkpt lat="44.12292" lon="2.26155">
        <ele>280.1</ele>
        <time>2024-04-23T15:11:39.000Z</time>
      </trkpt>
      <trkpt lat="44.12291" lon="2.26155">
        <ele>280.1</ele>
        <time>2024-04-23T15:11:40.000Z</time>
      </trkpt>
      <trkpt lat="44.12291" lon="2.26155">
        <ele>280.1</ele>
        <time>2024-04-23T15:11:41.000Z</time>
      </trkpt>
      <trkpt lat="44.12291" lon="2.26155">
        <ele>280.1</ele>
        <time>2024-04-23T15:11:42.000Z</time>
      </trkpt>
      <trkpt lat="44.12291" lon="2.26155">
        <ele>280.1</ele>
        <time>2024-04-23T15:11:48.000Z</time>
      </trkpt>
      <trkpt lat="44.12291" lon="2.26155">
        <ele>280.1</ele>
        <time>2024-04-23T15:11:49.000Z</time>
      </trkpt>
      <trkpt lat="44.12291" lon="2.26155">
        <ele>280.1</ele>
        <time>2024-04-23T15:11:50.000Z</time>
      </trkpt>
      <trkpt lat="44.12291" lon="2.26155">
        <ele>280.1</ele>
        <time>2024-04-23T15:11:51.000Z</time>
      </trkpt>
      <trkpt lat="44.12291" lon="2.26155">
        <ele>280.1</ele>
        <time>2024-04-23T15:11:52.000Z</time>
      </trkpt>
      <trkpt lat="44.12292" lon="2.26155">
        <ele>280.1</ele>
        <time>2024-04-23T15:11:56.000Z</time>
      </trkpt>
      <trkpt lat="44.12292" lon="2.26154">
        <ele>280.1</ele>
        <time>2024-04-23T15:11:57.000Z</time>
      </trkpt>
      <trkpt lat="44.12294" lon="2.26142">
        <ele>279.9</ele>
        <time>2024-04-23T15:12:09.000Z</time>
      </trkpt>
      <trkpt lat="44.12294" lon="2.26129">
        <ele>278.5</ele>
        <time>2024-04-23T15:12:22.000Z</time>
      </trkpt>
      <trkpt lat="44.12291" lon="2.26119">
        <ele>277.9</ele>
        <time>2024-04-23T15:12:34.000Z</time>
      </trkpt>
      <trkpt lat="44.12291" lon="2.26118">
        <ele>277.9</ele>
        <time>2024-04-23T15:12:35.000Z</time>
      </trkpt>
      <trkpt lat="44.12291" lon="2.26117">
        <ele>277.9</ele>
        <time>2024-04-23T15:12:37.000Z</time>
      </trkpt>
      <trkpt lat="44.12289" lon="2.26104">
        <ele>277.6</ele>
        <time>2024-04-23T15:12:54.000Z</time>
      </trkpt>
      <trkpt lat="44.12284" lon="2.26094">
        <ele>276.9</ele>
        <time>2024-04-23T15:13:05.000Z</time>
      </trkpt>
      <trkpt lat="44.12276" lon="2.26085">
        <ele>274.9</ele>
        <time>2024-04-23T15:13:14.000Z</time>
      </trkpt>
      <trkpt lat="44.12271" lon="2.26074">
        <ele>274.4</ele>
        <time>2024-04-23T15:13:22.000Z</time>
      </trkpt>
      <trkpt lat="44.12271" lon="2.26061">
        <ele>274.6</ele>
        <time>2024-04-23T15:13:32.000Z</time>
      </trkpt>
      <trkpt lat="44.12269" lon="2.26048">
        <ele>275</ele>
        <time>2024-04-23T15:13:45.000Z</time>
      </trkpt>
      <trkpt lat="44.12269" lon="2.26035">
        <ele>274.8</ele>
        <time>2024-04-23T15:13:55.000Z</time>
      </trkpt>
      <trkpt lat="44.12264" lon="2.26023">
        <ele>274.9</ele>
        <time>2024-04-23T15:14:05.000Z</time>
      </trkpt>
      <trkpt lat="44.1226" lon="2.26011">
        <ele>275.2</ele>
        <time>2024-04-23T15:14:13.000Z</time>
      </trkpt>
      <trkpt lat="44.12259" lon="2.25998">
        <ele>275.5</ele>
        <time>2024-04-23T15:14:27.000Z</time>
      </trkpt>
      <trkpt lat="44.12258" lon="2.25985">
        <ele>275.7</ele>
        <time>2024-04-23T15:14:38.000Z</time>
      </trkpt>
      <trkpt lat="44.1226" lon="2.25972">
        <ele>276</ele>
        <time>2024-04-23T15:14:47.000Z</time>
      </trkpt>
      <trkpt lat="44.12261" lon="2.25959">
        <ele>277.9</ele>
        <time>2024-04-23T15:14:57.000Z</time>
      </trkpt>
      <trkpt lat="44.12262" lon="2.25959">
        <ele>278.5</ele>
        <time>2024-04-23T15:15:00.000Z</time>
      </trkpt>
      <trkpt lat="44.12262" lon="2.25959">
        <ele>278.7</ele>
        <time>2024-04-23T15:15:01.000Z</time>
      </trkpt>
      <trkpt lat="44.12262" lon="2.25959">
        <ele>278.8</ele>
        <time>2024-04-23T15:15:02.000Z</time>
      </trkpt>
      <trkpt lat="44.12265" lon="2.25947">
        <ele>279.6</ele>
        <time>2024-04-23T15:15:18.000Z</time>
      </trkpt>
      <trkpt lat="44.12271" lon="2.25936">
        <ele>279.7</ele>
        <time>2024-04-23T15:15:27.000Z</time>
      </trkpt>
      <trkpt lat="44.12273" lon="2.25945">
        <ele>279.4</ele>
        <time>2024-04-23T15:15:39.000Z</time>
      </trkpt>
      <trkpt lat="44.12272" lon="2.25946">
        <ele>279.4</ele>
        <time>2024-04-23T15:15:40.000Z</time>
      </trkpt>
      <trkpt lat="44.12272" lon="2.25946">
        <ele>279.3</ele>
        <time>2024-04-23T15:15:41.000Z</time>
      </trkpt>
      <trkpt lat="44.12272" lon="2.25946">
        <ele>279.3</ele>
        <time>2024-04-23T15:15:42.000Z</time>
      </trkpt>
      <trkpt lat="44.12273" lon="2.2596">
        <ele>279.2</ele>
        <time>2024-04-23T15:15:58.000Z</time>
      </trkpt>
      <trkpt lat="44.1228" lon="2.25969">
        <ele>281.1</ele>
        <time>2024-04-23T15:16:07.000Z</time>
      </trkpt>
      <trkpt lat="44.12285" lon="2.25979">
        <ele>282.7</ele>
        <time>2024-04-23T15:16:17.000Z</time>
      </trkpt>
      <trkpt lat="44.12293" lon="2.25988">
        <ele>283.5</ele>
        <time>2024-04-23T15:16:25.000Z</time>
      </trkpt>
      <trkpt lat="44.12298" lon="2.25998">
        <ele>285.3</ele>
        <time>2024-04-23T15:16:35.000Z</time>
      </trkpt>
      <trkpt lat="44.123" lon="2.26002">
        <ele>285.8</ele>
        <time>2024-04-23T15:16:41.000Z</time>
      </trkpt>
      <trkpt lat="44.123" lon="2.26002">
        <ele>285.8</ele>
        <time>2024-04-23T15:16:42.000Z</time>
      </trkpt>
      <trkpt lat="44.123" lon="2.26003">
        <ele>285.8</ele>
        <time>2024-04-23T15:16:43.000Z</time>
      </trkpt>
      <trkpt lat="44.123" lon="2.26003">
        <ele>285.7</ele>
        <time>2024-04-23T15:16:44.000Z</time>
      </trkpt>
      <trkpt lat="44.123" lon="2.26004">
        <ele>285.7</ele>
        <time>2024-04-23T15:16:45.000Z</time>
      </trkpt>
      <trkpt lat="44.123" lon="2.26004">
        <ele>285.7</ele>
        <time>2024-04-23T15:16:46.000Z</time>
      </trkpt>
      <trkpt lat="44.123" lon="2.26004">
        <ele>285.6</ele>
        <time>2024-04-23T15:16:47.000Z</time>
      </trkpt>
      <trkpt lat="44.123" lon="2.26004">
        <ele>285.6</ele>
        <time>2024-04-23T15:16:48.000Z</time>
      </trkpt>
      <trkpt lat="44.123" lon="2.26005">
        <ele>285.6</ele>
        <time>2024-04-23T15:16:49.000Z</time>
      </trkpt>
      <trkpt lat="44.123" lon="2.26006">
        <ele>285.6</ele>
        <time>2024-04-23T15:16:50.000Z</time>
      </trkpt>
      <trkpt lat="44.12303" lon="2.26018">
        <ele>285.9</ele>
        <time>2024-04-23T15:17:07.000Z</time>
      </trkpt>
      <trkpt lat="44.12303" lon="2.26018">
        <ele>285.9</ele>
        <time>2024-04-23T15:17:09.000Z</time>
      </trkpt>
      <trkpt lat="44.12303" lon="2.26018">
        <ele>285.9</ele>
        <time>2024-04-23T15:17:10.000Z</time>
      </trkpt>
      <trkpt lat="44.12303" lon="2.26018">
        <ele>285.9</ele>
        <time>2024-04-23T15:17:11.000Z</time>
      </trkpt>
      <trkpt lat="44.12303" lon="2.26018">
        <ele>285.9</ele>
        <time>2024-04-23T15:17:12.000Z</time>
      </trkpt>
      <trkpt lat="44.12303" lon="2.26018">
        <ele>285.9</ele>
        <time>2024-04-23T15:17:13.000Z</time>
      </trkpt>
      <trkpt lat="44.12311" lon="2.26013">
        <ele>285.6</ele>
        <time>2024-04-23T15:17:20.000Z</time>
      </trkpt>
      <trkpt lat="44.1232" lon="2.26011">
        <ele>283.4</ele>
        <time>2024-04-23T15:17:33.000Z</time>
      </trkpt>
      <trkpt lat="44.12324" lon="2.25999">
        <ele>279.4</ele>
        <time>2024-04-23T15:17:44.000Z</time>
      </trkpt>
      <trkpt lat="44.12331" lon="2.2599">
        <ele>278</ele>
        <time>2024-04-23T15:17:56.000Z</time>
      </trkpt>
      <trkpt lat="44.12338" lon="2.25982">
        <ele>277.9</ele>
        <time>2024-04-23T15:18:08.000Z</time>
      </trkpt>
      <trkpt lat="44.12344" lon="2.25973">
        <ele>277.6</ele>
        <time>2024-04-23T15:18:20.000Z</time>
      </trkpt>
      <trkpt lat="44.12349" lon="2.25961">
        <ele>276.1</ele>
        <time>2024-04-23T15:18:33.000Z</time>
      </trkpt>
      <trkpt lat="44.12353" lon="2.25949">
        <ele>275.6</ele>
        <time>2024-04-23T15:18:43.000Z</time>
      </trkpt>
      <trkpt lat="44.12357" lon="2.25937">
        <ele>275.7</ele>
        <time>2024-04-23T15:18:52.000Z</time>
      </trkpt>
      <trkpt lat="44.1236" lon="2.25924">
        <ele>277.3</ele>
        <time>2024-04-23T15:19:08.000Z</time>
      </trkpt>
      <trkpt lat="44.12365" lon="2.25912">
        <ele>277.6</ele>
        <time>2024-04-23T15:19:18.000Z</time>
      </trkpt>
      <trkpt lat="44.12367" lon="2.25899">
        <ele>277.9</ele>
        <time>2024-04-23T15:19:29.000Z</time>
      </trkpt>
      <trkpt lat="44.1237" lon="2.25887">
        <ele>278.3</ele>
        <time>2024-04-23T15:19:41.000Z</time>
      </trkpt>
      <trkpt lat="44.12371" lon="2.25874">
        <ele>279.9</ele>
        <time>2024-04-23T15:19:53.000Z</time>
      </trkpt>
      <trkpt lat="44.12373" lon="2.25862">
        <ele>281.6</ele>
        <time>2024-04-23T15:20:05.000Z</time>
      </trkpt>
      <trkpt lat="44.12374" lon="2.25849">
        <ele>282.8</ele>
        <time>2024-04-23T15:20:18.000Z</time>
      </trkpt>
      <trkpt lat="44.12377" lon="2.25836">
        <ele>284.2</ele>
        <time>2024-04-23T15:20:29.000Z</time>
      </trkpt>
      <trkpt lat="44.12378" lon="2.2583">
        <ele>285.9</ele>
        <time>2024-04-23T15:20:41.000Z</time>
      </trkpt>
      <trkpt lat="44.12378" lon="2.2583">
        <ele>286</ele>
        <time>2024-04-23T15:20:42.000Z</time>
      </trkpt>
      <trkpt lat="44.12378" lon="2.2583">
        <ele>286.1</ele>
        <time>2024-04-23T15:20:43.000Z</time>
      </trkpt>
      <trkpt lat="44.12378" lon="2.2583">
        <ele>286.5</ele>
        <time>2024-04-23T15:20:48.000Z</time>
      </trkpt>
      <trkpt lat="44.12378" lon="2.2583">
        <ele>286.5</ele>
        <time>2024-04-23T15:20:49.000Z</time>
      </trkpt>
      <trkpt lat="44.12378" lon="2.2583">
        <ele>286.6</ele>
        <time>2024-04-23T15:20:50.000Z</time>
      </trkpt>
      <trkpt lat="44.12378" lon="2.2583">
        <ele>286.6</ele>
        <time>2024-04-23T15:20:51.000Z</time>
      </trkpt>
      <trkpt lat="44.12378" lon="2.2583">
        <ele>286.6</ele>
        <time>2024-04-23T15:20:52.000Z</time>
      </trkpt>
      <trkpt lat="44.12378" lon="2.25828">
        <ele>286.8</ele>
        <time>2024-04-23T15:20:56.000Z</time>
      </trkpt>
      <trkpt lat="44.12378" lon="2.25827">
        <ele>286.8</ele>
        <time>2024-04-23T15:20:57.000Z</time>
      </trkpt>
      <trkpt lat="44.12381" lon="2.25814">
        <ele>287.4</ele>
        <time>2024-04-23T15:21:07.000Z</time>
      </trkpt>
      <trkpt lat="44.12383" lon="2.25801">
        <ele>288.3</ele>
        <time>2024-04-23T15:21:17.000Z</time>
      </trkpt>
      <trkpt lat="44.12385" lon="2.25788">
        <ele>289.7</ele>
        <time>2024-04-23T15:21:28.000Z</time>
      </trkpt>
      <trkpt lat="44.12388" lon="2.25776">
        <ele>291.4</ele>
        <time>2024-04-23T15:21:38.000Z</time>
      </trkpt>
      <trkpt lat="44.12392" lon="2.25765">
        <ele>292.8</ele>
        <time>2024-04-23T15:21:49.000Z</time>
      </trkpt>
      <trkpt lat="44.12395" lon="2.25753">
        <ele>293.8</ele>
        <time>2024-04-23T15:22:01.000Z</time>
      </trkpt>
      <trkpt lat="44.12398" lon="2.2574">
        <ele>294.7</ele>
        <time>2024-04-23T15:22:13.000Z</time>
      </trkpt>
      <trkpt lat="44.12404" lon="2.2573">
        <ele>295.5</ele>
        <time>2024-04-23T15:22:23.000Z</time>
      </trkpt>
      <trkpt lat="44.12409" lon="2.25719">
        <ele>297.2</ele>
        <time>2024-04-23T15:22:35.000Z</time>
      </trkpt>
      <trkpt lat="44.12413" lon="2.25707">
        <ele>298.9</ele>
        <time>2024-04-23T15:22:47.000Z</time>
      </trkpt>
      <trkpt lat="44.12417" lon="2.25695">
        <ele>300</ele>
        <time>2024-04-23T15:22:59.000Z</time>
      </trkpt>
      <trkpt lat="44.12418" lon="2.25692">
        <ele>300.5</ele>
        <time>2024-04-23T15:23:05.000Z</time>
      </trkpt>
      <trkpt lat="44.12418" lon="2.25692">
        <ele>300.6</ele>
        <time>2024-04-23T15:23:06.000Z</time>
      </trkpt>
      <trkpt lat="44.12418" lon="2.25692">
        <ele>300.6</ele>
        <time>2024-04-23T15:23:07.000Z</time>
      </trkpt>
      <trkpt lat="44.12418" lon="2.25691">
        <ele>300.9</ele>
        <time>2024-04-23T15:23:18.000Z</time>
      </trkpt>
      <trkpt lat="44.12419" lon="2.2569">
        <ele>300.9</ele>
        <time>2024-04-23T15:23:19.000Z</time>
      </trkpt>
      <trkpt lat="44.12422" lon="2.25677">
        <ele>301.8</ele>
        <time>2024-04-23T15:23:29.000Z</time>
      </trkpt>
      <trkpt lat="44.12425" lon="2.25665">
        <ele>302.6</ele>
        <time>2024-04-23T15:23:38.000Z</time>
      </trkpt>
      <trkpt lat="44.12427" lon="2.25651">
        <ele>303.5</ele>
        <time>2024-04-23T15:23:47.000Z</time>
      </trkpt>
      <trkpt lat="44.12427" lon="2.25639">
        <ele>305.4</ele>
        <time>2024-04-23T15:23:57.000Z</time>
      </trkpt>
      <trkpt lat="44.12427" lon="2.25638">
        <ele>306</ele>
        <time>2024-04-23T15:24:01.000Z</time>
      </trkpt>
      <trkpt lat="44.12427" lon="2.25638">
        <ele>306.1</ele>
        <time>2024-04-23T15:24:02.000Z</time>
      </trkpt>
      <trkpt lat="44.12427" lon="2.25638">
        <ele>306.3</ele>
        <time>2024-04-23T15:24:06.000Z</time>
      </trkpt>
      <trkpt lat="44.12427" lon="2.25638">
        <ele>306.4</ele>
        <time>2024-04-23T15:24:07.000Z</time>
      </trkpt>
      <trkpt lat="44.12429" lon="2.25625">
        <ele>307.4</ele>
        <time>2024-04-23T15:24:28.000Z</time>
      </trkpt>
      <trkpt lat="44.12429" lon="2.25612">
        <ele>308.8</ele>
        <time>2024-04-23T15:24:37.000Z</time>
      </trkpt>
      <trkpt lat="44.1243" lon="2.25599">
        <ele>310.5</ele>
        <time>2024-04-23T15:24:47.000Z</time>
      </trkpt>
      <trkpt lat="44.12429" lon="2.25585">
        <ele>312.3</ele>
        <time>2024-04-23T15:24:59.000Z</time>
      </trkpt>
      <trkpt lat="44.12436" lon="2.25594">
        <ele>314.3</ele>
        <time>2024-04-23T15:25:20.000Z</time>
      </trkpt>
      <trkpt lat="44.12438" lon="2.25606">
        <ele>315.7</ele>
        <time>2024-04-23T15:25:29.000Z</time>
      </trkpt>
      <trkpt lat="44.1244" lon="2.25617">
        <ele>317</ele>
        <time>2024-04-23T15:25:40.000Z</time>
      </trkpt>
      <trkpt lat="44.1244" lon="2.25617">
        <ele>317</ele>
        <time>2024-04-23T15:25:41.000Z</time>
      </trkpt>
      <trkpt lat="44.1244" lon="2.25618">
        <ele>317.1</ele>
        <time>2024-04-23T15:25:42.000Z</time>
      </trkpt>
      <trkpt lat="44.1244" lon="2.25619">
        <ele>317.1</ele>
        <time>2024-04-23T15:25:43.000Z</time>
      </trkpt>
      <trkpt lat="44.1244" lon="2.25621">
        <ele>317.2</ele>
        <time>2024-04-23T15:25:44.000Z</time>
      </trkpt>
      <trkpt lat="44.12441" lon="2.25632">
        <ele>317.8</ele>
        <time>2024-04-23T15:25:55.000Z</time>
      </trkpt>
      <trkpt lat="44.12441" lon="2.25632">
        <ele>317.9</ele>
        <time>2024-04-23T15:25:56.000Z</time>
      </trkpt>
      <trkpt lat="44.12441" lon="2.25632">
        <ele>317.9</ele>
        <time>2024-04-23T15:25:57.000Z</time>
      </trkpt>
      <trkpt lat="44.12441" lon="2.25634">
        <ele>318</ele>
        <time>2024-04-23T15:25:58.000Z</time>
      </trkpt>
      <trkpt lat="44.12441" lon="2.25635">
        <ele>318</ele>
        <time>2024-04-23T15:25:59.000Z</time>
      </trkpt>
      <trkpt lat="44.12441" lon="2.25637">
        <ele>318.1</ele>
        <time>2024-04-23T15:26:00.000Z</time>
      </trkpt>
      <trkpt lat="44.12443" lon="2.2565">
        <ele>318.7</ele>
        <time>2024-04-23T15:26:10.000Z</time>
      </trkpt>
      <trkpt lat="44.12444" lon="2.25663">
        <ele>319.5</ele>
        <time>2024-04-23T15:26:18.000Z</time>
      </trkpt>
      <trkpt lat="44.12447" lon="2.25676">
        <ele>321.2</ele>
        <time>2024-04-23T15:26:29.000Z</time>
      </trkpt>
      <trkpt lat="44.12448" lon="2.25688">
        <ele>322</ele>
        <time>2024-04-23T15:26:41.000Z</time>
      </trkpt>
      <trkpt lat="44.12448" lon="2.25701">
        <ele>322.8</ele>
        <time>2024-04-23T15:26:53.000Z</time>
      </trkpt>
      <trkpt lat="44.12458" lon="2.25697">
        <ele>324.1</ele>
        <time>2024-04-23T15:27:18.000Z</time>
      </trkpt>
      <trkpt lat="44.1246" lon="2.25685">
        <ele>325.9</ele>
        <time>2024-04-23T15:27:26.000Z</time>
      </trkpt>
      <trkpt lat="44.12463" lon="2.25672">
        <ele>328.2</ele>
        <time>2024-04-23T15:27:34.000Z</time>
      </trkpt>
      <trkpt lat="44.12466" lon="2.25659">
        <ele>330.4</ele>
        <time>2024-04-23T15:27:42.000Z</time>
      </trkpt>
      <trkpt lat="44.12468" lon="2.25647">
        <ele>331.6</ele>
        <time>2024-04-23T15:27:50.000Z</time>
      </trkpt>
      <trkpt lat="44.12471" lon="2.25634">
        <ele>332.3</ele>
        <time>2024-04-23T15:27:59.000Z</time>
      </trkpt>
      <trkpt lat="44.12471" lon="2.2562">
        <ele>332.9</ele>
        <time>2024-04-23T15:28:08.000Z</time>
      </trkpt>
      <trkpt lat="44.12469" lon="2.25607">
        <ele>334.1</ele>
        <time>2024-04-23T15:28:17.000Z</time>
      </trkpt>
      <trkpt lat="44.12469" lon="2.25593">
        <ele>335.2</ele>
        <time>2024-04-23T15:28:24.000Z</time>
      </trkpt>
      <trkpt lat="44.1247" lon="2.2558">
        <ele>336.5</ele>
        <time>2024-04-23T15:28:31.000Z</time>
      </trkpt>
      <trkpt lat="44.1247" lon="2.25567">
        <ele>337.8</ele>
        <time>2024-04-23T15:28:38.000Z</time>
      </trkpt>
      <trkpt lat="44.12474" lon="2.25555">
        <ele>338.7</ele>
        <time>2024-04-23T15:28:45.000Z</time>
      </trkpt>
      <trkpt lat="44.12478" lon="2.25543">
        <ele>339.4</ele>
        <time>2024-04-23T15:28:53.000Z</time>
      </trkpt>
      <trkpt lat="44.12485" lon="2.25535">
        <ele>340.4</ele>
        <time>2024-04-23T15:29:05.000Z</time>
      </trkpt>
      <trkpt lat="44.12486" lon="2.25533">
        <ele>341</ele>
        <time>2024-04-23T15:29:14.000Z</time>
      </trkpt>
      <trkpt lat="44.12486" lon="2.25533">
        <ele>341</ele>
        <time>2024-04-23T15:29:15.000Z</time>
      </trkpt>
      <trkpt lat="44.12486" lon="2.25533">
        <ele>341.1</ele>
        <time>2024-04-23T15:29:16.000Z</time>
      </trkpt>
      <trkpt lat="44.12486" lon="2.25533">
        <ele>341.1</ele>
        <time>2024-04-23T15:29:17.000Z</time>
      </trkpt>
      <trkpt lat="44.12486" lon="2.25533">
        <ele>341.2</ele>
        <time>2024-04-23T15:29:20.000Z</time>
      </trkpt>
      <trkpt lat="44.12486" lon="2.25533">
        <ele>341.2</ele>
        <time>2024-04-23T15:29:21.000Z</time>
      </trkpt>
      <trkpt lat="44.12486" lon="2.25533">
        <ele>341.3</ele>
        <time>2024-04-23T15:29:22.000Z</time>
      </trkpt>
      <trkpt lat="44.12485" lon="2.25533">
        <ele>341.4</ele>
        <time>2024-04-23T15:29:29.000Z</time>
      </trkpt>
      <trkpt lat="44.12485" lon="2.25533">
        <ele>341.4</ele>
        <time>2024-04-23T15:29:30.000Z</time>
      </trkpt>
      <trkpt lat="44.12485" lon="2.25533">
        <ele>341.4</ele>
        <time>2024-04-23T15:29:31.000Z</time>
      </trkpt>
      <trkpt lat="44.12485" lon="2.25533">
        <ele>341.4</ele>
        <time>2024-04-23T15:29:32.000Z</time>
      </trkpt>
      <trkpt lat="44.12485" lon="2.25533">
        <ele>341.4</ele>
        <time>2024-04-23T15:29:33.000Z</time>
      </trkpt>
      <trkpt lat="44.12485" lon="2.25532">
        <ele>341.5</ele>
        <time>2024-04-23T15:29:46.000Z</time>
      </trkpt>
      <trkpt lat="44.12485" lon="2.25532">
        <ele>341.5</ele>
        <time>2024-04-23T15:29:47.000Z</time>
      </trkpt>
      <trkpt lat="44.12485" lon="2.25532">
        <ele>341.5</ele>
        <time>2024-04-23T15:29:48.000Z</time>
      </trkpt>
      <trkpt lat="44.12485" lon="2.25532">
        <ele>341.5</ele>
        <time>2024-04-23T15:29:49.000Z</time>
      </trkpt>
      <trkpt lat="44.12485" lon="2.25532">
        <ele>341.6</ele>
        <time>2024-04-23T15:29:50.000Z</time>
      </trkpt>
      <trkpt lat="44.12485" lon="2.25532">
        <ele>341.6</ele>
        <time>2024-04-23T15:29:51.000Z</time>
      </trkpt>
      <trkpt lat="44.12485" lon="2.25532">
        <ele>341.6</ele>
        <time>2024-04-23T15:29:52.000Z</time>
      </trkpt>
      <trkpt lat="44.12485" lon="2.25532">
        <ele>341.8</ele>
        <time>2024-04-23T15:30:06.000Z</time>
      </trkpt>
      <trkpt lat="44.12485" lon="2.25532">
        <ele>341.8</ele>
        <time>2024-04-23T15:30:07.000Z</time>
      </trkpt>
      <trkpt lat="44.12485" lon="2.25533">
        <ele>341.8</ele>
        <time>2024-04-23T15:30:08.000Z</time>
      </trkpt>
      <trkpt lat="44.12485" lon="2.25533">
        <ele>341.8</ele>
        <time>2024-04-23T15:30:09.000Z</time>
      </trkpt>
      <trkpt lat="44.12484" lon="2.25533">
        <ele>341.8</ele>
        <time>2024-04-23T15:30:10.000Z</time>
      </trkpt>
      <trkpt lat="44.12484" lon="2.25532">
        <ele>341.8</ele>
        <time>2024-04-23T15:30:13.000Z</time>
      </trkpt>
      <trkpt lat="44.12484" lon="2.25532">
        <ele>341.8</ele>
        <time>2024-04-23T15:30:14.000Z</time>
      </trkpt>
      <trkpt lat="44.12482" lon="2.25531">
        <ele>342.1</ele>
        <time>2024-04-23T15:30:26.000Z</time>
      </trkpt>
      <trkpt lat="44.12481" lon="2.25531">
        <ele>342.4</ele>
        <time>2024-04-23T15:30:59.000Z</time>
      </trkpt>
      <trkpt lat="44.12482" lon="2.2553">
        <ele>342.4</ele>
        <time>2024-04-23T15:31:00.000Z</time>
      </trkpt>
      <trkpt lat="44.12482" lon="2.2553">
        <ele>342.4</ele>
        <time>2024-04-23T15:31:01.000Z</time>
      </trkpt>
      <trkpt lat="44.12481" lon="2.2553">
        <ele>342.4</ele>
        <time>2024-04-23T15:31:02.000Z</time>
      </trkpt>
      <trkpt lat="44.12482" lon="2.2553">
        <ele>342.4</ele>
        <time>2024-04-23T15:31:10.000Z</time>
      </trkpt>
      <trkpt lat="44.12482" lon="2.2553">
        <ele>342.4</ele>
        <time>2024-04-23T15:31:11.000Z</time>
      </trkpt>
      <trkpt lat="44.12482" lon="2.2553">
        <ele>342.4</ele>
        <time>2024-04-23T15:31:12.000Z</time>
      </trkpt>
      <trkpt lat="44.12482" lon="2.2553">
        <ele>342.5</ele>
        <time>2024-04-23T15:31:16.000Z</time>
      </trkpt>
      <trkpt lat="44.12482" lon="2.2553">
        <ele>342.5</ele>
        <time>2024-04-23T15:31:25.000Z</time>
      </trkpt>
      <trkpt lat="44.12482" lon="2.2553">
        <ele>342.5</ele>
        <time>2024-04-23T15:31:26.000Z</time>
      </trkpt>
      <trkpt lat="44.12482" lon="2.2553">
        <ele>342.5</ele>
        <time>2024-04-23T15:31:27.000Z</time>
      </trkpt>
      <trkpt lat="44.12482" lon="2.25529">
        <ele>342.6</ele>
        <time>2024-04-23T15:31:38.000Z</time>
      </trkpt>
      <trkpt lat="44.12482" lon="2.25529">
        <ele>342.6</ele>
        <time>2024-04-23T15:31:39.000Z</time>
      </trkpt>
      <trkpt lat="44.12482" lon="2.25529">
        <ele>342.6</ele>
        <time>2024-04-23T15:31:40.000Z</time>
      </trkpt>
      <trkpt lat="44.12482" lon="2.25529">
        <ele>342.7</ele>
        <time>2024-04-23T15:31:41.000Z</time>
      </trkpt>
      <trkpt lat="44.12482" lon="2.25529">
        <ele>342.7</ele>
        <time>2024-04-23T15:31:42.000Z</time>
      </trkpt>
      <trkpt lat="44.12482" lon="2.25529">
        <ele>342.7</ele>
        <time>2024-04-23T15:31:43.000Z</time>
      </trkpt>
      <trkpt lat="44.12482" lon="2.25529">
        <ele>342.7</ele>
        <time>2024-04-23T15:31:44.000Z</time>
      </trkpt>
      <trkpt lat="44.12482" lon="2.25529">
        <ele>342.7</ele>
        <time>2024-04-23T15:31:45.000Z</time>
      </trkpt>
      <trkpt lat="44.12482" lon="2.25529">
        <ele>342.7</ele>
        <time>2024-04-23T15:31:48.000Z</time>
      </trkpt>
      <trkpt lat="44.12482" lon="2.25529">
        <ele>342.7</ele>
        <time>2024-04-23T15:31:49.000Z</time>
      </trkpt>
      <trkpt lat="44.12482" lon="2.25529">
        <ele>342.7</ele>
        <time>2024-04-23T15:31:50.000Z</time>
      </trkpt>
      <trkpt lat="44.12482" lon="2.25529">
        <ele>342.7</ele>
        <time>2024-04-23T15:31:51.000Z</time>
      </trkpt>
      <trkpt lat="44.12482" lon="2.25529">
        <ele>342.7</ele>
        <time>2024-04-23T15:31:52.000Z</time>
      </trkpt>
      <trkpt lat="44.12482" lon="2.25529">
        <ele>342.7</ele>
        <time>2024-04-23T15:31:53.000Z</time>
      </trkpt>
      <trkpt lat="44.12482" lon="2.25529">
        <ele>342.8</ele>
        <time>2024-04-23T15:31:54.000Z</time>
      </trkpt>
      <trkpt lat="44.12482" lon="2.25529">
        <ele>342.8</ele>
        <time>2024-04-23T15:32:01.000Z</time>
      </trkpt>
      <trkpt lat="44.12482" lon="2.25529">
        <ele>342.8</ele>
        <time>2024-04-23T15:32:02.000Z</time>
      </trkpt>
      <trkpt lat="44.12482" lon="2.25529">
        <ele>342.8</ele>
        <time>2024-04-23T15:32:04.000Z</time>
      </trkpt>
      <trkpt lat="44.12482" lon="2.25529">
        <ele>342.8</ele>
        <time>2024-04-23T15:32:07.000Z</time>
      </trkpt>
      <trkpt lat="44.12482" lon="2.25529">
        <ele>342.8</ele>
        <time>2024-04-23T15:32:08.000Z</time>
      </trkpt>
      <trkpt lat="44.12482" lon="2.25529">
        <ele>342.9</ele>
        <time>2024-04-23T15:32:29.000Z</time>
      </trkpt>
      <trkpt lat="44.12482" lon="2.25529">
        <ele>342.9</ele>
        <time>2024-04-23T15:32:30.000Z</time>
      </trkpt>
      <trkpt lat="44.12482" lon="2.25529">
        <ele>342.9</ele>
        <time>2024-04-23T15:32:31.000Z</time>
      </trkpt>
      <trkpt lat="44.12482" lon="2.25529">
        <ele>342.9</ele>
        <time>2024-04-23T15:32:32.000Z</time>
      </trkpt>
      <trkpt lat="44.12482" lon="2.25529">
        <ele>342.9</ele>
        <time>2024-04-23T15:32:33.000Z</time>
      </trkpt>
      <trkpt lat="44.12482" lon="2.25529">
        <ele>342.9</ele>
        <time>2024-04-23T15:32:51.000Z</time>
      </trkpt>
      <trkpt lat="44.12482" lon="2.25529">
        <ele>342.9</ele>
        <time>2024-04-23T15:32:52.000Z</time>
      </trkpt>
      <trkpt lat="44.12482" lon="2.25529">
        <ele>342.9</ele>
        <time>2024-04-23T15:32:55.000Z</time>
      </trkpt>
      <trkpt lat="44.12482" lon="2.25529">
        <ele>342.9</ele>
        <time>2024-04-23T15:32:56.000Z</time>
      </trkpt>
      <trkpt lat="44.12482" lon="2.25529">
        <ele>342.9</ele>
        <time>2024-04-23T15:32:57.000Z</time>
      </trkpt>
      <trkpt lat="44.12482" lon="2.25529">
        <ele>342.9</ele>
        <time>2024-04-23T15:33:00.000Z</time>
      </trkpt>
      <trkpt lat="44.12482" lon="2.25529">
        <ele>342.9</ele>
        <time>2024-04-23T15:33:01.000Z</time>
      </trkpt>
      <trkpt lat="44.12482" lon="2.25529">
        <ele>342.9</ele>
        <time>2024-04-23T15:33:02.000Z</time>
      </trkpt>
      <trkpt lat="44.12482" lon="2.25529">
        <ele>342.9</ele>
        <time>2024-04-23T15:33:03.000Z</time>
      </trkpt>
      <trkpt lat="44.12482" lon="2.25529">
        <ele>342.9</ele>
        <time>2024-04-23T15:33:04.000Z</time>
      </trkpt>
      <trkpt lat="44.12482" lon="2.25529">
        <ele>342.9</ele>
        <time>2024-04-23T15:33:05.000Z</time>
      </trkpt>
      <trkpt lat="44.12482" lon="2.25529">
        <ele>342.9</ele>
        <time>2024-04-23T15:33:10.000Z</time>
      </trkpt>
      <trkpt lat="44.12482" lon="2.25529">
        <ele>342.9</ele>
        <time>2024-04-23T15:33:11.000Z</time>
      </trkpt>
      <trkpt lat="44.12482" lon="2.25529">
        <ele>343</ele>
        <time>2024-04-23T15:33:12.000Z</time>
      </trkpt>
      <trkpt lat="44.12482" lon="2.25529">
        <ele>343</ele>
        <time>2024-04-23T15:33:13.000Z</time>
      </trkpt>
      <trkpt lat="44.12482" lon="2.25529">
        <ele>343</ele>
        <time>2024-04-23T15:33:14.000Z</time>
      </trkpt>
      <trkpt lat="44.12482" lon="2.2553">
        <ele>343</ele>
        <time>2024-04-23T15:33:18.000Z</time>
      </trkpt>
      <trkpt lat="44.12481" lon="2.2553">
        <ele>343</ele>
        <time>2024-04-23T15:33:19.000Z</time>
      </trkpt>
      <trkpt lat="44.12482" lon="2.2553">
        <ele>343</ele>
        <time>2024-04-23T15:33:23.000Z</time>
      </trkpt>
      <trkpt lat="44.12482" lon="2.2553">
        <ele>343</ele>
        <time>2024-04-23T15:33:24.000Z</time>
      </trkpt>
      <trkpt lat="44.12482" lon="2.2553">
        <ele>343.1</ele>
        <time>2024-04-23T15:33:25.000Z</time>
      </trkpt>
      <trkpt lat="44.12482" lon="2.2553">
        <ele>343.3</ele>
        <time>2024-04-23T15:33:43.000Z</time>
      </trkpt>
      <trkpt lat="44.12482" lon="2.2553">
        <ele>343.3</ele>
        <time>2024-04-23T15:33:44.000Z</time>
      </trkpt>
      <trkpt lat="44.12482" lon="2.2553">
        <ele>343.3</ele>
        <time>2024-04-23T15:33:45.000Z</time>
      </trkpt>
      <trkpt lat="44.12482" lon="2.2553">
        <ele>343.3</ele>
        <time>2024-04-23T15:33:46.000Z</time>
      </trkpt>
      <trkpt lat="44.12482" lon="2.2553">
        <ele>343.4</ele>
        <time>2024-04-23T15:33:47.000Z</time>
      </trkpt>
      <trkpt lat="44.12481" lon="2.25529">
        <ele>343.6</ele>
        <time>2024-04-23T15:34:21.000Z</time>
      </trkpt>
      <trkpt lat="44.12481" lon="2.25529">
        <ele>343.6</ele>
        <time>2024-04-23T15:34:22.000Z</time>
      </trkpt>
      <trkpt lat="44.12481" lon="2.25529">
        <ele>343.6</ele>
        <time>2024-04-23T15:34:23.000Z</time>
      </trkpt>
      <trkpt lat="44.12481" lon="2.25529">
        <ele>343.6</ele>
        <time>2024-04-23T15:34:24.000Z</time>
      </trkpt>
      <trkpt lat="44.12481" lon="2.25529">
        <ele>343.6</ele>
        <time>2024-04-23T15:34:25.000Z</time>
      </trkpt>
      <trkpt lat="44.12481" lon="2.25529">
        <ele>343.7</ele>
        <time>2024-04-23T15:35:04.000Z</time>
      </trkpt>
      <trkpt lat="44.12481" lon="2.25529">
        <ele>343.7</ele>
        <time>2024-04-23T15:35:05.000Z</time>
      </trkpt>
      <trkpt lat="44.12481" lon="2.25529">
        <ele>343.7</ele>
        <time>2024-04-23T15:35:06.000Z</time>
      </trkpt>
      <trkpt lat="44.12481" lon="2.25529">
        <ele>343.7</ele>
        <time>2024-04-23T15:35:07.000Z</time>
      </trkpt>
      <trkpt lat="44.12481" lon="2.25529">
        <ele>343.7</ele>
        <time>2024-04-23T15:35:08.000Z</time>
      </trkpt>
      <trkpt lat="44.12481" lon="2.25529">
        <ele>343.7</ele>
        <time>2024-04-23T15:35:09.000Z</time>
      </trkpt>
      <trkpt lat="44.12481" lon="2.25529">
        <ele>343.7</ele>
        <time>2024-04-23T15:35:10.000Z</time>
      </trkpt>
      <trkpt lat="44.12481" lon="2.25529">
        <ele>343.7</ele>
        <time>2024-04-23T15:35:11.000Z</time>
      </trkpt>
      <trkpt lat="44.12481" lon="2.25529">
        <ele>343.7</ele>
        <time>2024-04-23T15:35:12.000Z</time>
      </trkpt>
      <trkpt lat="44.12481" lon="2.25529">
        <ele>343.7</ele>
        <time>2024-04-23T15:35:13.000Z</time>
      </trkpt>
      <trkpt lat="44.12481" lon="2.25526">
        <ele>343.7</ele>
        <time>2024-04-23T15:35:30.000Z</time>
      </trkpt>
      <trkpt lat="44.12481" lon="2.25526">
        <ele>343.7</ele>
        <time>2024-04-23T15:35:31.000Z</time>
      </trkpt>
      <trkpt lat="44.12481" lon="2.25526">
        <ele>343.7</ele>
        <time>2024-04-23T15:35:32.000Z</time>
      </trkpt>
      <trkpt lat="44.12481" lon="2.25526">
        <ele>343.7</ele>
        <time>2024-04-23T15:35:33.000Z</time>
      </trkpt>
      <trkpt lat="44.12481" lon="2.25526">
        <ele>343.7</ele>
        <time>2024-04-23T15:35:34.000Z</time>
      </trkpt>
      <trkpt lat="44.12482" lon="2.25526">
        <ele>343.7</ele>
        <time>2024-04-23T15:35:38.000Z</time>
      </trkpt>
      <trkpt lat="44.12482" lon="2.25525">
        <ele>343.7</ele>
        <time>2024-04-23T15:35:39.000Z</time>
      </trkpt>
      <trkpt lat="44.12482" lon="2.25525">
        <ele>343.7</ele>
        <time>2024-04-23T15:35:40.000Z</time>
      </trkpt>
      <trkpt lat="44.12489" lon="2.25515">
        <ele>343.7</ele>
        <time>2024-04-23T15:35:53.000Z</time>
      </trkpt>
      <trkpt lat="44.12494" lon="2.25503">
        <ele>343.6</ele>
        <time>2024-04-23T15:36:03.000Z</time>
      </trkpt>
      <trkpt lat="44.12499" lon="2.25493">
        <ele>343.6</ele>
        <time>2024-04-23T15:36:12.000Z</time>
      </trkpt>
      <trkpt lat="44.12502" lon="2.2548">
        <ele>343.6</ele>
        <time>2024-04-23T15:36:22.000Z</time>
      </trkpt>
      <trkpt lat="44.12502" lon="2.25466">
        <ele>343.7</ele>
        <time>2024-04-23T15:36:33.000Z</time>
      </trkpt>
      <trkpt lat="44.12497" lon="2.25456">
        <ele>344.5</ele>
        <time>2024-04-23T15:36:43.000Z</time>
      </trkpt>
      <trkpt lat="44.12492" lon="2.25445">
        <ele>345.7</ele>
        <time>2024-04-23T15:36:53.000Z</time>
      </trkpt>
      <trkpt lat="44.12489" lon="2.25433">
        <ele>347.1</ele>
        <time>2024-04-23T15:37:04.000Z</time>
      </trkpt>
      <trkpt lat="44.12488" lon="2.25419">
        <ele>348.4</ele>
        <time>2024-04-23T15:37:14.000Z</time>
      </trkpt>
      <trkpt lat="44.12486" lon="2.25406">
        <ele>349.4</ele>
        <time>2024-04-23T15:37:23.000Z</time>
      </trkpt>
      <trkpt lat="44.12487" lon="2.25393">
        <ele>351.1</ele>
        <time>2024-04-23T15:37:36.000Z</time>
      </trkpt>
      <trkpt lat="44.12487" lon="2.2538">
        <ele>352.8</ele>
        <time>2024-04-23T15:37:49.000Z</time>
      </trkpt>
      <trkpt lat="44.12485" lon="2.25367">
        <ele>354.6</ele>
        <time>2024-04-23T15:38:00.000Z</time>
      </trkpt>
      <trkpt lat="44.12483" lon="2.25354">
        <ele>355.5</ele>
        <time>2024-04-23T15:38:11.000Z</time>
      </trkpt>
      <trkpt lat="44.12479" lon="2.25342">
        <ele>357.3</ele>
        <time>2024-04-23T15:38:22.000Z</time>
      </trkpt>
      <trkpt lat="44.12476" lon="2.2533">
        <ele>359.8</ele>
        <time>2024-04-23T15:38:33.000Z</time>
      </trkpt>
      <trkpt lat="44.12472" lon="2.25319">
        <ele>363.4</ele>
        <time>2024-04-23T15:38:48.000Z</time>
      </trkpt>
      <trkpt lat="44.12467" lon="2.25307">
        <ele>364.3</ele>
        <time>2024-04-23T15:39:02.000Z</time>
      </trkpt>
      <trkpt lat="44.12463" lon="2.25296">
        <ele>365</ele>
        <time>2024-04-23T15:39:11.000Z</time>
      </trkpt>
      <trkpt lat="44.12466" lon="2.25284">
        <ele>365.1</ele>
        <time>2024-04-23T15:39:20.000Z</time>
      </trkpt>
      <trkpt lat="44.12469" lon="2.25272">
        <ele>364.4</ele>
        <time>2024-04-23T15:39:29.000Z</time>
      </trkpt>
      <trkpt lat="44.12473" lon="2.25261">
        <ele>364.4</ele>
        <time>2024-04-23T15:39:38.000Z</time>
      </trkpt>
      <trkpt lat="44.12478" lon="2.2525">
        <ele>364.6</ele>
        <time>2024-04-23T15:39:49.000Z</time>
      </trkpt>
      <trkpt lat="44.12482" lon="2.25238">
        <ele>364.6</ele>
        <time>2024-04-23T15:39:59.000Z</time>
      </trkpt>
      <trkpt lat="44.12484" lon="2.25225">
        <ele>364.9</ele>
        <time>2024-04-23T15:40:12.000Z</time>
      </trkpt>
      <trkpt lat="44.12488" lon="2.25213">
        <ele>365.7</ele>
        <time>2024-04-23T15:40:24.000Z</time>
      </trkpt>
      <trkpt lat="44.12487" lon="2.252">
        <ele>367.3</ele>
        <time>2024-04-23T15:40:38.000Z</time>
      </trkpt>
      <trkpt lat="44.12479" lon="2.25192">
        <ele>370.4</ele>
        <time>2024-04-23T15:40:56.000Z</time>
      </trkpt>
      <trkpt lat="44.12473" lon="2.25189">
        <ele>371.4</ele>
        <time>2024-04-23T15:41:06.000Z</time>
      </trkpt>
      <trkpt lat="44.12473" lon="2.25188">
        <ele>371.5</ele>
        <time>2024-04-23T15:41:07.000Z</time>
      </trkpt>
      <trkpt lat="44.12473" lon="2.25188">
        <ele>371.6</ele>
        <time>2024-04-23T15:41:08.000Z</time>
      </trkpt>
      <trkpt lat="44.12472" lon="2.25188">
        <ele>372</ele>
        <time>2024-04-23T15:41:11.000Z</time>
      </trkpt>
      <trkpt lat="44.12471" lon="2.25188">
        <ele>372.1</ele>
        <time>2024-04-23T15:41:12.000Z</time>
      </trkpt>
      <trkpt lat="44.12463" lon="2.25181">
        <ele>374.1</ele>
        <time>2024-04-23T15:41:23.000Z</time>
      </trkpt>
      <trkpt lat="44.12453" lon="2.25178">
        <ele>376</ele>
        <time>2024-04-23T15:41:33.000Z</time>
      </trkpt>
      <trkpt lat="44.12446" lon="2.2517">
        <ele>377.9</ele>
        <time>2024-04-23T15:41:41.000Z</time>
      </trkpt>
      <trkpt lat="44.12437" lon="2.25165">
        <ele>380</ele>
        <time>2024-04-23T15:41:51.000Z</time>
      </trkpt>
      <trkpt lat="44.12432" lon="2.25154">
        <ele>381</ele>
        <time>2024-04-23T15:42:00.000Z</time>
      </trkpt>
      <trkpt lat="44.12426" lon="2.25143">
        <ele>382.2</ele>
        <time>2024-04-23T15:42:10.000Z</time>
      </trkpt>
      <trkpt lat="44.12422" lon="2.2513">
        <ele>385</ele>
        <time>2024-04-23T15:42:22.000Z</time>
      </trkpt>
      <trkpt lat="44.12418" lon="2.25118">
        <ele>387.7</ele>
        <time>2024-04-23T15:42:33.000Z</time>
      </trkpt>
      <trkpt lat="44.12415" lon="2.25105">
        <ele>389</ele>
        <time>2024-04-23T15:42:46.000Z</time>
      </trkpt>
      <trkpt lat="44.1241" lon="2.25095">
        <ele>392.3</ele>
        <time>2024-04-23T15:43:02.000Z</time>
      </trkpt>
      <trkpt lat="44.1241" lon="2.25081">
        <ele>395.7</ele>
        <time>2024-04-23T15:43:17.000Z</time>
      </trkpt>
      <trkpt lat="44.12407" lon="2.25068">
        <ele>397.2</ele>
        <time>2024-04-23T15:43:27.000Z</time>
      </trkpt>
      <trkpt lat="44.12403" lon="2.25056">
        <ele>398.4</ele>
        <time>2024-04-23T15:43:37.000Z</time>
      </trkpt>
      <trkpt lat="44.124" lon="2.25045">
        <ele>399.2</ele>
        <time>2024-04-23T15:43:45.000Z</time>
      </trkpt>
      <trkpt lat="44.12397" lon="2.25031">
        <ele>400.1</ele>
        <time>2024-04-23T15:43:54.000Z</time>
      </trkpt>
      <trkpt lat="44.12395" lon="2.25018">
        <ele>402.3</ele>
        <time>2024-04-23T15:44:04.000Z</time>
      </trkpt>
      <trkpt lat="44.1239" lon="2.25008">
        <ele>403.8</ele>
        <time>2024-04-23T15:44:13.000Z</time>
      </trkpt>
      <trkpt lat="44.12383" lon="2.24998">
        <ele>404.6</ele>
        <time>2024-04-23T15:44:21.000Z</time>
      </trkpt>
      <trkpt lat="44.12378" lon="2.24987">
        <ele>405.1</ele>
        <time>2024-04-23T15:44:30.000Z</time>
      </trkpt>
      <trkpt lat="44.12374" lon="2.24975">
        <ele>405.5</ele>
        <time>2024-04-23T15:44:38.000Z</time>
      </trkpt>
      <trkpt lat="44.12373" lon="2.24962">
        <ele>406.3</ele>
        <time>2024-04-23T15:44:47.000Z</time>
      </trkpt>
      <trkpt lat="44.12376" lon="2.24953">
        <ele>407.4</ele>
        <time>2024-04-23T15:45:01.000Z</time>
      </trkpt>
      <trkpt lat="44.12376" lon="2.24953">
        <ele>407.5</ele>
        <time>2024-04-23T15:45:02.000Z</time>
      </trkpt>
      <trkpt lat="44.12376" lon="2.24953">
        <ele>407.6</ele>
        <time>2024-04-23T15:45:03.000Z</time>
      </trkpt>
      <trkpt lat="44.12376" lon="2.24951">
        <ele>409.4</ele>
        <time>2024-04-23T15:45:38.000Z</time>
      </trkpt>
      <trkpt lat="44.12376" lon="2.24951">
        <ele>409.5</ele>
        <time>2024-04-23T15:45:39.000Z</time>
      </trkpt>
      <trkpt lat="44.12376" lon="2.24951">
        <ele>409.6</ele>
        <time>2024-04-23T15:45:40.000Z</time>
      </trkpt>
      <trkpt lat="44.12376" lon="2.24951">
        <ele>409.7</ele>
        <time>2024-04-23T15:45:41.000Z</time>
      </trkpt>
      <trkpt lat="44.12376" lon="2.24951">
        <ele>409.7</ele>
        <time>2024-04-23T15:45:42.000Z</time>
      </trkpt>
      <trkpt lat="44.12374" lon="2.2495">
        <ele>412.8</ele>
        <time>2024-04-23T15:46:56.000Z</time>
      </trkpt>
      <trkpt lat="44.12374" lon="2.2495">
        <ele>412.8</ele>
        <time>2024-04-23T15:46:57.000Z</time>
      </trkpt>
      <trkpt lat="44.12374" lon="2.2495">
        <ele>412.8</ele>
        <time>2024-04-23T15:46:58.000Z</time>
      </trkpt>
      <trkpt lat="44.12374" lon="2.24951">
        <ele>412.7</ele>
        <time>2024-04-23T15:47:04.000Z</time>
      </trkpt>
      <trkpt lat="44.12374" lon="2.24951">
        <ele>412.7</ele>
        <time>2024-04-23T15:47:05.000Z</time>
      </trkpt>
      <trkpt lat="44.12374" lon="2.24951">
        <ele>412.5</ele>
        <time>2024-04-23T15:47:23.000Z</time>
      </trkpt>
      <trkpt lat="44.12374" lon="2.24951">
        <ele>412.5</ele>
        <time>2024-04-23T15:47:24.000Z</time>
      </trkpt>
      <trkpt lat="44.12374" lon="2.24951">
        <ele>412.4</ele>
        <time>2024-04-23T15:47:25.000Z</time>
      </trkpt>
      <trkpt lat="44.12374" lon="2.24952">
        <ele>412.4</ele>
        <time>2024-04-23T15:47:26.000Z</time>
      </trkpt>
      <trkpt lat="44.12374" lon="2.24952">
        <ele>412.4</ele>
        <time>2024-04-23T15:47:27.000Z</time>
      </trkpt>
      <trkpt lat="44.12374" lon="2.24952">
        <ele>412.3</ele>
        <time>2024-04-23T15:47:36.000Z</time>
      </trkpt>
      <trkpt lat="44.12374" lon="2.24952">
        <ele>412.3</ele>
        <time>2024-04-23T15:47:37.000Z</time>
      </trkpt>
      <trkpt lat="44.12374" lon="2.24952">
        <ele>412.3</ele>
        <time>2024-04-23T15:47:38.000Z</time>
      </trkpt>
      <trkpt lat="44.12374" lon="2.24952">
        <ele>412.3</ele>
        <time>2024-04-23T15:47:39.000Z</time>
      </trkpt>
      <trkpt lat="44.12374" lon="2.24952">
        <ele>412.3</ele>
        <time>2024-04-23T15:47:40.000Z</time>
      </trkpt>
      <trkpt lat="44.12374" lon="2.24952">
        <ele>412.3</ele>
        <time>2024-04-23T15:47:41.000Z</time>
      </trkpt>
      <trkpt lat="44.12374" lon="2.24952">
        <ele>412.3</ele>
        <time>2024-04-23T15:47:42.000Z</time>
      </trkpt>
      <trkpt lat="44.12374" lon="2.24953">
        <ele>412.3</ele>
        <time>2024-04-23T15:47:48.000Z</time>
      </trkpt>
      <trkpt lat="44.12374" lon="2.24953">
        <ele>412.3</ele>
        <time>2024-04-23T15:47:49.000Z</time>
      </trkpt>
      <trkpt lat="44.12374" lon="2.24953">
        <ele>412.3</ele>
        <time>2024-04-23T15:47:50.000Z</time>
      </trkpt>
      <trkpt lat="44.12374" lon="2.24953">
        <ele>412.3</ele>
        <time>2024-04-23T15:47:51.000Z</time>
      </trkpt>
      <trkpt lat="44.12374" lon="2.24953">
        <ele>412.3</ele>
        <time>2024-04-23T15:47:52.000Z</time>
      </trkpt>
      <trkpt lat="44.12374" lon="2.24953">
        <ele>412.3</ele>
        <time>2024-04-23T15:47:53.000Z</time>
      </trkpt>
      <trkpt lat="44.12374" lon="2.24953">
        <ele>412.3</ele>
        <time>2024-04-23T15:47:54.000Z</time>
      </trkpt>
      <trkpt lat="44.12374" lon="2.24953">
        <ele>412.3</ele>
        <time>2024-04-23T15:47:55.000Z</time>
      </trkpt>
      <trkpt lat="44.12373" lon="2.24953">
        <ele>412.5</ele>
        <time>2024-04-23T15:48:55.000Z</time>
      </trkpt>
      <trkpt lat="44.12373" lon="2.24953">
        <ele>412.5</ele>
        <time>2024-04-23T15:48:56.000Z</time>
      </trkpt>
      <trkpt lat="44.12373" lon="2.24953">
        <ele>412.5</ele>
        <time>2024-04-23T15:48:57.000Z</time>
      </trkpt>
      <trkpt lat="44.12373" lon="2.24953">
        <ele>412.5</ele>
        <time>2024-04-23T15:48:58.000Z</time>
      </trkpt>
      <trkpt lat="44.12373" lon="2.24953">
        <ele>412.5</ele>
        <time>2024-04-23T15:48:59.000Z</time>
      </trkpt>
      <trkpt lat="44.12373" lon="2.24953">
        <ele>412.5</ele>
        <time>2024-04-23T15:49:00.000Z</time>
      </trkpt>
      <trkpt lat="44.12374" lon="2.2495">
        <ele>412.4</ele>
        <time>2024-04-23T15:49:36.000Z</time>
      </trkpt>
      <trkpt lat="44.12375" lon="2.2495">
        <ele>412.4</ele>
        <time>2024-04-23T15:49:37.000Z</time>
      </trkpt>
      <trkpt lat="44.12375" lon="2.24949">
        <ele>412.4</ele>
        <time>2024-04-23T15:49:38.000Z</time>
      </trkpt>
      <trkpt lat="44.12375" lon="2.24948">
        <ele>412.4</ele>
        <time>2024-04-23T15:49:41.000Z</time>
      </trkpt>
      <trkpt lat="44.12375" lon="2.24948">
        <ele>412.4</ele>
        <time>2024-04-23T15:49:42.000Z</time>
      </trkpt>
      <trkpt lat="44.12375" lon="2.24948">
        <ele>412.4</ele>
        <time>2024-04-23T15:49:43.000Z</time>
      </trkpt>
      <trkpt lat="44.12375" lon="2.24948">
        <ele>412.4</ele>
        <time>2024-04-23T15:49:48.000Z</time>
      </trkpt>
      <trkpt lat="44.12375" lon="2.24948">
        <ele>412.4</ele>
        <time>2024-04-23T15:49:49.000Z</time>
      </trkpt>
      <trkpt lat="44.12375" lon="2.24948">
        <ele>412.4</ele>
        <time>2024-04-23T15:49:50.000Z</time>
      </trkpt>
      <trkpt lat="44.12375" lon="2.24948">
        <ele>412.4</ele>
        <time>2024-04-23T15:49:51.000Z</time>
      </trkpt>
      <trkpt lat="44.12375" lon="2.24948">
        <ele>412.4</ele>
        <time>2024-04-23T15:49:52.000Z</time>
      </trkpt>
      <trkpt lat="44.12375" lon="2.24948">
        <ele>412.3</ele>
        <time>2024-04-23T15:50:00.000Z</time>
      </trkpt>
      <trkpt lat="44.12374" lon="2.24948">
        <ele>412.3</ele>
        <time>2024-04-23T15:50:01.000Z</time>
      </trkpt>
      <trkpt lat="44.12374" lon="2.24948">
        <ele>412.3</ele>
        <time>2024-04-23T15:50:02.000Z</time>
      </trkpt>
      <trkpt lat="44.12374" lon="2.24948">
        <ele>412.3</ele>
        <time>2024-04-23T15:50:03.000Z</time>
      </trkpt>
      <trkpt lat="44.12375" lon="2.24948">
        <ele>412.3</ele>
        <time>2024-04-23T15:50:04.000Z</time>
      </trkpt>
      <trkpt lat="44.12375" lon="2.24949">
        <ele>412.3</ele>
        <time>2024-04-23T15:50:05.000Z</time>
      </trkpt>
      <trkpt lat="44.12375" lon="2.24949">
        <ele>412.3</ele>
        <time>2024-04-23T15:50:06.000Z</time>
      </trkpt>
      <trkpt lat="44.12375" lon="2.24949">
        <ele>412.3</ele>
        <time>2024-04-23T15:50:07.000Z</time>
      </trkpt>
      <trkpt lat="44.12375" lon="2.24949">
        <ele>412.3</ele>
        <time>2024-04-23T15:50:08.000Z</time>
      </trkpt>
      <trkpt lat="44.12375" lon="2.24949">
        <ele>412.3</ele>
        <time>2024-04-23T15:50:09.000Z</time>
      </trkpt>
      <trkpt lat="44.12375" lon="2.24949">
        <ele>412.2</ele>
        <time>2024-04-23T15:50:24.000Z</time>
      </trkpt>
      <trkpt lat="44.12375" lon="2.2495">
        <ele>412.2</ele>
        <time>2024-04-23T15:50:25.000Z</time>
      </trkpt>
      <trkpt lat="44.12375" lon="2.24952">
        <ele>412.2</ele>
        <time>2024-04-23T15:50:32.000Z</time>
      </trkpt>
      <trkpt lat="44.12372" lon="2.24954">
        <ele>412.1</ele>
        <time>2024-04-23T15:50:43.000Z</time>
      </trkpt>
      <trkpt lat="44.12373" lon="2.24954">
        <ele>412.1</ele>
        <time>2024-04-23T15:50:44.000Z</time>
      </trkpt>
      <trkpt lat="44.12375" lon="2.24953">
        <ele>412.1</ele>
        <time>2024-04-23T15:50:45.000Z</time>
      </trkpt>
      <trkpt lat="44.12375" lon="2.24953">
        <ele>412.1</ele>
        <time>2024-04-23T15:50:46.000Z</time>
      </trkpt>
      <trkpt lat="44.12375" lon="2.24952">
        <ele>412.1</ele>
        <time>2024-04-23T15:50:47.000Z</time>
      </trkpt>
      <trkpt lat="44.12376" lon="2.2495">
        <ele>412</ele>
        <time>2024-04-23T15:50:51.000Z</time>
      </trkpt>
      <trkpt lat="44.12376" lon="2.24949">
        <ele>411.9</ele>
        <time>2024-04-23T15:50:52.000Z</time>
      </trkpt>
      <trkpt lat="44.12377" lon="2.24937">
        <ele>411.3</ele>
        <time>2024-04-23T15:51:01.000Z</time>
      </trkpt>
      <trkpt lat="44.12378" lon="2.24924">
        <ele>411.1</ele>
        <time>2024-04-23T15:51:13.000Z</time>
      </trkpt>
      <trkpt lat="44.12382" lon="2.24913">
        <ele>412.2</ele>
        <time>2024-04-23T15:51:26.000Z</time>
      </trkpt>
      <trkpt lat="44.12383" lon="2.249">
        <ele>413.1</ele>
        <time>2024-04-23T15:51:41.000Z</time>
      </trkpt>
      <trkpt lat="44.12385" lon="2.24887">
        <ele>413.8</ele>
        <time>2024-04-23T15:51:55.000Z</time>
      </trkpt>
      <trkpt lat="44.12388" lon="2.24874">
        <ele>415</ele>
        <time>2024-04-23T15:52:09.000Z</time>
      </trkpt>
      <trkpt lat="44.1239" lon="2.24861">
        <ele>416.1</ele>
        <time>2024-04-23T15:52:19.000Z</time>
      </trkpt>
      <trkpt lat="44.12392" lon="2.24849">
        <ele>417.3</ele>
        <time>2024-04-23T15:52:28.000Z</time>
      </trkpt>
      <trkpt lat="44.12395" lon="2.24836">
        <ele>418.4</ele>
        <time>2024-04-23T15:52:37.000Z</time>
      </trkpt>
      <trkpt lat="44.12398" lon="2.24823">
        <ele>419.2</ele>
        <time>2024-04-23T15:52:46.000Z</time>
      </trkpt>
      <trkpt lat="44.12401" lon="2.24812">
        <ele>419.6</ele>
        <time>2024-04-23T15:52:54.000Z</time>
      </trkpt>
      <trkpt lat="44.12406" lon="2.248">
        <ele>420.7</ele>
        <time>2024-04-23T15:53:03.000Z</time>
      </trkpt>
      <trkpt lat="44.1241" lon="2.24788">
        <ele>421.9</ele>
        <time>2024-04-23T15:53:13.000Z</time>
      </trkpt>
      <trkpt lat="44.1241" lon="2.24774">
        <ele>422.3</ele>
        <time>2024-04-23T15:53:24.000Z</time>
      </trkpt>
      <trkpt lat="44.12405" lon="2.24764">
        <ele>422.5</ele>
        <time>2024-04-23T15:53:33.000Z</time>
      </trkpt>
      <trkpt lat="44.12399" lon="2.24754">
        <ele>423.2</ele>
        <time>2024-04-23T15:53:42.000Z</time>
      </trkpt>
      <trkpt lat="44.12394" lon="2.24742">
        <ele>423.9</ele>
        <time>2024-04-23T15:53:51.000Z</time>
      </trkpt>
      <trkpt lat="44.12388" lon="2.24732">
        <ele>424.8</ele>
        <time>2024-04-23T15:53:59.000Z</time>
      </trkpt>
      <trkpt lat="44.12385" lon="2.24721">
        <ele>428.8</ele>
        <time>2024-04-23T15:54:14.000Z</time>
      </trkpt>
      <trkpt lat="44.12379" lon="2.24711">
        <ele>430.7</ele>
        <time>2024-04-23T15:54:22.000Z</time>
      </trkpt>
      <trkpt lat="44.12373" lon="2.247">
        <ele>431.7</ele>
        <time>2024-04-23T15:54:32.000Z</time>
      </trkpt>
      <trkpt lat="44.12368" lon="2.2469">
        <ele>432.5</ele>
        <time>2024-04-23T15:54:41.000Z</time>
      </trkpt>
      <trkpt lat="44.12363" lon="2.24678">
        <ele>432.3</ele>
        <time>2024-04-23T15:54:49.000Z</time>
      </trkpt>
      <trkpt lat="44.12357" lon="2.24668">
        <ele>431</ele>
        <time>2024-04-23T15:54:59.000Z</time>
      </trkpt>
      <trkpt lat="44.12352" lon="2.24658">
        <ele>429.2</ele>
        <time>2024-04-23T15:55:07.000Z</time>
      </trkpt>
      <trkpt lat="44.12347" lon="2.24647">
        <ele>427.6</ele>
        <time>2024-04-23T15:55:16.000Z</time>
      </trkpt>
      <trkpt lat="44.12342" lon="2.24636">
        <ele>426.5</ele>
        <time>2024-04-23T15:55:25.000Z</time>
      </trkpt>
      <trkpt lat="44.12337" lon="2.24625">
        <ele>426</ele>
        <time>2024-04-23T15:55:33.000Z</time>
      </trkpt>
      <trkpt lat="44.12331" lon="2.24614">
        <ele>425.9</ele>
        <time>2024-04-23T15:55:43.000Z</time>
      </trkpt>
      <trkpt lat="44.12327" lon="2.24603">
        <ele>425.8</ele>
        <time>2024-04-23T15:55:51.000Z</time>
      </trkpt>
      <trkpt lat="44.12323" lon="2.24591">
        <ele>425.8</ele>
        <time>2024-04-23T15:55:59.000Z</time>
      </trkpt>
      <trkpt lat="44.12321" lon="2.24577">
        <ele>425.9</ele>
        <time>2024-04-23T15:56:08.000Z</time>
      </trkpt>
      <trkpt lat="44.12319" lon="2.24565">
        <ele>426</ele>
        <time>2024-04-23T15:56:17.000Z</time>
      </trkpt>
      <trkpt lat="44.12319" lon="2.24551">
        <ele>425.9</ele>
        <time>2024-04-23T15:56:25.000Z</time>
      </trkpt>
      <trkpt lat="44.12317" lon="2.24539">
        <ele>425.8</ele>
        <time>2024-04-23T15:56:33.000Z</time>
      </trkpt>
      <trkpt lat="44.12316" lon="2.24526">
        <ele>426</ele>
        <time>2024-04-23T15:56:41.000Z</time>
      </trkpt>
      <trkpt lat="44.12315" lon="2.24512">
        <ele>425.9</ele>
        <time>2024-04-23T15:56:50.000Z</time>
      </trkpt>
      <trkpt lat="44.12315" lon="2.24499">
        <ele>425.8</ele>
        <time>2024-04-23T15:56:57.000Z</time>
      </trkpt>
      <trkpt lat="44.12313" lon="2.24486">
        <ele>425.8</ele>
        <time>2024-04-23T15:57:05.000Z</time>
      </trkpt>
      <trkpt lat="44.12311" lon="2.24472">
        <ele>425.7</ele>
        <time>2024-04-23T15:57:14.000Z</time>
      </trkpt>
      <trkpt lat="44.1231" lon="2.24459">
        <ele>425.5</ele>
        <time>2024-04-23T15:57:22.000Z</time>
      </trkpt>
      <trkpt lat="44.12307" lon="2.24447">
        <ele>425</ele>
        <time>2024-04-23T15:57:32.000Z</time>
      </trkpt>
      <trkpt lat="44.12307" lon="2.24444">
        <ele>424.6</ele>
        <time>2024-04-23T15:57:36.099Z</time>
      </trkpt>
      <trkpt lat="44.12307" lon="2.24444">
        <ele>424.6</ele>
        <time>2024-04-23T15:57:36.099Z</time>
      </trkpt>
    </trkseg>
  </trk>
</gpx>